<?xml version="1.0" encoding="UTF-8" standalone="no" ?>
<gpx xmlns="http://www.topografix.com/GPX/1/1" xmlns:xsi="http://www.w3.org/2001/XMLSchema-instance" xsi:schemaLocation="http://www.topografix.com/GPX/1/1 http://www.topografix.com/GPX/1/1/gpx.xsd" version="1.1" creator="VisuGPX - https://www.visugpx.com">
  <metadata>
    <name>20190112210841-ggWBB</name>
  </metadata>
  <trk>
    <name><![CDATA[20190112210841-ggWBB]]></name>
    <trkseg>
      <trkpt lat="43.45412" lon="6.86918">
        <ele>23.60000038147</ele>
        <time>2019-01-12T12:20:36.000Z</time>
      </trkpt>
      <trkpt lat="43.45407" lon="6.86911">
        <ele>23.799999237061</ele>
        <time>2019-01-12T12:20:33.000Z</time>
      </trkpt>
      <trkpt lat="43.45405" lon="6.8691">
        <ele>23.799999237061</ele>
        <time>2019-01-12T12:20:32.000Z</time>
      </trkpt>
      <trkpt lat="43.45404" lon="6.86909">
        <ele>24.200000762939</ele>
        <time>2019-01-12T12:20:31.000Z</time>
      </trkpt>
      <trkpt lat="43.45396" lon="6.86902">
        <ele>25</ele>
        <time>2019-01-12T12:20:28.000Z</time>
      </trkpt>
      <trkpt lat="43.45392" lon="6.86899">
        <ele>25.799999237061</ele>
        <time>2019-01-12T12:20:27.000Z</time>
      </trkpt>
      <trkpt lat="43.45382" lon="6.86893">
        <ele>26.39999961853</ele>
        <time>2019-01-12T12:20:25.000Z</time>
      </trkpt>
      <trkpt lat="43.45371" lon="6.86886">
        <ele>27.200000762939</ele>
        <time>2019-01-12T12:20:23.000Z</time>
      </trkpt>
      <trkpt lat="43.45366" lon="6.86881">
        <ele>27.39999961853</ele>
        <time>2019-01-12T12:20:22.000Z</time>
      </trkpt>
      <trkpt lat="43.45349" lon="6.86859">
        <ele>28.60000038147</ele>
        <time>2019-01-12T12:20:17.000Z</time>
      </trkpt>
      <trkpt lat="43.45331" lon="6.86835">
        <ele>28.39999961853</ele>
        <time>2019-01-12T12:20:09.000Z</time>
      </trkpt>
      <trkpt lat="43.45314" lon="6.86817">
        <ele>28.200000762939</ele>
        <time>2019-01-12T12:20:02.000Z</time>
      </trkpt>
      <trkpt lat="43.45293" lon="6.868">
        <ele>27.60000038147</ele>
        <time>2019-01-12T12:19:56.000Z</time>
      </trkpt>
      <trkpt lat="43.45278" lon="6.86794">
        <ele>27.60000038147</ele>
        <time>2019-01-12T12:19:53.000Z</time>
      </trkpt>
      <trkpt lat="43.45267" lon="6.86789">
        <ele>27.60000038147</ele>
        <time>2019-01-12T12:19:51.000Z</time>
      </trkpt>
      <trkpt lat="43.45252" lon="6.86777">
        <ele>27.60000038147</ele>
        <time>2019-01-12T12:19:48.000Z</time>
      </trkpt>
      <trkpt lat="43.45245" lon="6.86752">
        <ele>27.60000038147</ele>
        <time>2019-01-12T12:19:45.000Z</time>
      </trkpt>
      <trkpt lat="43.45247" lon="6.8672">
        <ele>27.60000038147</ele>
        <time>2019-01-12T12:19:42.000Z</time>
      </trkpt>
      <trkpt lat="43.4525" lon="6.86697">
        <ele>28.39999961853</ele>
        <time>2019-01-12T12:19:40.000Z</time>
      </trkpt>
      <trkpt lat="43.45251" lon="6.86684">
        <ele>28.799999237061</ele>
        <time>2019-01-12T12:19:39.000Z</time>
      </trkpt>
      <trkpt lat="43.45253" lon="6.86657">
        <ele>30</ele>
        <time>2019-01-12T12:19:37.000Z</time>
      </trkpt>
      <trkpt lat="43.45253" lon="6.8663">
        <ele>31.200000762939</ele>
        <time>2019-01-12T12:19:35.000Z</time>
      </trkpt>
      <trkpt lat="43.45254" lon="6.86598">
        <ele>32.599998474121</ele>
        <time>2019-01-12T12:19:33.000Z</time>
      </trkpt>
      <trkpt lat="43.45255" lon="6.86568">
        <ele>34.400001525879</ele>
        <time>2019-01-12T12:19:31.000Z</time>
      </trkpt>
      <trkpt lat="43.45254" lon="6.86538">
        <ele>35.799999237061</ele>
        <time>2019-01-12T12:19:29.000Z</time>
      </trkpt>
      <trkpt lat="43.45253" lon="6.86523">
        <ele>36.799999237061</ele>
        <time>2019-01-12T12:19:28.000Z</time>
      </trkpt>
      <trkpt lat="43.45254" lon="6.86495">
        <ele>38.400001525879</ele>
        <time>2019-01-12T12:19:26.000Z</time>
      </trkpt>
      <trkpt lat="43.45256" lon="6.86481">
        <ele>39.200000762939</ele>
        <time>2019-01-12T12:19:25.000Z</time>
      </trkpt>
      <trkpt lat="43.4526" lon="6.86468">
        <ele>40</ele>
        <time>2019-01-12T12:19:24.000Z</time>
      </trkpt>
      <trkpt lat="43.45269" lon="6.86443">
        <ele>41.799999237061</ele>
        <time>2019-01-12T12:19:22.000Z</time>
      </trkpt>
      <trkpt lat="43.45273" lon="6.86431">
        <ele>42.599998474121</ele>
        <time>2019-01-12T12:19:21.000Z</time>
      </trkpt>
      <trkpt lat="43.45277" lon="6.86419">
        <ele>43.400001525879</ele>
        <time>2019-01-12T12:19:20.000Z</time>
      </trkpt>
      <trkpt lat="43.45279" lon="6.86395">
        <ele>45</ele>
        <time>2019-01-12T12:19:18.000Z</time>
      </trkpt>
      <trkpt lat="43.45278" lon="6.86383">
        <ele>45.599998474121</ele>
        <time>2019-01-12T12:19:17.000Z</time>
      </trkpt>
      <trkpt lat="43.45276" lon="6.86373">
        <ele>46.200000762939</ele>
        <time>2019-01-12T12:19:16.000Z</time>
      </trkpt>
      <trkpt lat="43.4527" lon="6.86351">
        <ele>47.200000762939</ele>
        <time>2019-01-12T12:19:14.000Z</time>
      </trkpt>
      <trkpt lat="43.45266" lon="6.86342">
        <ele>47.799999237061</ele>
        <time>2019-01-12T12:19:13.000Z</time>
      </trkpt>
      <trkpt lat="43.45255" lon="6.86329">
        <ele>48.799999237061</ele>
        <time>2019-01-12T12:19:11.000Z</time>
      </trkpt>
      <trkpt lat="43.4525" lon="6.86325">
        <ele>48.799999237061</ele>
        <time>2019-01-12T12:19:10.000Z</time>
      </trkpt>
      <trkpt lat="43.4524" lon="6.86316">
        <ele>49.599998474121</ele>
        <time>2019-01-12T12:19:08.000Z</time>
      </trkpt>
      <trkpt lat="43.45237" lon="6.86311">
        <ele>49.799999237061</ele>
        <time>2019-01-12T12:19:07.000Z</time>
      </trkpt>
      <trkpt lat="43.4523" lon="6.86294">
        <ele>50</ele>
        <time>2019-01-12T12:19:03.000Z</time>
      </trkpt>
      <trkpt lat="43.4523" lon="6.86284">
        <ele>50</ele>
        <time>2019-01-12T12:18:59.000Z</time>
      </trkpt>
      <trkpt lat="43.45231" lon="6.86279">
        <ele>49.799999237061</ele>
        <time>2019-01-12T12:18:57.000Z</time>
      </trkpt>
      <trkpt lat="43.45239" lon="6.86268">
        <ele>49.200000762939</ele>
        <time>2019-01-12T12:18:51.000Z</time>
      </trkpt>
      <trkpt lat="43.45243" lon="6.86266">
        <ele>49</ele>
        <time>2019-01-12T12:18:49.000Z</time>
      </trkpt>
      <trkpt lat="43.45256" lon="6.8626">
        <ele>48</ele>
        <time>2019-01-12T12:18:44.000Z</time>
      </trkpt>
      <trkpt lat="43.45259" lon="6.86259">
        <ele>47.799999237061</ele>
        <time>2019-01-12T12:18:43.000Z</time>
      </trkpt>
      <trkpt lat="43.45265" lon="6.86245">
        <ele>47.200000762939</ele>
        <time>2019-01-12T12:18:39.000Z</time>
      </trkpt>
      <trkpt lat="43.45266" lon="6.86234">
        <ele>46.599998474121</ele>
        <time>2019-01-12T12:18:36.000Z</time>
      </trkpt>
      <trkpt lat="43.45265" lon="6.86214">
        <ele>46</ele>
        <time>2019-01-12T12:18:31.000Z</time>
      </trkpt>
      <trkpt lat="43.45264" lon="6.86207">
        <ele>45.599998474121</ele>
        <time>2019-01-12T12:18:29.000Z</time>
      </trkpt>
      <trkpt lat="43.45258" lon="6.8619">
        <ele>44.799999237061</ele>
        <time>2019-01-12T12:18:24.000Z</time>
      </trkpt>
      <trkpt lat="43.45255" lon="6.86184">
        <ele>44.599998474121</ele>
        <time>2019-01-12T12:18:22.000Z</time>
      </trkpt>
      <trkpt lat="43.45244" lon="6.86168">
        <ele>43.599998474121</ele>
        <time>2019-01-12T12:18:16.000Z</time>
      </trkpt>
      <trkpt lat="43.45224" lon="6.86154">
        <ele>42.400001525879</ele>
        <time>2019-01-12T12:18:08.000Z</time>
      </trkpt>
      <trkpt lat="43.45221" lon="6.86153">
        <ele>42.200000762939</ele>
        <time>2019-01-12T12:18:07.000Z</time>
      </trkpt>
      <trkpt lat="43.45208" lon="6.86147">
        <ele>41.200000762939</ele>
        <time>2019-01-12T12:18:02.000Z</time>
      </trkpt>
      <trkpt lat="43.45201" lon="6.86142">
        <ele>40.799999237061</ele>
        <time>2019-01-12T12:17:59.000Z</time>
      </trkpt>
      <trkpt lat="43.45193" lon="6.86132">
        <ele>40.200000762939</ele>
        <time>2019-01-12T12:17:55.000Z</time>
      </trkpt>
      <trkpt lat="43.45184" lon="6.86119">
        <ele>39.200000762939</ele>
        <time>2019-01-12T12:17:50.000Z</time>
      </trkpt>
      <trkpt lat="43.45179" lon="6.86111">
        <ele>39</ele>
        <time>2019-01-12T12:17:47.000Z</time>
      </trkpt>
      <trkpt lat="43.45172" lon="6.86092">
        <ele>38.200000762939</ele>
        <time>2019-01-12T12:17:41.000Z</time>
      </trkpt>
      <trkpt lat="43.4517" lon="6.86086">
        <ele>38</ele>
        <time>2019-01-12T12:17:39.000Z</time>
      </trkpt>
      <trkpt lat="43.45166" lon="6.86066">
        <ele>36.799999237061</ele>
        <time>2019-01-12T12:17:33.000Z</time>
      </trkpt>
      <trkpt lat="43.4516" lon="6.86039">
        <ele>35.799999237061</ele>
        <time>2019-01-12T12:17:25.000Z</time>
      </trkpt>
      <trkpt lat="43.45158" lon="6.86033">
        <ele>35.599998474121</ele>
        <time>2019-01-12T12:17:23.000Z</time>
      </trkpt>
      <trkpt lat="43.45151" lon="6.86011">
        <ele>34.599998474121</ele>
        <time>2019-01-12T12:17:16.000Z</time>
      </trkpt>
      <trkpt lat="43.45142" lon="6.85989">
        <ele>33.599998474121</ele>
        <time>2019-01-12T12:17:09.000Z</time>
      </trkpt>
      <trkpt lat="43.45139" lon="6.8598">
        <ele>33.200000762939</ele>
        <time>2019-01-12T12:17:06.000Z</time>
      </trkpt>
      <trkpt lat="43.45135" lon="6.85963">
        <ele>32.400001525879</ele>
        <time>2019-01-12T12:17:01.000Z</time>
      </trkpt>
      <trkpt lat="43.45132" lon="6.85945">
        <ele>31.39999961853</ele>
        <time>2019-01-12T12:16:56.000Z</time>
      </trkpt>
      <trkpt lat="43.45131" lon="6.85941">
        <ele>31.200000762939</ele>
        <time>2019-01-12T12:16:55.000Z</time>
      </trkpt>
      <trkpt lat="43.45126" lon="6.85916">
        <ele>30.39999961853</ele>
        <time>2019-01-12T12:16:48.000Z</time>
      </trkpt>
      <trkpt lat="43.45123" lon="6.85906">
        <ele>30</ele>
        <time>2019-01-12T12:16:45.000Z</time>
      </trkpt>
      <trkpt lat="43.45117" lon="6.85891">
        <ele>29.200000762939</ele>
        <time>2019-01-12T12:16:40.000Z</time>
      </trkpt>
      <trkpt lat="43.45112" lon="6.85883">
        <ele>29</ele>
        <time>2019-01-12T12:16:37.000Z</time>
      </trkpt>
      <trkpt lat="43.45104" lon="6.85869">
        <ele>28.200000762939</ele>
        <time>2019-01-12T12:16:32.000Z</time>
      </trkpt>
      <trkpt lat="43.45098" lon="6.85856">
        <ele>27.39999961853</ele>
        <time>2019-01-12T12:16:28.000Z</time>
      </trkpt>
      <trkpt lat="43.45097" lon="6.85853">
        <ele>27.200000762939</ele>
        <time>2019-01-12T12:16:27.000Z</time>
      </trkpt>
      <trkpt lat="43.45091" lon="6.85831">
        <ele>26.200000762939</ele>
        <time>2019-01-12T12:16:21.000Z</time>
      </trkpt>
      <trkpt lat="43.45085" lon="6.858">
        <ele>25</ele>
        <time>2019-01-12T12:16:13.000Z</time>
      </trkpt>
      <trkpt lat="43.45084" lon="6.85796">
        <ele>24.799999237061</ele>
        <time>2019-01-12T12:16:12.000Z</time>
      </trkpt>
      <trkpt lat="43.4508" lon="6.85777">
        <ele>24</ele>
        <time>2019-01-12T12:16:07.000Z</time>
      </trkpt>
      <trkpt lat="43.45076" lon="6.85762">
        <ele>23.39999961853</ele>
        <time>2019-01-12T12:16:03.000Z</time>
      </trkpt>
      <trkpt lat="43.45073" lon="6.85754">
        <ele>23</ele>
        <time>2019-01-12T12:16:01.000Z</time>
      </trkpt>
      <trkpt lat="43.45068" lon="6.85739">
        <ele>22</ele>
        <time>2019-01-12T12:15:57.000Z</time>
      </trkpt>
      <trkpt lat="43.45063" lon="6.85727">
        <ele>21.200000762939</ele>
        <time>2019-01-12T12:15:54.000Z</time>
      </trkpt>
      <trkpt lat="43.45047" lon="6.85706">
        <ele>20.799999237061</ele>
        <time>2019-01-12T12:15:48.000Z</time>
      </trkpt>
      <trkpt lat="43.45013" lon="6.85691">
        <ele>20.60000038147</ele>
        <time>2019-01-12T12:15:40.000Z</time>
      </trkpt>
      <trkpt lat="43.45" lon="6.85684">
        <ele>20.60000038147</ele>
        <time>2019-01-12T12:15:37.000Z</time>
      </trkpt>
      <trkpt lat="43.44988" lon="6.85676">
        <ele>20.60000038147</ele>
        <time>2019-01-12T12:15:34.000Z</time>
      </trkpt>
      <trkpt lat="43.44981" lon="6.85669">
        <ele>20.799999237061</ele>
        <time>2019-01-12T12:15:32.000Z</time>
      </trkpt>
      <trkpt lat="43.4497" lon="6.85651">
        <ele>20.799999237061</ele>
        <time>2019-01-12T12:15:28.000Z</time>
      </trkpt>
      <trkpt lat="43.44959" lon="6.85606">
        <ele>21</ele>
        <time>2019-01-12T12:15:20.000Z</time>
      </trkpt>
      <trkpt lat="43.44957" lon="6.85588">
        <ele>21</ele>
        <time>2019-01-12T12:15:17.000Z</time>
      </trkpt>
      <trkpt lat="43.44952" lon="6.85565">
        <ele>20.200000762939</ele>
        <time>2019-01-12T12:15:13.000Z</time>
      </trkpt>
      <trkpt lat="43.4495" lon="6.85559">
        <ele>20</ele>
        <time>2019-01-12T12:15:12.000Z</time>
      </trkpt>
      <trkpt lat="43.44937" lon="6.85533">
        <ele>20</ele>
        <time>2019-01-12T12:15:07.000Z</time>
      </trkpt>
      <trkpt lat="43.44931" lon="6.85523">
        <ele>20</ele>
        <time>2019-01-12T12:15:05.000Z</time>
      </trkpt>
      <trkpt lat="43.44919" lon="6.8551">
        <ele>20.200000762939</ele>
        <time>2019-01-12T12:15:02.000Z</time>
      </trkpt>
      <trkpt lat="43.44888" lon="6.85484">
        <ele>20.200000762939</ele>
        <time>2019-01-12T12:14:54.000Z</time>
      </trkpt>
      <trkpt lat="43.4485" lon="6.85449">
        <ele>19.799999237061</ele>
        <time>2019-01-12T12:14:44.000Z</time>
      </trkpt>
      <trkpt lat="43.44824" lon="6.85424">
        <ele>20.200000762939</ele>
        <time>2019-01-12T12:14:37.000Z</time>
      </trkpt>
      <trkpt lat="43.44815" lon="6.85411">
        <ele>20.200000762939</ele>
        <time>2019-01-12T12:14:34.000Z</time>
      </trkpt>
      <trkpt lat="43.44807" lon="6.85396">
        <ele>20.200000762939</ele>
        <time>2019-01-12T12:14:31.000Z</time>
      </trkpt>
      <trkpt lat="43.44798" lon="6.85371">
        <ele>19.799999237061</ele>
        <time>2019-01-12T12:14:26.000Z</time>
      </trkpt>
      <trkpt lat="43.44794" lon="6.85356">
        <ele>19.60000038147</ele>
        <time>2019-01-12T12:14:23.000Z</time>
      </trkpt>
      <trkpt lat="43.44789" lon="6.85329">
        <ele>19.200000762939</ele>
        <time>2019-01-12T12:14:18.000Z</time>
      </trkpt>
      <trkpt lat="43.44787" lon="6.85317">
        <ele>19.200000762939</ele>
        <time>2019-01-12T12:14:16.000Z</time>
      </trkpt>
      <trkpt lat="43.44784" lon="6.85299">
        <ele>18.799999237061</ele>
        <time>2019-01-12T12:14:13.000Z</time>
      </trkpt>
      <trkpt lat="43.4478" lon="6.85282">
        <ele>18.39999961853</ele>
        <time>2019-01-12T12:14:10.000Z</time>
      </trkpt>
      <trkpt lat="43.44762" lon="6.85232">
        <ele>19</ele>
        <time>2019-01-12T12:14:01.000Z</time>
      </trkpt>
      <trkpt lat="43.4476" lon="6.85226">
        <ele>19</ele>
        <time>2019-01-12T12:14:00.000Z</time>
      </trkpt>
      <trkpt lat="43.44752" lon="6.85205">
        <ele>18.799999237061</ele>
        <time>2019-01-12T12:13:56.000Z</time>
      </trkpt>
      <trkpt lat="43.44739" lon="6.8519">
        <ele>19</ele>
        <time>2019-01-12T12:13:52.000Z</time>
      </trkpt>
      <trkpt lat="43.44735" lon="6.85188">
        <ele>19</ele>
        <time>2019-01-12T12:13:51.000Z</time>
      </trkpt>
      <trkpt lat="43.44711" lon="6.85178">
        <ele>18.799999237061</ele>
        <time>2019-01-12T12:13:45.000Z</time>
      </trkpt>
      <trkpt lat="43.44704" lon="6.85172">
        <ele>18.799999237061</ele>
        <time>2019-01-12T12:13:43.000Z</time>
      </trkpt>
      <trkpt lat="43.44695" lon="6.85161">
        <ele>18.799999237061</ele>
        <time>2019-01-12T12:13:40.000Z</time>
      </trkpt>
      <trkpt lat="43.44681" lon="6.85135">
        <ele>19</ele>
        <time>2019-01-12T12:13:34.000Z</time>
      </trkpt>
      <trkpt lat="43.44678" lon="6.8513">
        <ele>19</ele>
        <time>2019-01-12T12:13:33.000Z</time>
      </trkpt>
      <trkpt lat="43.44664" lon="6.85115">
        <ele>18.799999237061</ele>
        <time>2019-01-12T12:13:29.000Z</time>
      </trkpt>
      <trkpt lat="43.44651" lon="6.85113">
        <ele>18.60000038147</ele>
        <time>2019-01-12T12:13:26.000Z</time>
      </trkpt>
      <trkpt lat="43.44642" lon="6.85116">
        <ele>18.60000038147</ele>
        <time>2019-01-12T12:13:24.000Z</time>
      </trkpt>
      <trkpt lat="43.44625" lon="6.85125">
        <ele>18.799999237061</ele>
        <time>2019-01-12T12:13:20.000Z</time>
      </trkpt>
      <trkpt lat="43.44621" lon="6.85126">
        <ele>18.799999237061</ele>
        <time>2019-01-12T12:13:19.000Z</time>
      </trkpt>
      <trkpt lat="43.44616" lon="6.85128">
        <ele>19.200000762939</ele>
        <time>2019-01-12T12:13:18.000Z</time>
      </trkpt>
      <trkpt lat="43.44591" lon="6.85128">
        <ele>19.200000762939</ele>
        <time>2019-01-12T12:13:13.000Z</time>
      </trkpt>
      <trkpt lat="43.44555" lon="6.85126">
        <ele>19.60000038147</ele>
        <time>2019-01-12T12:13:05.000Z</time>
      </trkpt>
      <trkpt lat="43.44523" lon="6.85123">
        <ele>19.60000038147</ele>
        <time>2019-01-12T12:12:58.000Z</time>
      </trkpt>
      <trkpt lat="43.44508" lon="6.85122">
        <ele>20.200000762939</ele>
        <time>2019-01-12T12:12:55.000Z</time>
      </trkpt>
      <trkpt lat="43.44499" lon="6.85119">
        <ele>20.200000762939</ele>
        <time>2019-01-12T12:12:53.000Z</time>
      </trkpt>
      <trkpt lat="43.44478" lon="6.85108">
        <ele>20</ele>
        <time>2019-01-12T12:12:47.000Z</time>
      </trkpt>
      <trkpt lat="43.4446" lon="6.85097">
        <ele>20</ele>
        <time>2019-01-12T12:12:42.000Z</time>
      </trkpt>
      <trkpt lat="43.44449" lon="6.85094">
        <ele>20</ele>
        <time>2019-01-12T12:12:39.000Z</time>
      </trkpt>
      <trkpt lat="43.44441" lon="6.85094">
        <ele>20</ele>
        <time>2019-01-12T12:12:37.000Z</time>
      </trkpt>
      <trkpt lat="43.44416" lon="6.851">
        <ele>18.799999237061</ele>
        <time>2019-01-12T12:12:30.000Z</time>
      </trkpt>
      <trkpt lat="43.44381" lon="6.85104">
        <ele>18.39999961853</ele>
        <time>2019-01-12T12:12:21.000Z</time>
      </trkpt>
      <trkpt lat="43.44354" lon="6.85099">
        <ele>18.200000762939</ele>
        <time>2019-01-12T12:12:14.000Z</time>
      </trkpt>
      <trkpt lat="43.44325" lon="6.85082">
        <ele>18.200000762939</ele>
        <time>2019-01-12T12:12:06.000Z</time>
      </trkpt>
      <trkpt lat="43.443" lon="6.85065">
        <ele>18.200000762939</ele>
        <time>2019-01-12T12:11:59.000Z</time>
      </trkpt>
      <trkpt lat="43.44273" lon="6.85043">
        <ele>19.60000038147</ele>
        <time>2019-01-12T12:11:52.000Z</time>
      </trkpt>
      <trkpt lat="43.44259" lon="6.85037">
        <ele>19.799999237061</ele>
        <time>2019-01-12T12:11:48.000Z</time>
      </trkpt>
      <trkpt lat="43.44234" lon="6.85042">
        <ele>19.200000762939</ele>
        <time>2019-01-12T12:11:41.000Z</time>
      </trkpt>
      <trkpt lat="43.44216" lon="6.85041">
        <ele>19</ele>
        <time>2019-01-12T12:11:36.000Z</time>
      </trkpt>
      <trkpt lat="43.44205" lon="6.8504">
        <ele>18.60000038147</ele>
        <time>2019-01-12T12:11:33.000Z</time>
      </trkpt>
      <trkpt lat="43.44181" lon="6.8504">
        <ele>18</ele>
        <time>2019-01-12T12:11:26.000Z</time>
      </trkpt>
      <trkpt lat="43.44177" lon="6.85039">
        <ele>17.799999237061</ele>
        <time>2019-01-12T12:11:25.000Z</time>
      </trkpt>
      <trkpt lat="43.44151" lon="6.85035">
        <ele>17.39999961853</ele>
        <time>2019-01-12T12:11:18.000Z</time>
      </trkpt>
      <trkpt lat="43.44118" lon="6.85022">
        <ele>17</ele>
        <time>2019-01-12T12:11:09.000Z</time>
      </trkpt>
      <trkpt lat="43.44107" lon="6.85018">
        <ele>17</ele>
        <time>2019-01-12T12:11:06.000Z</time>
      </trkpt>
      <trkpt lat="43.44084" lon="6.85009">
        <ele>16.60000038147</ele>
        <time>2019-01-12T12:11:00.000Z</time>
      </trkpt>
      <trkpt lat="43.44063" lon="6.85">
        <ele>16.39999961853</ele>
        <time>2019-01-12T12:10:54.000Z</time>
      </trkpt>
      <trkpt lat="43.44029" lon="6.84988">
        <ele>16.60000038147</ele>
        <time>2019-01-12T12:10:45.000Z</time>
      </trkpt>
      <trkpt lat="43.44005" lon="6.84987">
        <ele>16.39999961853</ele>
        <time>2019-01-12T12:10:39.000Z</time>
      </trkpt>
      <trkpt lat="43.43982" lon="6.85002">
        <ele>16.60000038147</ele>
        <time>2019-01-12T12:10:32.000Z</time>
      </trkpt>
      <trkpt lat="43.43958" lon="6.85022">
        <ele>16.60000038147</ele>
        <time>2019-01-12T12:10:24.000Z</time>
      </trkpt>
      <trkpt lat="43.43948" lon="6.85025">
        <ele>16.200000762939</ele>
        <time>2019-01-12T12:10:20.000Z</time>
      </trkpt>
      <trkpt lat="43.43946" lon="6.85024">
        <ele>16</ele>
        <time>2019-01-12T12:10:19.000Z</time>
      </trkpt>
      <trkpt lat="43.43939" lon="6.8502">
        <ele>14.800000190735</ele>
        <time>2019-01-12T12:10:15.000Z</time>
      </trkpt>
      <trkpt lat="43.43937" lon="6.85018">
        <ele>14.60000038147</ele>
        <time>2019-01-12T12:10:14.000Z</time>
      </trkpt>
      <trkpt lat="43.43934" lon="6.85006">
        <ele>13.60000038147</ele>
        <time>2019-01-12T12:10:10.000Z</time>
      </trkpt>
      <trkpt lat="43.4393" lon="6.84981">
        <ele>13.60000038147</ele>
        <time>2019-01-12T12:10:05.000Z</time>
      </trkpt>
      <trkpt lat="43.43928" lon="6.84969">
        <ele>14</ele>
        <time>2019-01-12T12:10:03.000Z</time>
      </trkpt>
      <trkpt lat="43.43928" lon="6.84946">
        <ele>14.39999961853</ele>
        <time>2019-01-12T12:09:59.000Z</time>
      </trkpt>
      <trkpt lat="43.4393" lon="6.84942">
        <ele>14.60000038147</ele>
        <time>2019-01-12T12:09:58.000Z</time>
      </trkpt>
      <trkpt lat="43.43947" lon="6.84928">
        <ele>14.800000190735</ele>
        <time>2019-01-12T12:09:53.000Z</time>
      </trkpt>
      <trkpt lat="43.43951" lon="6.84925">
        <ele>14.800000190735</ele>
        <time>2019-01-12T12:09:52.000Z</time>
      </trkpt>
      <trkpt lat="43.43967" lon="6.84916">
        <ele>15.199999809265</ele>
        <time>2019-01-12T12:09:47.000Z</time>
      </trkpt>
      <trkpt lat="43.43974" lon="6.84907">
        <ele>15.199999809265</ele>
        <time>2019-01-12T12:09:44.000Z</time>
      </trkpt>
      <trkpt lat="43.43975" lon="6.84903">
        <ele>15.199999809265</ele>
        <time>2019-01-12T12:09:43.000Z</time>
      </trkpt>
      <trkpt lat="43.4397" lon="6.84889">
        <ele>15.199999809265</ele>
        <time>2019-01-12T12:09:40.000Z</time>
      </trkpt>
      <trkpt lat="43.4395" lon="6.84862">
        <ele>15.800000190735</ele>
        <time>2019-01-12T12:09:34.000Z</time>
      </trkpt>
      <trkpt lat="43.43938" lon="6.84843">
        <ele>16.60000038147</ele>
        <time>2019-01-12T12:09:30.000Z</time>
      </trkpt>
      <trkpt lat="43.43931" lon="6.84833">
        <ele>16.799999237061</ele>
        <time>2019-01-12T12:09:28.000Z</time>
      </trkpt>
      <trkpt lat="43.43914" lon="6.84803">
        <ele>17.39999961853</ele>
        <time>2019-01-12T12:09:22.000Z</time>
      </trkpt>
      <trkpt lat="43.439" lon="6.84778">
        <ele>18</ele>
        <time>2019-01-12T12:09:17.000Z</time>
      </trkpt>
      <trkpt lat="43.43898" lon="6.84773">
        <ele>18</ele>
        <time>2019-01-12T12:09:16.000Z</time>
      </trkpt>
      <trkpt lat="43.43896" lon="6.84768">
        <ele>18.200000762939</ele>
        <time>2019-01-12T12:09:15.000Z</time>
      </trkpt>
      <trkpt lat="43.43892" lon="6.84758">
        <ele>18.39999961853</ele>
        <time>2019-01-12T12:09:13.000Z</time>
      </trkpt>
      <trkpt lat="43.43892" lon="6.84747">
        <ele>18.799999237061</ele>
        <time>2019-01-12T12:09:11.000Z</time>
      </trkpt>
      <trkpt lat="43.43894" lon="6.84723">
        <ele>18.799999237061</ele>
        <time>2019-01-12T12:09:07.000Z</time>
      </trkpt>
      <trkpt lat="43.43897" lon="6.84707">
        <ele>19</ele>
        <time>2019-01-12T12:09:04.000Z</time>
      </trkpt>
      <trkpt lat="43.43899" lon="6.84696">
        <ele>19</ele>
        <time>2019-01-12T12:09:02.000Z</time>
      </trkpt>
      <trkpt lat="43.439" lon="6.84691">
        <ele>19.200000762939</ele>
        <time>2019-01-12T12:09:01.000Z</time>
      </trkpt>
      <trkpt lat="43.43901" lon="6.84674">
        <ele>19.39999961853</ele>
        <time>2019-01-12T12:08:58.000Z</time>
      </trkpt>
      <trkpt lat="43.43897" lon="6.84618">
        <ele>20.200000762939</ele>
        <time>2019-01-12T12:08:48.000Z</time>
      </trkpt>
      <trkpt lat="43.43897" lon="6.84612">
        <ele>20</ele>
        <time>2019-01-12T12:08:47.000Z</time>
      </trkpt>
      <trkpt lat="43.43892" lon="6.8459">
        <ele>20.200000762939</ele>
        <time>2019-01-12T12:08:43.000Z</time>
      </trkpt>
      <trkpt lat="43.43888" lon="6.84579">
        <ele>20.39999961853</ele>
        <time>2019-01-12T12:08:41.000Z</time>
      </trkpt>
      <trkpt lat="43.43876" lon="6.84546">
        <ele>20.60000038147</ele>
        <time>2019-01-12T12:08:34.000Z</time>
      </trkpt>
      <trkpt lat="43.43865" lon="6.84504">
        <ele>21</ele>
        <time>2019-01-12T12:08:26.000Z</time>
      </trkpt>
      <trkpt lat="43.4386" lon="6.84485">
        <ele>21.200000762939</ele>
        <time>2019-01-12T12:08:22.000Z</time>
      </trkpt>
      <trkpt lat="43.43857" lon="6.8447">
        <ele>21.799999237061</ele>
        <time>2019-01-12T12:08:19.000Z</time>
      </trkpt>
      <trkpt lat="43.43852" lon="6.84449">
        <ele>22.60000038147</ele>
        <time>2019-01-12T12:08:15.000Z</time>
      </trkpt>
      <trkpt lat="43.4385" lon="6.84439">
        <ele>22.39999961853</ele>
        <time>2019-01-12T12:08:13.000Z</time>
      </trkpt>
      <trkpt lat="43.4385" lon="6.84425">
        <ele>22.39999961853</ele>
        <time>2019-01-12T12:08:09.000Z</time>
      </trkpt>
      <trkpt lat="43.43844" lon="6.84415">
        <ele>22.200000762939</ele>
        <time>2019-01-12T12:08:04.000Z</time>
      </trkpt>
      <trkpt lat="43.43841" lon="6.84409">
        <ele>22.39999961853</ele>
        <time>2019-01-12T12:08:02.000Z</time>
      </trkpt>
      <trkpt lat="43.43838" lon="6.84395">
        <ele>23</ele>
        <time>2019-01-12T12:07:59.000Z</time>
      </trkpt>
      <trkpt lat="43.43837" lon="6.8439">
        <ele>23.200000762939</ele>
        <time>2019-01-12T12:07:58.000Z</time>
      </trkpt>
      <trkpt lat="43.43833" lon="6.84374">
        <ele>23.60000038147</ele>
        <time>2019-01-12T12:07:55.000Z</time>
      </trkpt>
      <trkpt lat="43.43826" lon="6.84363">
        <ele>23.39999961853</ele>
        <time>2019-01-12T12:07:51.000Z</time>
      </trkpt>
      <trkpt lat="43.43819" lon="6.84357">
        <ele>23.39999961853</ele>
        <time>2019-01-12T12:07:47.000Z</time>
      </trkpt>
      <trkpt lat="43.43814" lon="6.84354">
        <ele>23.39999961853</ele>
        <time>2019-01-12T12:07:45.000Z</time>
      </trkpt>
      <trkpt lat="43.43807" lon="6.84351">
        <ele>24.60000038147</ele>
        <time>2019-01-12T12:07:42.000Z</time>
      </trkpt>
      <trkpt lat="43.43803" lon="6.84353">
        <ele>26.200000762939</ele>
        <time>2019-01-12T12:07:40.000Z</time>
      </trkpt>
      <trkpt lat="43.43802" lon="6.84356">
        <ele>26.39999961853</ele>
        <time>2019-01-12T12:07:39.000Z</time>
      </trkpt>
      <trkpt lat="43.43808" lon="6.84373">
        <ele>26.60000038147</ele>
        <time>2019-01-12T12:07:36.000Z</time>
      </trkpt>
      <trkpt lat="43.43811" lon="6.8438">
        <ele>27</ele>
        <time>2019-01-12T12:07:35.000Z</time>
      </trkpt>
      <trkpt lat="43.43813" lon="6.84387">
        <ele>27.200000762939</ele>
        <time>2019-01-12T12:07:34.000Z</time>
      </trkpt>
      <trkpt lat="43.43818" lon="6.84403">
        <ele>28.799999237061</ele>
        <time>2019-01-12T12:07:32.000Z</time>
      </trkpt>
      <trkpt lat="43.4382" lon="6.8441">
        <ele>30.39999961853</ele>
        <time>2019-01-12T12:07:31.000Z</time>
      </trkpt>
      <trkpt lat="43.43822" lon="6.84416">
        <ele>31.200000762939</ele>
        <time>2019-01-12T12:07:30.000Z</time>
      </trkpt>
      <trkpt lat="43.43827" lon="6.84437">
        <ele>32.200000762939</ele>
        <time>2019-01-12T12:07:27.000Z</time>
      </trkpt>
      <trkpt lat="43.43829" lon="6.84443">
        <ele>31.799999237061</ele>
        <time>2019-01-12T12:07:26.000Z</time>
      </trkpt>
      <trkpt lat="43.43829" lon="6.84451">
        <ele>32.400001525879</ele>
        <time>2019-01-12T12:07:25.000Z</time>
      </trkpt>
      <trkpt lat="43.43832" lon="6.84463">
        <ele>33</ele>
        <time>2019-01-12T12:07:23.000Z</time>
      </trkpt>
      <trkpt lat="43.43833" lon="6.84469">
        <ele>33.400001525879</ele>
        <time>2019-01-12T12:07:22.000Z</time>
      </trkpt>
      <trkpt lat="43.43835" lon="6.84475">
        <ele>34</ele>
        <time>2019-01-12T12:07:21.000Z</time>
      </trkpt>
      <trkpt lat="43.43838" lon="6.84486">
        <ele>34.599998474121</ele>
        <time>2019-01-12T12:07:19.000Z</time>
      </trkpt>
      <trkpt lat="43.43839" lon="6.84499">
        <ele>36</ele>
        <time>2019-01-12T12:07:17.000Z</time>
      </trkpt>
      <trkpt lat="43.43839" lon="6.84505">
        <ele>36.400001525879</ele>
        <time>2019-01-12T12:07:16.000Z</time>
      </trkpt>
      <trkpt lat="43.43839" lon="6.84512">
        <ele>37</ele>
        <time>2019-01-12T12:07:15.000Z</time>
      </trkpt>
      <trkpt lat="43.43839" lon="6.84525">
        <ele>38.400001525879</ele>
        <time>2019-01-12T12:07:13.000Z</time>
      </trkpt>
      <trkpt lat="43.4384" lon="6.84538">
        <ele>39.400001525879</ele>
        <time>2019-01-12T12:07:11.000Z</time>
      </trkpt>
      <trkpt lat="43.43841" lon="6.84545">
        <ele>39</ele>
        <time>2019-01-12T12:07:10.000Z</time>
      </trkpt>
      <trkpt lat="43.43837" lon="6.8457">
        <ele>39.400001525879</ele>
        <time>2019-01-12T12:07:06.000Z</time>
      </trkpt>
      <trkpt lat="43.43832" lon="6.84587">
        <ele>40.799999237061</ele>
        <time>2019-01-12T12:07:03.000Z</time>
      </trkpt>
      <trkpt lat="43.43825" lon="6.84603">
        <ele>42.200000762939</ele>
        <time>2019-01-12T12:07:00.000Z</time>
      </trkpt>
      <trkpt lat="43.43821" lon="6.84612">
        <ele>43.400001525879</ele>
        <time>2019-01-12T12:06:58.000Z</time>
      </trkpt>
      <trkpt lat="43.43815" lon="6.84621">
        <ele>43.400001525879</ele>
        <time>2019-01-12T12:06:56.000Z</time>
      </trkpt>
      <trkpt lat="43.43813" lon="6.84625">
        <ele>43.799999237061</ele>
        <time>2019-01-12T12:06:55.000Z</time>
      </trkpt>
      <trkpt lat="43.43805" lon="6.84637">
        <ele>44.599998474121</ele>
        <time>2019-01-12T12:06:52.000Z</time>
      </trkpt>
      <trkpt lat="43.43803" lon="6.84639">
        <ele>44.799999237061</ele>
        <time>2019-01-12T12:06:51.000Z</time>
      </trkpt>
      <trkpt lat="43.43792" lon="6.84656">
        <ele>45.599998474121</ele>
        <time>2019-01-12T12:06:46.000Z</time>
      </trkpt>
      <trkpt lat="43.43785" lon="6.84668">
        <ele>46</ele>
        <time>2019-01-12T12:06:42.000Z</time>
      </trkpt>
      <trkpt lat="43.43783" lon="6.84668">
        <ele>46</ele>
        <time>2019-01-12T12:06:41.000Z</time>
      </trkpt>
      <trkpt lat="43.43783" lon="6.84665">
        <ele>46</ele>
        <time>2019-01-12T12:06:39.000Z</time>
      </trkpt>
      <trkpt lat="43.4379" lon="6.84652">
        <ele>45.599998474121</ele>
        <time>2019-01-12T12:06:35.000Z</time>
      </trkpt>
      <trkpt lat="43.43792" lon="6.84649">
        <ele>45.799999237061</ele>
        <time>2019-01-12T12:06:34.000Z</time>
      </trkpt>
      <trkpt lat="43.43797" lon="6.84642">
        <ele>46.599998474121</ele>
        <time>2019-01-12T12:06:30.000Z</time>
      </trkpt>
      <trkpt lat="43.438" lon="6.84636">
        <ele>46.799999237061</ele>
        <time>2019-01-12T12:06:28.000Z</time>
      </trkpt>
      <trkpt lat="43.43803" lon="6.84625">
        <ele>48</ele>
        <time>2019-01-12T12:06:26.000Z</time>
      </trkpt>
      <trkpt lat="43.43805" lon="6.84619">
        <ele>48.200000762939</ele>
        <time>2019-01-12T12:06:25.000Z</time>
      </trkpt>
      <trkpt lat="43.4381" lon="6.84607">
        <ele>49</ele>
        <time>2019-01-12T12:06:23.000Z</time>
      </trkpt>
      <trkpt lat="43.43812" lon="6.846">
        <ele>49.599998474121</ele>
        <time>2019-01-12T12:06:22.000Z</time>
      </trkpt>
      <trkpt lat="43.43815" lon="6.84588">
        <ele>50.599998474121</ele>
        <time>2019-01-12T12:06:20.000Z</time>
      </trkpt>
      <trkpt lat="43.43818" lon="6.84562">
        <ele>51</ele>
        <time>2019-01-12T12:06:16.000Z</time>
      </trkpt>
      <trkpt lat="43.43818" lon="6.84555">
        <ele>51</ele>
        <time>2019-01-12T12:06:15.000Z</time>
      </trkpt>
      <trkpt lat="43.43815" lon="6.84532">
        <ele>51.799999237061</ele>
        <time>2019-01-12T12:06:12.000Z</time>
      </trkpt>
      <trkpt lat="43.43813" lon="6.84525">
        <ele>52.400001525879</ele>
        <time>2019-01-12T12:06:11.000Z</time>
      </trkpt>
      <trkpt lat="43.4381" lon="6.8451">
        <ele>53</ele>
        <time>2019-01-12T12:06:09.000Z</time>
      </trkpt>
      <trkpt lat="43.43806" lon="6.84497">
        <ele>53.200000762939</ele>
        <time>2019-01-12T12:06:07.000Z</time>
      </trkpt>
      <trkpt lat="43.43795" lon="6.84471">
        <ele>54.200000762939</ele>
        <time>2019-01-12T12:06:03.000Z</time>
      </trkpt>
      <trkpt lat="43.43786" lon="6.84454">
        <ele>54.400001525879</ele>
        <time>2019-01-12T12:06:00.000Z</time>
      </trkpt>
      <trkpt lat="43.43777" lon="6.84439">
        <ele>55.799999237061</ele>
        <time>2019-01-12T12:05:57.000Z</time>
      </trkpt>
      <trkpt lat="43.43774" lon="6.84435">
        <ele>56</ele>
        <time>2019-01-12T12:05:56.000Z</time>
      </trkpt>
      <trkpt lat="43.43766" lon="6.84421">
        <ele>56.400001525879</ele>
        <time>2019-01-12T12:05:53.000Z</time>
      </trkpt>
      <trkpt lat="43.43762" lon="6.84417">
        <ele>56.400001525879</ele>
        <time>2019-01-12T12:05:52.000Z</time>
      </trkpt>
      <trkpt lat="43.43751" lon="6.84406">
        <ele>56.799999237061</ele>
        <time>2019-01-12T12:05:49.000Z</time>
      </trkpt>
      <trkpt lat="43.43747" lon="6.84403">
        <ele>57.200000762939</ele>
        <time>2019-01-12T12:05:48.000Z</time>
      </trkpt>
      <trkpt lat="43.43738" lon="6.844">
        <ele>57.799999237061</ele>
        <time>2019-01-12T12:05:46.000Z</time>
      </trkpt>
      <trkpt lat="43.43729" lon="6.84401">
        <ele>58.799999237061</ele>
        <time>2019-01-12T12:05:44.000Z</time>
      </trkpt>
      <trkpt lat="43.43719" lon="6.84405">
        <ele>59.200000762939</ele>
        <time>2019-01-12T12:05:42.000Z</time>
      </trkpt>
      <trkpt lat="43.4371" lon="6.84409">
        <ele>60</ele>
        <time>2019-01-12T12:05:40.000Z</time>
      </trkpt>
      <trkpt lat="43.43701" lon="6.84412">
        <ele>60.400001525879</ele>
        <time>2019-01-12T12:05:38.000Z</time>
      </trkpt>
      <trkpt lat="43.43693" lon="6.84415">
        <ele>61</ele>
        <time>2019-01-12T12:05:36.000Z</time>
      </trkpt>
      <trkpt lat="43.43679" lon="6.84422">
        <ele>61.400001525879</ele>
        <time>2019-01-12T12:05:32.000Z</time>
      </trkpt>
      <trkpt lat="43.43666" lon="6.84428">
        <ele>61.400001525879</ele>
        <time>2019-01-12T12:05:28.000Z</time>
      </trkpt>
      <trkpt lat="43.43662" lon="6.84429">
        <ele>61.599998474121</ele>
        <time>2019-01-12T12:05:27.000Z</time>
      </trkpt>
      <trkpt lat="43.4366" lon="6.84429">
        <ele>61.799999237061</ele>
        <time>2019-01-12T12:05:26.000Z</time>
      </trkpt>
      <trkpt lat="43.43653" lon="6.84426">
        <ele>62.400001525879</ele>
        <time>2019-01-12T12:05:24.000Z</time>
      </trkpt>
      <trkpt lat="43.4365" lon="6.8442">
        <ele>62.400001525879</ele>
        <time>2019-01-12T12:05:23.000Z</time>
      </trkpt>
      <trkpt lat="43.43647" lon="6.84409">
        <ele>62.799999237061</ele>
        <time>2019-01-12T12:05:21.000Z</time>
      </trkpt>
      <trkpt lat="43.43644" lon="6.84405">
        <ele>63</ele>
        <time>2019-01-12T12:05:20.000Z</time>
      </trkpt>
      <trkpt lat="43.43644" lon="6.8439">
        <ele>63.400001525879</ele>
        <time>2019-01-12T12:05:17.000Z</time>
      </trkpt>
      <trkpt lat="43.4365" lon="6.84381">
        <ele>63.799999237061</ele>
        <time>2019-01-12T12:05:15.000Z</time>
      </trkpt>
      <trkpt lat="43.43653" lon="6.8437">
        <ele>64.199996948242</ele>
        <time>2019-01-12T12:05:13.000Z</time>
      </trkpt>
      <trkpt lat="43.43656" lon="6.84365">
        <ele>64.599998474121</ele>
        <time>2019-01-12T12:05:12.000Z</time>
      </trkpt>
      <trkpt lat="43.43665" lon="6.84352">
        <ele>65</ele>
        <time>2019-01-12T12:05:09.000Z</time>
      </trkpt>
      <trkpt lat="43.43668" lon="6.84347">
        <ele>65.199996948242</ele>
        <time>2019-01-12T12:05:08.000Z</time>
      </trkpt>
      <trkpt lat="43.43673" lon="6.84338">
        <ele>66</ele>
        <time>2019-01-12T12:05:06.000Z</time>
      </trkpt>
      <trkpt lat="43.43674" lon="6.84333">
        <ele>66.199996948242</ele>
        <time>2019-01-12T12:05:05.000Z</time>
      </trkpt>
      <trkpt lat="43.43675" lon="6.84327">
        <ele>66.400001525879</ele>
        <time>2019-01-12T12:05:04.000Z</time>
      </trkpt>
      <trkpt lat="43.4368" lon="6.84309">
        <ele>66.599998474121</ele>
        <time>2019-01-12T12:05:00.000Z</time>
      </trkpt>
      <trkpt lat="43.43679" lon="6.84296">
        <ele>67.199996948242</ele>
        <time>2019-01-12T12:04:57.000Z</time>
      </trkpt>
      <trkpt lat="43.43678" lon="6.84292">
        <ele>67.199996948242</ele>
        <time>2019-01-12T12:04:55.000Z</time>
      </trkpt>
      <trkpt lat="43.43677" lon="6.84292">
        <ele>67.400001525879</ele>
        <time>2019-01-12T12:04:54.000Z</time>
      </trkpt>
      <trkpt lat="43.43677" lon="6.843">
        <ele>68.400001525879</ele>
        <time>2019-01-12T12:04:51.000Z</time>
      </trkpt>
      <trkpt lat="43.43676" lon="6.84311">
        <ele>69.400001525879</ele>
        <time>2019-01-12T12:04:49.000Z</time>
      </trkpt>
      <trkpt lat="43.43674" lon="6.84316">
        <ele>70</ele>
        <time>2019-01-12T12:04:48.000Z</time>
      </trkpt>
      <trkpt lat="43.43662" lon="6.84337">
        <ele>71.199996948242</ele>
        <time>2019-01-12T12:04:45.000Z</time>
      </trkpt>
      <trkpt lat="43.43647" lon="6.84354">
        <ele>72.599998474121</ele>
        <time>2019-01-12T12:04:42.000Z</time>
      </trkpt>
      <trkpt lat="43.43639" lon="6.84363">
        <ele>73</ele>
        <time>2019-01-12T12:04:40.000Z</time>
      </trkpt>
      <trkpt lat="43.43631" lon="6.84372">
        <ele>73.199996948242</ele>
        <time>2019-01-12T12:04:38.000Z</time>
      </trkpt>
      <trkpt lat="43.43627" lon="6.84377">
        <ele>73.599998474121</ele>
        <time>2019-01-12T12:04:37.000Z</time>
      </trkpt>
      <trkpt lat="43.43619" lon="6.8439">
        <ele>74.400001525879</ele>
        <time>2019-01-12T12:04:34.000Z</time>
      </trkpt>
      <trkpt lat="43.43616" lon="6.84416">
        <ele>74.800003051758</ele>
        <time>2019-01-12T12:04:29.000Z</time>
      </trkpt>
      <trkpt lat="43.43616" lon="6.84421">
        <ele>75.199996948242</ele>
        <time>2019-01-12T12:04:28.000Z</time>
      </trkpt>
      <trkpt lat="43.43615" lon="6.84426">
        <ele>75.800003051758</ele>
        <time>2019-01-12T12:04:27.000Z</time>
      </trkpt>
      <trkpt lat="43.43613" lon="6.84439">
        <ele>76.199996948242</ele>
        <time>2019-01-12T12:04:24.000Z</time>
      </trkpt>
      <trkpt lat="43.43611" lon="6.84442">
        <ele>76.400001525879</ele>
        <time>2019-01-12T12:04:23.000Z</time>
      </trkpt>
      <trkpt lat="43.43608" lon="6.84451">
        <ele>76.199996948242</ele>
        <time>2019-01-12T12:04:19.000Z</time>
      </trkpt>
      <trkpt lat="43.43607" lon="6.84453">
        <ele>76.800003051758</ele>
        <time>2019-01-12T12:04:14.000Z</time>
      </trkpt>
      <trkpt lat="43.43604" lon="6.84458">
        <ele>77</ele>
        <time>2019-01-12T12:04:09.000Z</time>
      </trkpt>
      <trkpt lat="43.43601" lon="6.84461">
        <ele>78</ele>
        <time>2019-01-12T12:04:06.000Z</time>
      </trkpt>
      <trkpt lat="43.43597" lon="6.84466">
        <ele>78</ele>
        <time>2019-01-12T12:04:04.000Z</time>
      </trkpt>
      <trkpt lat="43.43592" lon="6.84468">
        <ele>78.400001525879</ele>
        <time>2019-01-12T12:04:02.000Z</time>
      </trkpt>
      <trkpt lat="43.43585" lon="6.84469">
        <ele>79.599998474121</ele>
        <time>2019-01-12T12:04:00.000Z</time>
      </trkpt>
      <trkpt lat="43.43569" lon="6.84471">
        <ele>79.800003051758</ele>
        <time>2019-01-12T12:03:56.000Z</time>
      </trkpt>
      <trkpt lat="43.43566" lon="6.8447">
        <ele>79.800003051758</ele>
        <time>2019-01-12T12:03:55.000Z</time>
      </trkpt>
      <trkpt lat="43.4355" lon="6.8446">
        <ele>80.800003051758</ele>
        <time>2019-01-12T12:03:50.000Z</time>
      </trkpt>
      <trkpt lat="43.43538" lon="6.84446">
        <ele>82</ele>
        <time>2019-01-12T12:03:45.000Z</time>
      </trkpt>
      <trkpt lat="43.43536" lon="6.84443">
        <ele>82.199996948242</ele>
        <time>2019-01-12T12:03:44.000Z</time>
      </trkpt>
      <trkpt lat="43.43529" lon="6.84434">
        <ele>83</ele>
        <time>2019-01-12T12:03:41.000Z</time>
      </trkpt>
      <trkpt lat="43.43523" lon="6.84426">
        <ele>84</ele>
        <time>2019-01-12T12:03:38.000Z</time>
      </trkpt>
      <trkpt lat="43.43518" lon="6.84421">
        <ele>84.599998474121</ele>
        <time>2019-01-12T12:03:36.000Z</time>
      </trkpt>
      <trkpt lat="43.43503" lon="6.84404">
        <ele>85</ele>
        <time>2019-01-12T12:03:30.000Z</time>
      </trkpt>
      <trkpt lat="43.43498" lon="6.84399">
        <ele>85.400001525879</ele>
        <time>2019-01-12T12:03:28.000Z</time>
      </trkpt>
      <trkpt lat="43.43489" lon="6.84388">
        <ele>86.199996948242</ele>
        <time>2019-01-12T12:03:24.000Z</time>
      </trkpt>
      <trkpt lat="43.43487" lon="6.84384">
        <ele>86.599998474121</ele>
        <time>2019-01-12T12:03:22.000Z</time>
      </trkpt>
      <trkpt lat="43.43484" lon="6.8438">
        <ele>87.400001525879</ele>
        <time>2019-01-12T12:03:20.000Z</time>
      </trkpt>
      <trkpt lat="43.43482" lon="6.84379">
        <ele>87.800003051758</ele>
        <time>2019-01-12T12:03:19.000Z</time>
      </trkpt>
      <trkpt lat="43.43476" lon="6.84388">
        <ele>88.400001525879</ele>
        <time>2019-01-12T12:03:17.000Z</time>
      </trkpt>
      <trkpt lat="43.43471" lon="6.84411">
        <ele>89</ele>
        <time>2019-01-12T12:03:13.000Z</time>
      </trkpt>
      <trkpt lat="43.43469" lon="6.84416">
        <ele>88.800003051758</ele>
        <time>2019-01-12T12:03:12.000Z</time>
      </trkpt>
      <trkpt lat="43.43466" lon="6.84427">
        <ele>89</ele>
        <time>2019-01-12T12:03:10.000Z</time>
      </trkpt>
      <trkpt lat="43.43464" lon="6.84445">
        <ele>90.400001525879</ele>
        <time>2019-01-12T12:03:07.000Z</time>
      </trkpt>
      <trkpt lat="43.43463" lon="6.8445">
        <ele>90.400001525879</ele>
        <time>2019-01-12T12:03:06.000Z</time>
      </trkpt>
      <trkpt lat="43.43457" lon="6.84471">
        <ele>91</ele>
        <time>2019-01-12T12:03:02.000Z</time>
      </trkpt>
      <trkpt lat="43.43455" lon="6.84475">
        <ele>91.599998474121</ele>
        <time>2019-01-12T12:03:01.000Z</time>
      </trkpt>
      <trkpt lat="43.43445" lon="6.8449">
        <ele>92.400001525879</ele>
        <time>2019-01-12T12:02:57.000Z</time>
      </trkpt>
      <trkpt lat="43.43443" lon="6.84493">
        <ele>92.800003051758</ele>
        <time>2019-01-12T12:02:56.000Z</time>
      </trkpt>
      <trkpt lat="43.43432" lon="6.84496">
        <ele>93.599998474121</ele>
        <time>2019-01-12T12:02:53.000Z</time>
      </trkpt>
      <trkpt lat="43.43417" lon="6.84492">
        <ele>94.400001525879</ele>
        <time>2019-01-12T12:02:49.000Z</time>
      </trkpt>
      <trkpt lat="43.43413" lon="6.84491">
        <ele>94.800003051758</ele>
        <time>2019-01-12T12:02:48.000Z</time>
      </trkpt>
      <trkpt lat="43.43403" lon="6.84486">
        <ele>95.599998474121</ele>
        <time>2019-01-12T12:02:45.000Z</time>
      </trkpt>
      <trkpt lat="43.43393" lon="6.84481">
        <ele>96</ele>
        <time>2019-01-12T12:02:42.000Z</time>
      </trkpt>
      <trkpt lat="43.43384" lon="6.84476">
        <ele>96.599998474121</ele>
        <time>2019-01-12T12:02:39.000Z</time>
      </trkpt>
      <trkpt lat="43.43377" lon="6.84469">
        <ele>97.599998474121</ele>
        <time>2019-01-12T12:02:36.000Z</time>
      </trkpt>
      <trkpt lat="43.43367" lon="6.84461">
        <ele>97.800003051758</ele>
        <time>2019-01-12T12:02:32.000Z</time>
      </trkpt>
      <trkpt lat="43.43363" lon="6.84458">
        <ele>98.400001525879</ele>
        <time>2019-01-12T12:02:30.000Z</time>
      </trkpt>
      <trkpt lat="43.43358" lon="6.84449">
        <ele>98.800003051758</ele>
        <time>2019-01-12T12:02:27.000Z</time>
      </trkpt>
      <trkpt lat="43.43356" lon="6.84446">
        <ele>98.800003051758</ele>
        <time>2019-01-12T12:02:26.000Z</time>
      </trkpt>
      <trkpt lat="43.43352" lon="6.84439">
        <ele>99</ele>
        <time>2019-01-12T12:02:24.000Z</time>
      </trkpt>
      <trkpt lat="43.43345" lon="6.8443">
        <ele>99.800003051758</ele>
        <time>2019-01-12T12:02:19.000Z</time>
      </trkpt>
      <trkpt lat="43.43344" lon="6.84428">
        <ele>100.19999694824</ele>
        <time>2019-01-12T12:02:18.000Z</time>
      </trkpt>
      <trkpt lat="43.43341" lon="6.84433">
        <ele>100.19999694824</ele>
        <time>2019-01-12T12:02:16.000Z</time>
      </trkpt>
      <trkpt lat="43.43332" lon="6.84459">
        <ele>101</ele>
        <time>2019-01-12T12:02:11.000Z</time>
      </trkpt>
      <trkpt lat="43.43328" lon="6.84471">
        <ele>101.80000305176</ele>
        <time>2019-01-12T12:02:09.000Z</time>
      </trkpt>
      <trkpt lat="43.43326" lon="6.84478">
        <ele>102.40000152588</ele>
        <time>2019-01-12T12:02:08.000Z</time>
      </trkpt>
      <trkpt lat="43.43316" lon="6.84505">
        <ele>103.40000152588</ele>
        <time>2019-01-12T12:02:03.000Z</time>
      </trkpt>
      <trkpt lat="43.4331" lon="6.84523">
        <ele>104.59999847412</ele>
        <time>2019-01-12T12:01:59.000Z</time>
      </trkpt>
      <trkpt lat="43.43297" lon="6.84531">
        <ele>104.80000305176</ele>
        <time>2019-01-12T12:01:54.000Z</time>
      </trkpt>
      <trkpt lat="43.43291" lon="6.8453">
        <ele>105.19999694824</ele>
        <time>2019-01-12T12:01:50.000Z</time>
      </trkpt>
      <trkpt lat="43.43291" lon="6.84529">
        <ele>105.40000152588</ele>
        <time>2019-01-12T12:01:49.000Z</time>
      </trkpt>
      <trkpt lat="43.43291" lon="6.84525">
        <ele>105</ele>
        <time>2019-01-12T12:01:28.000Z</time>
      </trkpt>
      <trkpt lat="43.43292" lon="6.84524">
        <ele>105.19999694824</ele>
        <time>2019-01-12T12:01:19.000Z</time>
      </trkpt>
      <trkpt lat="43.43291" lon="6.84523">
        <ele>105</ele>
        <time>2019-01-12T12:00:56.000Z</time>
      </trkpt>
      <trkpt lat="43.43291" lon="6.84523">
        <ele>104.80000305176</ele>
        <time>2019-01-12T12:00:29.000Z</time>
      </trkpt>
      <trkpt lat="43.43291" lon="6.84523">
        <ele>104.59999847412</ele>
        <time>2019-01-12T12:00:00.000Z</time>
      </trkpt>
      <trkpt lat="43.43291" lon="6.84522">
        <ele>104.80000305176</ele>
        <time>2019-01-12T11:59:31.000Z</time>
      </trkpt>
      <trkpt lat="43.43292" lon="6.84522">
        <ele>104.59999847412</ele>
        <time>2019-01-12T11:59:14.000Z</time>
      </trkpt>
      <trkpt lat="43.43292" lon="6.84522">
        <ele>104.59999847412</ele>
        <time>2019-01-12T11:58:49.000Z</time>
      </trkpt>
      <trkpt lat="43.43292" lon="6.84523">
        <ele>104.59999847412</ele>
        <time>2019-01-12T11:58:16.000Z</time>
      </trkpt>
      <trkpt lat="43.43292" lon="6.84523">
        <ele>104.59999847412</ele>
        <time>2019-01-12T11:58:15.000Z</time>
      </trkpt>
      <trkpt lat="43.43292" lon="6.84523">
        <ele>105.19999694824</ele>
        <time>2019-01-12T11:57:42.000Z</time>
      </trkpt>
      <trkpt lat="43.43291" lon="6.84524">
        <ele>105.19999694824</ele>
        <time>2019-01-12T11:57:30.000Z</time>
      </trkpt>
      <trkpt lat="43.43291" lon="6.84524">
        <ele>105.59999847412</ele>
        <time>2019-01-12T11:57:14.000Z</time>
      </trkpt>
      <trkpt lat="43.43291" lon="6.84524">
        <ele>105.59999847412</ele>
        <time>2019-01-12T11:57:13.000Z</time>
      </trkpt>
      <trkpt lat="43.43291" lon="6.84524">
        <ele>105.40000152588</ele>
        <time>2019-01-12T11:57:03.000Z</time>
      </trkpt>
      <trkpt lat="43.43291" lon="6.84524">
        <ele>105.19999694824</ele>
        <time>2019-01-12T11:56:54.000Z</time>
      </trkpt>
      <trkpt lat="43.43291" lon="6.84525">
        <ele>104.59999847412</ele>
        <time>2019-01-12T11:56:43.000Z</time>
      </trkpt>
      <trkpt lat="43.43291" lon="6.84524">
        <ele>104.59999847412</ele>
        <time>2019-01-12T11:56:41.000Z</time>
      </trkpt>
      <trkpt lat="43.43288" lon="6.84525">
        <ele>104.80000305176</ele>
        <time>2019-01-12T11:56:38.000Z</time>
      </trkpt>
      <trkpt lat="43.4328" lon="6.84526">
        <ele>104.59999847412</ele>
        <time>2019-01-12T11:56:31.000Z</time>
      </trkpt>
      <trkpt lat="43.43276" lon="6.84525">
        <ele>104.40000152588</ele>
        <time>2019-01-12T11:56:29.000Z</time>
      </trkpt>
      <trkpt lat="43.43264" lon="6.84521">
        <ele>103.40000152588</ele>
        <time>2019-01-12T11:56:22.000Z</time>
      </trkpt>
      <trkpt lat="43.43263" lon="6.84521">
        <ele>103.59999847412</ele>
        <time>2019-01-12T11:56:21.000Z</time>
      </trkpt>
      <trkpt lat="43.43253" lon="6.84521">
        <ele>102.40000152588</ele>
        <time>2019-01-12T11:56:16.000Z</time>
      </trkpt>
      <trkpt lat="43.43243" lon="6.84523">
        <ele>102.40000152588</ele>
        <time>2019-01-12T11:56:11.000Z</time>
      </trkpt>
      <trkpt lat="43.4324" lon="6.84524">
        <ele>102</ele>
        <time>2019-01-12T11:56:09.000Z</time>
      </trkpt>
      <trkpt lat="43.43233" lon="6.84528">
        <ele>101.19999694824</ele>
        <time>2019-01-12T11:56:04.000Z</time>
      </trkpt>
      <trkpt lat="43.43227" lon="6.84531">
        <ele>100.40000152588</ele>
        <time>2019-01-12T11:56:00.000Z</time>
      </trkpt>
      <trkpt lat="43.43222" lon="6.84534">
        <ele>100</ele>
        <time>2019-01-12T11:55:57.000Z</time>
      </trkpt>
      <trkpt lat="43.43217" lon="6.84538">
        <ele>99.199996948242</ele>
        <time>2019-01-12T11:55:53.000Z</time>
      </trkpt>
      <trkpt lat="43.43215" lon="6.8454">
        <ele>98.800003051758</ele>
        <time>2019-01-12T11:55:51.000Z</time>
      </trkpt>
      <trkpt lat="43.43208" lon="6.84543">
        <ele>98.199996948242</ele>
        <time>2019-01-12T11:55:47.000Z</time>
      </trkpt>
      <trkpt lat="43.43202" lon="6.84544">
        <ele>97.800003051758</ele>
        <time>2019-01-12T11:55:43.000Z</time>
      </trkpt>
      <trkpt lat="43.43199" lon="6.84545">
        <ele>97.400001525879</ele>
        <time>2019-01-12T11:55:41.000Z</time>
      </trkpt>
      <trkpt lat="43.43194" lon="6.84547">
        <ele>96.599998474121</ele>
        <time>2019-01-12T11:55:37.000Z</time>
      </trkpt>
      <trkpt lat="43.43191" lon="6.84549">
        <ele>96.400001525879</ele>
        <time>2019-01-12T11:55:35.000Z</time>
      </trkpt>
      <trkpt lat="43.43184" lon="6.84553">
        <ele>95.400001525879</ele>
        <time>2019-01-12T11:55:30.000Z</time>
      </trkpt>
      <trkpt lat="43.43183" lon="6.84554">
        <ele>95.199996948242</ele>
        <time>2019-01-12T11:55:29.000Z</time>
      </trkpt>
      <trkpt lat="43.43175" lon="6.8456">
        <ele>94.599998474121</ele>
        <time>2019-01-12T11:55:23.000Z</time>
      </trkpt>
      <trkpt lat="43.43173" lon="6.84562">
        <ele>94.199996948242</ele>
        <time>2019-01-12T11:55:22.000Z</time>
      </trkpt>
      <trkpt lat="43.43165" lon="6.84569">
        <ele>93.199996948242</ele>
        <time>2019-01-12T11:55:16.000Z</time>
      </trkpt>
      <trkpt lat="43.43157" lon="6.84575">
        <ele>92</ele>
        <time>2019-01-12T11:55:11.000Z</time>
      </trkpt>
      <trkpt lat="43.43154" lon="6.84578">
        <ele>91.800003051758</ele>
        <time>2019-01-12T11:55:09.000Z</time>
      </trkpt>
      <trkpt lat="43.43148" lon="6.84584">
        <ele>91</ele>
        <time>2019-01-12T11:55:04.000Z</time>
      </trkpt>
      <trkpt lat="43.43145" lon="6.84589">
        <ele>90.599998474121</ele>
        <time>2019-01-12T11:55:01.000Z</time>
      </trkpt>
      <trkpt lat="43.43142" lon="6.84593">
        <ele>90</ele>
        <time>2019-01-12T11:54:58.000Z</time>
      </trkpt>
      <trkpt lat="43.43139" lon="6.84601">
        <ele>89.199996948242</ele>
        <time>2019-01-12T11:54:54.000Z</time>
      </trkpt>
      <trkpt lat="43.43137" lon="6.84605">
        <ele>88.800003051758</ele>
        <time>2019-01-12T11:54:52.000Z</time>
      </trkpt>
      <trkpt lat="43.43131" lon="6.84609">
        <ele>87.800003051758</ele>
        <time>2019-01-12T11:54:48.000Z</time>
      </trkpt>
      <trkpt lat="43.4313" lon="6.8461">
        <ele>87.599998474121</ele>
        <time>2019-01-12T11:54:47.000Z</time>
      </trkpt>
      <trkpt lat="43.43119" lon="6.84614">
        <ele>87</ele>
        <time>2019-01-12T11:54:41.000Z</time>
      </trkpt>
      <trkpt lat="43.43114" lon="6.84616">
        <ele>86.400001525879</ele>
        <time>2019-01-12T11:54:38.000Z</time>
      </trkpt>
      <trkpt lat="43.43106" lon="6.84617">
        <ele>85.800003051758</ele>
        <time>2019-01-12T11:54:34.000Z</time>
      </trkpt>
      <trkpt lat="43.431" lon="6.84619">
        <ele>85.400001525879</ele>
        <time>2019-01-12T11:54:30.000Z</time>
      </trkpt>
      <trkpt lat="43.43093" lon="6.8462">
        <ele>84.599998474121</ele>
        <time>2019-01-12T11:54:26.000Z</time>
      </trkpt>
      <trkpt lat="43.43085" lon="6.84619">
        <ele>84</ele>
        <time>2019-01-12T11:54:21.000Z</time>
      </trkpt>
      <trkpt lat="43.43084" lon="6.84618">
        <ele>83.800003051758</ele>
        <time>2019-01-12T11:54:20.000Z</time>
      </trkpt>
      <trkpt lat="43.43081" lon="6.84615">
        <ele>83.199996948242</ele>
        <time>2019-01-12T11:54:18.000Z</time>
      </trkpt>
      <trkpt lat="43.4308" lon="6.84614">
        <ele>83</ele>
        <time>2019-01-12T11:54:17.000Z</time>
      </trkpt>
      <trkpt lat="43.43075" lon="6.84608">
        <ele>82.199996948242</ele>
        <time>2019-01-12T11:54:14.000Z</time>
      </trkpt>
      <trkpt lat="43.43074" lon="6.84599">
        <ele>81.800003051758</ele>
        <time>2019-01-12T11:54:11.000Z</time>
      </trkpt>
      <trkpt lat="43.43072" lon="6.8459">
        <ele>81.400001525879</ele>
        <time>2019-01-12T11:54:08.000Z</time>
      </trkpt>
      <trkpt lat="43.43069" lon="6.84581">
        <ele>80.800003051758</ele>
        <time>2019-01-12T11:54:05.000Z</time>
      </trkpt>
      <trkpt lat="43.43067" lon="6.84574">
        <ele>80</ele>
        <time>2019-01-12T11:54:02.000Z</time>
      </trkpt>
      <trkpt lat="43.4306" lon="6.84561">
        <ele>79.599998474121</ele>
        <time>2019-01-12T11:53:57.000Z</time>
      </trkpt>
      <trkpt lat="43.43057" lon="6.84556">
        <ele>79</ele>
        <time>2019-01-12T11:53:55.000Z</time>
      </trkpt>
      <trkpt lat="43.43048" lon="6.84538">
        <ele>78.400001525879</ele>
        <time>2019-01-12T11:53:49.000Z</time>
      </trkpt>
      <trkpt lat="43.43047" lon="6.84535">
        <ele>78.400001525879</ele>
        <time>2019-01-12T11:53:48.000Z</time>
      </trkpt>
      <trkpt lat="43.43041" lon="6.84511">
        <ele>77.599998474121</ele>
        <time>2019-01-12T11:53:41.000Z</time>
      </trkpt>
      <trkpt lat="43.43039" lon="6.84498">
        <ele>77.199996948242</ele>
        <time>2019-01-12T11:53:37.000Z</time>
      </trkpt>
      <trkpt lat="43.43036" lon="6.84484">
        <ele>76.800003051758</ele>
        <time>2019-01-12T11:53:33.000Z</time>
      </trkpt>
      <trkpt lat="43.43032" lon="6.84462">
        <ele>76.199996948242</ele>
        <time>2019-01-12T11:53:27.000Z</time>
      </trkpt>
      <trkpt lat="43.43031" lon="6.84454">
        <ele>75.599998474121</ele>
        <time>2019-01-12T11:53:25.000Z</time>
      </trkpt>
      <trkpt lat="43.43029" lon="6.84433">
        <ele>75</ele>
        <time>2019-01-12T11:53:19.000Z</time>
      </trkpt>
      <trkpt lat="43.43029" lon="6.84422">
        <ele>74.199996948242</ele>
        <time>2019-01-12T11:53:16.000Z</time>
      </trkpt>
      <trkpt lat="43.43028" lon="6.8441">
        <ele>73.800003051758</ele>
        <time>2019-01-12T11:53:13.000Z</time>
      </trkpt>
      <trkpt lat="43.43026" lon="6.84391">
        <ele>72.800003051758</ele>
        <time>2019-01-12T11:53:08.000Z</time>
      </trkpt>
      <trkpt lat="43.43026" lon="6.84382">
        <ele>72.800003051758</ele>
        <time>2019-01-12T11:53:06.000Z</time>
      </trkpt>
      <trkpt lat="43.43029" lon="6.84372">
        <ele>72.400001525879</ele>
        <time>2019-01-12T11:53:03.000Z</time>
      </trkpt>
      <trkpt lat="43.43041" lon="6.84361">
        <ele>71.800003051758</ele>
        <time>2019-01-12T11:52:57.000Z</time>
      </trkpt>
      <trkpt lat="43.43045" lon="6.84357">
        <ele>71.599998474121</ele>
        <time>2019-01-12T11:52:55.000Z</time>
      </trkpt>
      <trkpt lat="43.43048" lon="6.84347">
        <ele>71.400001525879</ele>
        <time>2019-01-12T11:52:52.000Z</time>
      </trkpt>
      <trkpt lat="43.43043" lon="6.84327">
        <ele>71.199996948242</ele>
        <time>2019-01-12T11:52:45.000Z</time>
      </trkpt>
      <trkpt lat="43.43036" lon="6.84312">
        <ele>70.400001525879</ele>
        <time>2019-01-12T11:52:39.000Z</time>
      </trkpt>
      <trkpt lat="43.43032" lon="6.84292">
        <ele>70.599998474121</ele>
        <time>2019-01-12T11:52:34.000Z</time>
      </trkpt>
      <trkpt lat="43.43031" lon="6.8428">
        <ele>71.199996948242</ele>
        <time>2019-01-12T11:52:32.000Z</time>
      </trkpt>
      <trkpt lat="43.4303" lon="6.84267">
        <ele>72</ele>
        <time>2019-01-12T11:52:30.000Z</time>
      </trkpt>
      <trkpt lat="43.43029" lon="6.84261">
        <ele>72.199996948242</ele>
        <time>2019-01-12T11:52:29.000Z</time>
      </trkpt>
      <trkpt lat="43.43029" lon="6.84236">
        <ele>73.199996948242</ele>
        <time>2019-01-12T11:52:25.000Z</time>
      </trkpt>
      <trkpt lat="43.43028" lon="6.84222">
        <ele>73.199996948242</ele>
        <time>2019-01-12T11:52:21.000Z</time>
      </trkpt>
      <trkpt lat="43.43027" lon="6.84215">
        <ele>73</ele>
        <time>2019-01-12T11:52:18.000Z</time>
      </trkpt>
      <trkpt lat="43.43025" lon="6.84202">
        <ele>72.800003051758</ele>
        <time>2019-01-12T11:52:12.000Z</time>
      </trkpt>
      <trkpt lat="43.43019" lon="6.8419">
        <ele>72.199996948242</ele>
        <time>2019-01-12T11:52:06.000Z</time>
      </trkpt>
      <trkpt lat="43.43011" lon="6.84178">
        <ele>72.199996948242</ele>
        <time>2019-01-12T11:52:00.000Z</time>
      </trkpt>
      <trkpt lat="43.43007" lon="6.8417">
        <ele>72.199996948242</ele>
        <time>2019-01-12T11:51:54.000Z</time>
      </trkpt>
      <trkpt lat="43.43008" lon="6.84172">
        <ele>72</ele>
        <time>2019-01-12T11:51:42.000Z</time>
      </trkpt>
      <trkpt lat="43.4301" lon="6.84178">
        <ele>71.800003051758</ele>
        <time>2019-01-12T11:51:17.000Z</time>
      </trkpt>
      <trkpt lat="43.4301" lon="6.84181">
        <ele>72.199996948242</ele>
        <time>2019-01-12T11:51:03.000Z</time>
      </trkpt>
      <trkpt lat="43.4301" lon="6.84182">
        <ele>72</ele>
        <time>2019-01-12T11:51:00.000Z</time>
      </trkpt>
      <trkpt lat="43.4301" lon="6.84183">
        <ele>71.599998474121</ele>
        <time>2019-01-12T11:50:55.000Z</time>
      </trkpt>
      <trkpt lat="43.43008" lon="6.84184">
        <ele>71.199996948242</ele>
        <time>2019-01-12T11:50:52.000Z</time>
      </trkpt>
      <trkpt lat="43.43005" lon="6.84186">
        <ele>70.599998474121</ele>
        <time>2019-01-12T11:50:49.000Z</time>
      </trkpt>
      <trkpt lat="43.43003" lon="6.84188">
        <ele>70</ele>
        <time>2019-01-12T11:50:47.000Z</time>
      </trkpt>
      <trkpt lat="43.42997" lon="6.8419">
        <ele>69.199996948242</ele>
        <time>2019-01-12T11:50:43.000Z</time>
      </trkpt>
      <trkpt lat="43.42996" lon="6.84191">
        <ele>69</ele>
        <time>2019-01-12T11:50:42.000Z</time>
      </trkpt>
      <trkpt lat="43.42992" lon="6.84196">
        <ele>68.199996948242</ele>
        <time>2019-01-12T11:50:38.000Z</time>
      </trkpt>
      <trkpt lat="43.4299" lon="6.842">
        <ele>68</ele>
        <time>2019-01-12T11:50:36.000Z</time>
      </trkpt>
      <trkpt lat="43.42986" lon="6.84205">
        <ele>67.599998474121</ele>
        <time>2019-01-12T11:50:33.000Z</time>
      </trkpt>
      <trkpt lat="43.42985" lon="6.84206">
        <ele>67.199996948242</ele>
        <time>2019-01-12T11:50:32.000Z</time>
      </trkpt>
      <trkpt lat="43.42981" lon="6.84213">
        <ele>66.800003051758</ele>
        <time>2019-01-12T11:50:29.000Z</time>
      </trkpt>
      <trkpt lat="43.42979" lon="6.84218">
        <ele>66.400001525879</ele>
        <time>2019-01-12T11:50:27.000Z</time>
      </trkpt>
      <trkpt lat="43.42977" lon="6.8422">
        <ele>66.199996948242</ele>
        <time>2019-01-12T11:50:26.000Z</time>
      </trkpt>
      <trkpt lat="43.42973" lon="6.84224">
        <ele>65.800003051758</ele>
        <time>2019-01-12T11:50:24.000Z</time>
      </trkpt>
      <trkpt lat="43.42973" lon="6.84227">
        <ele>65.599998474121</ele>
        <time>2019-01-12T11:50:23.000Z</time>
      </trkpt>
      <trkpt lat="43.42964" lon="6.84242">
        <ele>64.599998474121</ele>
        <time>2019-01-12T11:50:17.000Z</time>
      </trkpt>
      <trkpt lat="43.42957" lon="6.84255">
        <ele>65.199996948242</ele>
        <time>2019-01-12T11:50:13.000Z</time>
      </trkpt>
      <trkpt lat="43.42954" lon="6.84259">
        <ele>65.199996948242</ele>
        <time>2019-01-12T11:50:12.000Z</time>
      </trkpt>
      <trkpt lat="43.42951" lon="6.84276">
        <ele>65.400001525879</ele>
        <time>2019-01-12T11:50:08.000Z</time>
      </trkpt>
      <trkpt lat="43.42957" lon="6.84305">
        <ele>65.400001525879</ele>
        <time>2019-01-12T11:50:01.000Z</time>
      </trkpt>
      <trkpt lat="43.42958" lon="6.84328">
        <ele>65</ele>
        <time>2019-01-12T11:49:55.000Z</time>
      </trkpt>
      <trkpt lat="43.42958" lon="6.84345">
        <ele>64.800003051758</ele>
        <time>2019-01-12T11:49:50.000Z</time>
      </trkpt>
      <trkpt lat="43.42959" lon="6.84351">
        <ele>64.199996948242</ele>
        <time>2019-01-12T11:49:48.000Z</time>
      </trkpt>
      <trkpt lat="43.42967" lon="6.84368">
        <ele>63.799999237061</ele>
        <time>2019-01-12T11:49:42.000Z</time>
      </trkpt>
      <trkpt lat="43.42974" lon="6.84383">
        <ele>63.400001525879</ele>
        <time>2019-01-12T11:49:37.000Z</time>
      </trkpt>
      <trkpt lat="43.42976" lon="6.84389">
        <ele>63.200000762939</ele>
        <time>2019-01-12T11:49:35.000Z</time>
      </trkpt>
      <trkpt lat="43.4298" lon="6.84402">
        <ele>62.599998474121</ele>
        <time>2019-01-12T11:49:31.000Z</time>
      </trkpt>
      <trkpt lat="43.42983" lon="6.84409">
        <ele>62.599998474121</ele>
        <time>2019-01-12T11:49:29.000Z</time>
      </trkpt>
      <trkpt lat="43.42986" lon="6.84418">
        <ele>62.400001525879</ele>
        <time>2019-01-12T11:49:26.000Z</time>
      </trkpt>
      <trkpt lat="43.4299" lon="6.84441">
        <ele>61.200000762939</ele>
        <time>2019-01-12T11:49:19.000Z</time>
      </trkpt>
      <trkpt lat="43.42991" lon="6.84445">
        <ele>61.200000762939</ele>
        <time>2019-01-12T11:49:18.000Z</time>
      </trkpt>
      <trkpt lat="43.42993" lon="6.84451">
        <ele>61</ele>
        <time>2019-01-12T11:49:16.000Z</time>
      </trkpt>
      <trkpt lat="43.42996" lon="6.84458">
        <ele>60.400001525879</ele>
        <time>2019-01-12T11:49:14.000Z</time>
      </trkpt>
      <trkpt lat="43.42997" lon="6.84472">
        <ele>60</ele>
        <time>2019-01-12T11:49:10.000Z</time>
      </trkpt>
      <trkpt lat="43.42997" lon="6.84476">
        <ele>59.799999237061</ele>
        <time>2019-01-12T11:49:09.000Z</time>
      </trkpt>
      <trkpt lat="43.42993" lon="6.84486">
        <ele>60</ele>
        <time>2019-01-12T11:49:06.000Z</time>
      </trkpt>
      <trkpt lat="43.42989" lon="6.84497">
        <ele>59.599998474121</ele>
        <time>2019-01-12T11:49:03.000Z</time>
      </trkpt>
      <trkpt lat="43.42985" lon="6.8451">
        <ele>58.799999237061</ele>
        <time>2019-01-12T11:48:59.000Z</time>
      </trkpt>
      <trkpt lat="43.42982" lon="6.84517">
        <ele>59</ele>
        <time>2019-01-12T11:48:57.000Z</time>
      </trkpt>
      <trkpt lat="43.42976" lon="6.84532">
        <ele>58.599998474121</ele>
        <time>2019-01-12T11:48:53.000Z</time>
      </trkpt>
      <trkpt lat="43.42974" lon="6.84551">
        <ele>58.400001525879</ele>
        <time>2019-01-12T11:48:48.000Z</time>
      </trkpt>
      <trkpt lat="43.42978" lon="6.8457">
        <ele>58</ele>
        <time>2019-01-12T11:48:43.000Z</time>
      </trkpt>
      <trkpt lat="43.42979" lon="6.84573">
        <ele>57.799999237061</ele>
        <time>2019-01-12T11:48:42.000Z</time>
      </trkpt>
      <trkpt lat="43.4298" lon="6.84588">
        <ele>57</ele>
        <time>2019-01-12T11:48:38.000Z</time>
      </trkpt>
      <trkpt lat="43.42981" lon="6.8461">
        <ele>55.799999237061</ele>
        <time>2019-01-12T11:48:32.000Z</time>
      </trkpt>
      <trkpt lat="43.42981" lon="6.84614">
        <ele>55.799999237061</ele>
        <time>2019-01-12T11:48:31.000Z</time>
      </trkpt>
      <trkpt lat="43.42979" lon="6.84629">
        <ele>55.400001525879</ele>
        <time>2019-01-12T11:48:27.000Z</time>
      </trkpt>
      <trkpt lat="43.42979" lon="6.84645">
        <ele>54.799999237061</ele>
        <time>2019-01-12T11:48:23.000Z</time>
      </trkpt>
      <trkpt lat="43.42977" lon="6.84656">
        <ele>54.200000762939</ele>
        <time>2019-01-12T11:48:20.000Z</time>
      </trkpt>
      <trkpt lat="43.42975" lon="6.84666">
        <ele>53.599998474121</ele>
        <time>2019-01-12T11:48:17.000Z</time>
      </trkpt>
      <trkpt lat="43.42973" lon="6.84676">
        <ele>53.200000762939</ele>
        <time>2019-01-12T11:48:14.000Z</time>
      </trkpt>
      <trkpt lat="43.42969" lon="6.84694">
        <ele>52.599998474121</ele>
        <time>2019-01-12T11:48:09.000Z</time>
      </trkpt>
      <trkpt lat="43.4297" lon="6.84715">
        <ele>51.599998474121</ele>
        <time>2019-01-12T11:48:04.000Z</time>
      </trkpt>
      <trkpt lat="43.4297" lon="6.84719">
        <ele>51.200000762939</ele>
        <time>2019-01-12T11:48:03.000Z</time>
      </trkpt>
      <trkpt lat="43.42968" lon="6.84731">
        <ele>50.799999237061</ele>
        <time>2019-01-12T11:48:00.000Z</time>
      </trkpt>
      <trkpt lat="43.42961" lon="6.84756">
        <ele>51</ele>
        <time>2019-01-12T11:47:54.000Z</time>
      </trkpt>
      <trkpt lat="43.42955" lon="6.84766">
        <ele>50.200000762939</ele>
        <time>2019-01-12T11:47:51.000Z</time>
      </trkpt>
      <trkpt lat="43.42951" lon="6.84772">
        <ele>49.599998474121</ele>
        <time>2019-01-12T11:47:49.000Z</time>
      </trkpt>
      <trkpt lat="43.42943" lon="6.84797">
        <ele>49.200000762939</ele>
        <time>2019-01-12T11:47:43.000Z</time>
      </trkpt>
      <trkpt lat="43.42938" lon="6.8481">
        <ele>49</ele>
        <time>2019-01-12T11:47:40.000Z</time>
      </trkpt>
      <trkpt lat="43.42936" lon="6.84819">
        <ele>48.599998474121</ele>
        <time>2019-01-12T11:47:38.000Z</time>
      </trkpt>
      <trkpt lat="43.42929" lon="6.84844">
        <ele>48.400001525879</ele>
        <time>2019-01-12T11:47:32.000Z</time>
      </trkpt>
      <trkpt lat="43.42926" lon="6.84851">
        <ele>48</ele>
        <time>2019-01-12T11:47:30.000Z</time>
      </trkpt>
      <trkpt lat="43.42917" lon="6.84867">
        <ele>47.599998474121</ele>
        <time>2019-01-12T11:47:25.000Z</time>
      </trkpt>
      <trkpt lat="43.42907" lon="6.84891">
        <ele>47.200000762939</ele>
        <time>2019-01-12T11:47:19.000Z</time>
      </trkpt>
      <trkpt lat="43.42906" lon="6.84895">
        <ele>47</ele>
        <time>2019-01-12T11:47:18.000Z</time>
      </trkpt>
      <trkpt lat="43.42903" lon="6.84915">
        <ele>46.200000762939</ele>
        <time>2019-01-12T11:47:13.000Z</time>
      </trkpt>
      <trkpt lat="43.42901" lon="6.84935">
        <ele>46.400001525879</ele>
        <time>2019-01-12T11:47:08.000Z</time>
      </trkpt>
      <trkpt lat="43.42899" lon="6.84954">
        <ele>46.200000762939</ele>
        <time>2019-01-12T11:47:02.000Z</time>
      </trkpt>
      <trkpt lat="43.42899" lon="6.8496">
        <ele>46</ele>
        <time>2019-01-12T11:47:00.000Z</time>
      </trkpt>
      <trkpt lat="43.42899" lon="6.84975">
        <ele>45.599998474121</ele>
        <time>2019-01-12T11:46:56.000Z</time>
      </trkpt>
      <trkpt lat="43.42898" lon="6.84996">
        <ele>45.200000762939</ele>
        <time>2019-01-12T11:46:50.000Z</time>
      </trkpt>
      <trkpt lat="43.42898" lon="6.84999">
        <ele>45</ele>
        <time>2019-01-12T11:46:49.000Z</time>
      </trkpt>
      <trkpt lat="43.42899" lon="6.85013">
        <ele>44.200000762939</ele>
        <time>2019-01-12T11:46:44.000Z</time>
      </trkpt>
      <trkpt lat="43.42902" lon="6.8503">
        <ele>43.799999237061</ele>
        <time>2019-01-12T11:46:38.000Z</time>
      </trkpt>
      <trkpt lat="43.42903" lon="6.85042">
        <ele>43.799999237061</ele>
        <time>2019-01-12T11:46:31.000Z</time>
      </trkpt>
      <trkpt lat="43.42903" lon="6.85045">
        <ele>44.200000762939</ele>
        <time>2019-01-12T11:46:25.000Z</time>
      </trkpt>
      <trkpt lat="43.429" lon="6.85045">
        <ele>43.799999237061</ele>
        <time>2019-01-12T11:46:22.000Z</time>
      </trkpt>
      <trkpt lat="43.42897" lon="6.85048">
        <ele>43.400001525879</ele>
        <time>2019-01-12T11:46:18.000Z</time>
      </trkpt>
      <trkpt lat="43.42895" lon="6.85051">
        <ele>43.400001525879</ele>
        <time>2019-01-12T11:46:16.000Z</time>
      </trkpt>
      <trkpt lat="43.42897" lon="6.8506">
        <ele>43.200000762939</ele>
        <time>2019-01-12T11:46:13.000Z</time>
      </trkpt>
      <trkpt lat="43.429" lon="6.85068">
        <ele>42.799999237061</ele>
        <time>2019-01-12T11:46:10.000Z</time>
      </trkpt>
      <trkpt lat="43.42903" lon="6.85074">
        <ele>42.200000762939</ele>
        <time>2019-01-12T11:46:07.000Z</time>
      </trkpt>
      <trkpt lat="43.42906" lon="6.85087">
        <ele>41.599998474121</ele>
        <time>2019-01-12T11:46:03.000Z</time>
      </trkpt>
      <trkpt lat="43.42906" lon="6.8509">
        <ele>41.400001525879</ele>
        <time>2019-01-12T11:46:02.000Z</time>
      </trkpt>
      <trkpt lat="43.42907" lon="6.85126">
        <ele>41</ele>
        <time>2019-01-12T11:45:54.000Z</time>
      </trkpt>
      <trkpt lat="43.42909" lon="6.85157">
        <ele>40.599998474121</ele>
        <time>2019-01-12T11:45:47.000Z</time>
      </trkpt>
      <trkpt lat="43.42909" lon="6.85161">
        <ele>40.400001525879</ele>
        <time>2019-01-12T11:45:46.000Z</time>
      </trkpt>
      <trkpt lat="43.4291" lon="6.852">
        <ele>39.200000762939</ele>
        <time>2019-01-12T11:45:37.000Z</time>
      </trkpt>
      <trkpt lat="43.4291" lon="6.85221">
        <ele>39.400001525879</ele>
        <time>2019-01-12T11:45:33.000Z</time>
      </trkpt>
      <trkpt lat="43.4291" lon="6.85226">
        <ele>39.400001525879</ele>
        <time>2019-01-12T11:45:32.000Z</time>
      </trkpt>
      <trkpt lat="43.42916" lon="6.85257">
        <ele>40.599998474121</ele>
        <time>2019-01-12T11:45:28.000Z</time>
      </trkpt>
      <trkpt lat="43.42919" lon="6.85264">
        <ele>41</ele>
        <time>2019-01-12T11:45:27.000Z</time>
      </trkpt>
      <trkpt lat="43.42931" lon="6.85283">
        <ele>41.799999237061</ele>
        <time>2019-01-12T11:45:24.000Z</time>
      </trkpt>
      <trkpt lat="43.42933" lon="6.8529">
        <ele>41.799999237061</ele>
        <time>2019-01-12T11:45:23.000Z</time>
      </trkpt>
      <trkpt lat="43.42935" lon="6.85296">
        <ele>42</ele>
        <time>2019-01-12T11:45:22.000Z</time>
      </trkpt>
      <trkpt lat="43.42934" lon="6.85308">
        <ele>42.400001525879</ele>
        <time>2019-01-12T11:45:20.000Z</time>
      </trkpt>
      <trkpt lat="43.42929" lon="6.85348">
        <ele>42.799999237061</ele>
        <time>2019-01-12T11:45:12.000Z</time>
      </trkpt>
      <trkpt lat="43.42928" lon="6.85381">
        <ele>43</ele>
        <time>2019-01-12T11:45:04.000Z</time>
      </trkpt>
      <trkpt lat="43.42928" lon="6.85385">
        <ele>43</ele>
        <time>2019-01-12T11:45:03.000Z</time>
      </trkpt>
      <trkpt lat="43.42927" lon="6.85413">
        <ele>42</ele>
        <time>2019-01-12T11:44:55.000Z</time>
      </trkpt>
      <trkpt lat="43.42926" lon="6.85416">
        <ele>41.799999237061</ele>
        <time>2019-01-12T11:44:54.000Z</time>
      </trkpt>
      <trkpt lat="43.42924" lon="6.85432">
        <ele>41</ele>
        <time>2019-01-12T11:44:49.000Z</time>
      </trkpt>
      <trkpt lat="43.42922" lon="6.85438">
        <ele>40.599998474121</ele>
        <time>2019-01-12T11:44:47.000Z</time>
      </trkpt>
      <trkpt lat="43.42916" lon="6.85449">
        <ele>39.799999237061</ele>
        <time>2019-01-12T11:44:43.000Z</time>
      </trkpt>
      <trkpt lat="43.42913" lon="6.85461">
        <ele>39</ele>
        <time>2019-01-12T11:44:39.000Z</time>
      </trkpt>
      <trkpt lat="43.42911" lon="6.85468">
        <ele>38.599998474121</ele>
        <time>2019-01-12T11:44:37.000Z</time>
      </trkpt>
      <trkpt lat="43.42903" lon="6.85486">
        <ele>37.799999237061</ele>
        <time>2019-01-12T11:44:31.000Z</time>
      </trkpt>
      <trkpt lat="43.42898" lon="6.85497">
        <ele>37.599998474121</ele>
        <time>2019-01-12T11:44:28.000Z</time>
      </trkpt>
      <trkpt lat="43.42886" lon="6.85514">
        <ele>37.400001525879</ele>
        <time>2019-01-12T11:44:22.000Z</time>
      </trkpt>
      <trkpt lat="43.42867" lon="6.85532">
        <ele>36.599998474121</ele>
        <time>2019-01-12T11:44:14.000Z</time>
      </trkpt>
      <trkpt lat="43.42865" lon="6.85533">
        <ele>36.400001525879</ele>
        <time>2019-01-12T11:44:13.000Z</time>
      </trkpt>
      <trkpt lat="43.4285" lon="6.85541">
        <ele>35.599998474121</ele>
        <time>2019-01-12T11:44:06.000Z</time>
      </trkpt>
      <trkpt lat="43.42845" lon="6.85542">
        <ele>35.200000762939</ele>
        <time>2019-01-12T11:44:04.000Z</time>
      </trkpt>
      <trkpt lat="43.42828" lon="6.85543">
        <ele>34.400001525879</ele>
        <time>2019-01-12T11:43:58.000Z</time>
      </trkpt>
      <trkpt lat="43.4282" lon="6.85543">
        <ele>34</ele>
        <time>2019-01-12T11:43:55.000Z</time>
      </trkpt>
      <trkpt lat="43.42799" lon="6.85538">
        <ele>33.400001525879</ele>
        <time>2019-01-12T11:43:47.000Z</time>
      </trkpt>
      <trkpt lat="43.42794" lon="6.85537">
        <ele>33.400001525879</ele>
        <time>2019-01-12T11:43:45.000Z</time>
      </trkpt>
      <trkpt lat="43.42781" lon="6.85533">
        <ele>32.599998474121</ele>
        <time>2019-01-12T11:43:39.000Z</time>
      </trkpt>
      <trkpt lat="43.42776" lon="6.85532">
        <ele>32.200000762939</ele>
        <time>2019-01-12T11:43:37.000Z</time>
      </trkpt>
      <trkpt lat="43.42761" lon="6.85531">
        <ele>31.799999237061</ele>
        <time>2019-01-12T11:43:31.000Z</time>
      </trkpt>
      <trkpt lat="43.4275" lon="6.85529">
        <ele>31.200000762939</ele>
        <time>2019-01-12T11:43:26.000Z</time>
      </trkpt>
      <trkpt lat="43.42742" lon="6.8553">
        <ele>31</ele>
        <time>2019-01-12T11:43:23.000Z</time>
      </trkpt>
      <trkpt lat="43.42726" lon="6.8554">
        <ele>30.39999961853</ele>
        <time>2019-01-12T11:43:15.000Z</time>
      </trkpt>
      <trkpt lat="43.42723" lon="6.85544">
        <ele>30.200000762939</ele>
        <time>2019-01-12T11:43:13.000Z</time>
      </trkpt>
      <trkpt lat="43.42713" lon="6.85561">
        <ele>29.39999961853</ele>
        <time>2019-01-12T11:43:05.000Z</time>
      </trkpt>
      <trkpt lat="43.42709" lon="6.8557">
        <ele>29</ele>
        <time>2019-01-12T11:43:01.000Z</time>
      </trkpt>
      <trkpt lat="43.42702" lon="6.85581">
        <ele>28.60000038147</ele>
        <time>2019-01-12T11:42:56.000Z</time>
      </trkpt>
      <trkpt lat="43.42695" lon="6.85592">
        <ele>28</ele>
        <time>2019-01-12T11:42:50.000Z</time>
      </trkpt>
      <trkpt lat="43.4269" lon="6.85599">
        <ele>27.39999961853</ele>
        <time>2019-01-12T11:42:46.000Z</time>
      </trkpt>
      <trkpt lat="43.42682" lon="6.85618">
        <ele>27</ele>
        <time>2019-01-12T11:42:37.000Z</time>
      </trkpt>
      <trkpt lat="43.42681" lon="6.85621">
        <ele>26.799999237061</ele>
        <time>2019-01-12T11:42:36.000Z</time>
      </trkpt>
      <trkpt lat="43.42676" lon="6.85633">
        <ele>25.799999237061</ele>
        <time>2019-01-12T11:42:30.000Z</time>
      </trkpt>
      <trkpt lat="43.42676" lon="6.85638">
        <ele>25.60000038147</ele>
        <time>2019-01-12T11:42:28.000Z</time>
      </trkpt>
      <trkpt lat="43.42673" lon="6.8565">
        <ele>24.60000038147</ele>
        <time>2019-01-12T11:42:22.000Z</time>
      </trkpt>
      <trkpt lat="43.42672" lon="6.85654">
        <ele>24.39999961853</ele>
        <time>2019-01-12T11:42:20.000Z</time>
      </trkpt>
      <trkpt lat="43.42666" lon="6.85669">
        <ele>23.60000038147</ele>
        <time>2019-01-12T11:42:12.000Z</time>
      </trkpt>
      <trkpt lat="43.42666" lon="6.85672">
        <ele>23.39999961853</ele>
        <time>2019-01-12T11:42:11.000Z</time>
      </trkpt>
      <trkpt lat="43.42659" lon="6.85683">
        <ele>22.39999961853</ele>
        <time>2019-01-12T11:42:04.000Z</time>
      </trkpt>
      <trkpt lat="43.42645" lon="6.85691">
        <ele>21.60000038147</ele>
        <time>2019-01-12T11:41:54.000Z</time>
      </trkpt>
      <trkpt lat="43.42643" lon="6.85692">
        <ele>21.39999961853</ele>
        <time>2019-01-12T11:41:52.000Z</time>
      </trkpt>
      <trkpt lat="43.42635" lon="6.85692">
        <ele>20.60000038147</ele>
        <time>2019-01-12T11:41:46.000Z</time>
      </trkpt>
      <trkpt lat="43.42633" lon="6.85692">
        <ele>20.200000762939</ele>
        <time>2019-01-12T11:41:45.000Z</time>
      </trkpt>
      <trkpt lat="43.4263" lon="6.85691">
        <ele>19.200000762939</ele>
        <time>2019-01-12T11:41:42.000Z</time>
      </trkpt>
      <trkpt lat="43.42629" lon="6.85691">
        <ele>18.799999237061</ele>
        <time>2019-01-12T11:41:41.000Z</time>
      </trkpt>
      <trkpt lat="43.42622" lon="6.85692">
        <ele>18</ele>
        <time>2019-01-12T11:41:36.000Z</time>
      </trkpt>
      <trkpt lat="43.42621" lon="6.85693">
        <ele>17.60000038147</ele>
        <time>2019-01-12T11:41:35.000Z</time>
      </trkpt>
      <trkpt lat="43.42619" lon="6.85695">
        <ele>17</ele>
        <time>2019-01-12T11:41:33.000Z</time>
      </trkpt>
      <trkpt lat="43.42617" lon="6.85698">
        <ele>16.39999961853</ele>
        <time>2019-01-12T11:41:31.000Z</time>
      </trkpt>
      <trkpt lat="43.42614" lon="6.85703">
        <ele>15.60000038147</ele>
        <time>2019-01-12T11:41:28.000Z</time>
      </trkpt>
      <trkpt lat="43.4261" lon="6.85706">
        <ele>14.800000190735</ele>
        <time>2019-01-12T11:41:25.000Z</time>
      </trkpt>
      <trkpt lat="43.4261" lon="6.85716">
        <ele>14</ele>
        <time>2019-01-12T11:41:20.000Z</time>
      </trkpt>
      <trkpt lat="43.42611" lon="6.85718">
        <ele>14</ele>
        <time>2019-01-12T11:41:19.000Z</time>
      </trkpt>
      <trkpt lat="43.42609" lon="6.85726">
        <ele>14.199999809265</ele>
        <time>2019-01-12T11:41:15.000Z</time>
      </trkpt>
      <trkpt lat="43.42605" lon="6.85728">
        <ele>14.199999809265</ele>
        <time>2019-01-12T11:41:13.000Z</time>
      </trkpt>
      <trkpt lat="43.42598" lon="6.85731">
        <ele>14</ele>
        <time>2019-01-12T11:41:09.000Z</time>
      </trkpt>
      <trkpt lat="43.42596" lon="6.85737">
        <ele>14</ele>
        <time>2019-01-12T11:41:05.000Z</time>
      </trkpt>
      <trkpt lat="43.42596" lon="6.85738">
        <ele>14</ele>
        <time>2019-01-12T11:41:04.000Z</time>
      </trkpt>
      <trkpt lat="43.42596" lon="6.85739">
        <ele>13.60000038147</ele>
        <time>2019-01-12T11:40:59.000Z</time>
      </trkpt>
      <trkpt lat="43.42597" lon="6.85741">
        <ele>13.800000190735</ele>
        <time>2019-01-12T11:40:52.000Z</time>
      </trkpt>
      <trkpt lat="43.42597" lon="6.85741">
        <ele>14.39999961853</ele>
        <time>2019-01-12T11:40:47.000Z</time>
      </trkpt>
      <trkpt lat="43.42597" lon="6.8574">
        <ele>14.39999961853</ele>
        <time>2019-01-12T11:40:44.000Z</time>
      </trkpt>
      <trkpt lat="43.42599" lon="6.85741">
        <ele>14.199999809265</ele>
        <time>2019-01-12T11:40:40.000Z</time>
      </trkpt>
      <trkpt lat="43.42603" lon="6.85745">
        <ele>14.39999961853</ele>
        <time>2019-01-12T11:40:30.000Z</time>
      </trkpt>
      <trkpt lat="43.42604" lon="6.85745">
        <ele>14</ele>
        <time>2019-01-12T11:40:19.000Z</time>
      </trkpt>
      <trkpt lat="43.42606" lon="6.85751">
        <ele>13.60000038147</ele>
        <time>2019-01-12T11:40:09.000Z</time>
      </trkpt>
      <trkpt lat="43.42607" lon="6.85752">
        <ele>13.39999961853</ele>
        <time>2019-01-12T11:40:08.000Z</time>
      </trkpt>
      <trkpt lat="43.42607" lon="6.85761">
        <ele>12.60000038147</ele>
        <time>2019-01-12T11:40:00.000Z</time>
      </trkpt>
      <trkpt lat="43.42607" lon="6.85763">
        <ele>12.39999961853</ele>
        <time>2019-01-12T11:39:58.000Z</time>
      </trkpt>
      <trkpt lat="43.42608" lon="6.85773">
        <ele>11.60000038147</ele>
        <time>2019-01-12T11:39:49.000Z</time>
      </trkpt>
      <trkpt lat="43.42608" lon="6.85775">
        <ele>11.39999961853</ele>
        <time>2019-01-12T11:39:47.000Z</time>
      </trkpt>
      <trkpt lat="43.4261" lon="6.8578">
        <ele>10.39999961853</ele>
        <time>2019-01-12T11:39:41.000Z</time>
      </trkpt>
      <trkpt lat="43.4261" lon="6.8578">
        <ele>10.199999809265</ele>
        <time>2019-01-12T11:39:40.000Z</time>
      </trkpt>
      <trkpt lat="43.42608" lon="6.85781">
        <ele>9.1999998092651</ele>
        <time>2019-01-12T11:39:32.000Z</time>
      </trkpt>
      <trkpt lat="43.42608" lon="6.85782">
        <ele>9.8000001907349</ele>
        <time>2019-01-12T11:39:24.000Z</time>
      </trkpt>
      <trkpt lat="43.42608" lon="6.85782">
        <ele>9.6000003814697</ele>
        <time>2019-01-12T11:39:13.000Z</time>
      </trkpt>
      <trkpt lat="43.42608" lon="6.85782">
        <ele>9.3999996185303</ele>
        <time>2019-01-12T11:38:59.000Z</time>
      </trkpt>
      <trkpt lat="43.42609" lon="6.85783">
        <ele>9.3999996185303</ele>
        <time>2019-01-12T11:38:52.000Z</time>
      </trkpt>
      <trkpt lat="43.42609" lon="6.85784">
        <ele>9.3999996185303</ele>
        <time>2019-01-12T11:38:51.000Z</time>
      </trkpt>
      <trkpt lat="43.42612" lon="6.85788">
        <ele>8.1999998092651</ele>
        <time>2019-01-12T11:38:45.000Z</time>
      </trkpt>
      <trkpt lat="43.42612" lon="6.85789">
        <ele>8.1999998092651</ele>
        <time>2019-01-12T11:38:44.000Z</time>
      </trkpt>
      <trkpt lat="43.42612" lon="6.8579">
        <ele>7.5999999046326</ele>
        <time>2019-01-12T11:38:41.000Z</time>
      </trkpt>
      <trkpt lat="43.42612" lon="6.85792">
        <ele>7.5999999046326</ele>
        <time>2019-01-12T11:38:40.000Z</time>
      </trkpt>
      <trkpt lat="43.42612" lon="6.85793">
        <ele>7.4000000953674</ele>
        <time>2019-01-12T11:38:33.000Z</time>
      </trkpt>
      <trkpt lat="43.42613" lon="6.85794">
        <ele>7.5999999046326</ele>
        <time>2019-01-12T11:38:27.000Z</time>
      </trkpt>
      <trkpt lat="43.42612" lon="6.85794">
        <ele>8.1999998092651</ele>
        <time>2019-01-12T11:38:18.000Z</time>
      </trkpt>
      <trkpt lat="43.42613" lon="6.85794">
        <ele>7.8000001907349</ele>
        <time>2019-01-12T11:38:09.000Z</time>
      </trkpt>
      <trkpt lat="43.42613" lon="6.85795">
        <ele>7.4000000953674</ele>
        <time>2019-01-12T11:38:03.000Z</time>
      </trkpt>
      <trkpt lat="43.42613" lon="6.85794">
        <ele>7</ele>
        <time>2019-01-12T11:37:55.000Z</time>
      </trkpt>
      <trkpt lat="43.42613" lon="6.85794">
        <ele>7.1999998092651</ele>
        <time>2019-01-12T11:37:41.000Z</time>
      </trkpt>
      <trkpt lat="43.42613" lon="6.85794">
        <ele>7.5999999046326</ele>
        <time>2019-01-12T11:37:36.000Z</time>
      </trkpt>
      <trkpt lat="43.42614" lon="6.85794">
        <ele>7.1999998092651</ele>
        <time>2019-01-12T11:37:24.000Z</time>
      </trkpt>
      <trkpt lat="43.42614" lon="6.85795">
        <ele>7.8000001907349</ele>
        <time>2019-01-12T11:37:17.000Z</time>
      </trkpt>
      <trkpt lat="43.42615" lon="6.85795">
        <ele>7.1999998092651</ele>
        <time>2019-01-12T11:37:08.000Z</time>
      </trkpt>
      <trkpt lat="43.42615" lon="6.85795">
        <ele>6.5999999046326</ele>
        <time>2019-01-12T11:37:06.000Z</time>
      </trkpt>
      <trkpt lat="43.42615" lon="6.85795">
        <ele>6.1999998092651</ele>
        <time>2019-01-12T11:37:01.000Z</time>
      </trkpt>
      <trkpt lat="43.42615" lon="6.85795">
        <ele>6.5999999046326</ele>
        <time>2019-01-12T11:36:59.000Z</time>
      </trkpt>
      <trkpt lat="43.42614" lon="6.85794">
        <ele>7</ele>
        <time>2019-01-12T11:36:50.000Z</time>
      </trkpt>
      <trkpt lat="43.42614" lon="6.85794">
        <ele>7.4000000953674</ele>
        <time>2019-01-12T11:36:41.000Z</time>
      </trkpt>
      <trkpt lat="43.42614" lon="6.85794">
        <ele>7.1999998092651</ele>
        <time>2019-01-12T11:36:39.000Z</time>
      </trkpt>
      <trkpt lat="43.42614" lon="6.85794">
        <ele>6.5999999046326</ele>
        <time>2019-01-12T11:36:32.000Z</time>
      </trkpt>
      <trkpt lat="43.42615" lon="6.85795">
        <ele>6.8000001907349</ele>
        <time>2019-01-12T11:36:23.000Z</time>
      </trkpt>
      <trkpt lat="43.42616" lon="6.85795">
        <ele>6.4000000953674</ele>
        <time>2019-01-12T11:36:16.000Z</time>
      </trkpt>
      <trkpt lat="43.42616" lon="6.85795">
        <ele>6.1999998092651</ele>
        <time>2019-01-12T11:35:47.000Z</time>
      </trkpt>
      <trkpt lat="43.42617" lon="6.85795">
        <ele>6.4000000953674</ele>
        <time>2019-01-12T11:35:24.000Z</time>
      </trkpt>
      <trkpt lat="43.42617" lon="6.85795">
        <ele>6.5999999046326</ele>
        <time>2019-01-12T11:35:07.000Z</time>
      </trkpt>
      <trkpt lat="43.42617" lon="6.85795">
        <ele>6</ele>
        <time>2019-01-12T11:34:56.000Z</time>
      </trkpt>
      <trkpt lat="43.42617" lon="6.85795">
        <ele>6.1999998092651</ele>
        <time>2019-01-12T11:34:50.000Z</time>
      </trkpt>
      <trkpt lat="43.42617" lon="6.85795">
        <ele>6.5999999046326</ele>
        <time>2019-01-12T11:34:41.000Z</time>
      </trkpt>
      <trkpt lat="43.42616" lon="6.85795">
        <ele>6.5999999046326</ele>
        <time>2019-01-12T11:34:27.000Z</time>
      </trkpt>
      <trkpt lat="43.42616" lon="6.85795">
        <ele>6.4000000953674</ele>
        <time>2019-01-12T11:34:19.000Z</time>
      </trkpt>
      <trkpt lat="43.42616" lon="6.85795">
        <ele>5.8000001907349</ele>
        <time>2019-01-12T11:34:14.000Z</time>
      </trkpt>
      <trkpt lat="43.42616" lon="6.85795">
        <ele>6</ele>
        <time>2019-01-12T11:34:06.000Z</time>
      </trkpt>
      <trkpt lat="43.42616" lon="6.85795">
        <ele>6</ele>
        <time>2019-01-12T11:33:53.000Z</time>
      </trkpt>
      <trkpt lat="43.42615" lon="6.85795">
        <ele>5.8000001907349</ele>
        <time>2019-01-12T11:33:36.000Z</time>
      </trkpt>
      <trkpt lat="43.42616" lon="6.85795">
        <ele>6.4000000953674</ele>
        <time>2019-01-12T11:32:56.000Z</time>
      </trkpt>
      <trkpt lat="43.42616" lon="6.85795">
        <ele>6.1999998092651</ele>
        <time>2019-01-12T11:32:54.000Z</time>
      </trkpt>
      <trkpt lat="43.42616" lon="6.85794">
        <ele>5.8000001907349</ele>
        <time>2019-01-12T11:32:30.000Z</time>
      </trkpt>
      <trkpt lat="43.42616" lon="6.85795">
        <ele>5.5999999046326</ele>
        <time>2019-01-12T11:32:02.000Z</time>
      </trkpt>
      <trkpt lat="43.42616" lon="6.85795">
        <ele>6</ele>
        <time>2019-01-12T11:31:42.000Z</time>
      </trkpt>
      <trkpt lat="43.42616" lon="6.85795">
        <ele>5.8000001907349</ele>
        <time>2019-01-12T11:31:13.000Z</time>
      </trkpt>
      <trkpt lat="43.42616" lon="6.85795">
        <ele>5.1999998092651</ele>
        <time>2019-01-12T11:30:44.000Z</time>
      </trkpt>
      <trkpt lat="43.42616" lon="6.85795">
        <ele>5.4000000953674</ele>
        <time>2019-01-12T11:30:28.000Z</time>
      </trkpt>
      <trkpt lat="43.42615" lon="6.85795">
        <ele>5.4000000953674</ele>
        <time>2019-01-12T11:30:06.000Z</time>
      </trkpt>
      <trkpt lat="43.42615" lon="6.85795">
        <ele>5.1999998092651</ele>
        <time>2019-01-12T11:29:49.000Z</time>
      </trkpt>
      <trkpt lat="43.42615" lon="6.85795">
        <ele>5.1999998092651</ele>
        <time>2019-01-12T11:29:24.000Z</time>
      </trkpt>
      <trkpt lat="43.42616" lon="6.85795">
        <ele>5.1999998092651</ele>
        <time>2019-01-12T11:29:06.000Z</time>
      </trkpt>
      <trkpt lat="43.42615" lon="6.85795">
        <ele>5.1999998092651</ele>
        <time>2019-01-12T11:28:36.000Z</time>
      </trkpt>
      <trkpt lat="43.42616" lon="6.85795">
        <ele>5</ele>
        <time>2019-01-12T11:28:04.000Z</time>
      </trkpt>
      <trkpt lat="43.42616" lon="6.85795">
        <ele>5.1999998092651</ele>
        <time>2019-01-12T11:27:38.000Z</time>
      </trkpt>
      <trkpt lat="43.42615" lon="6.85796">
        <ele>5</ele>
        <time>2019-01-12T11:27:13.000Z</time>
      </trkpt>
      <trkpt lat="43.42615" lon="6.85796">
        <ele>5.1999998092651</ele>
        <time>2019-01-12T11:26:46.000Z</time>
      </trkpt>
      <trkpt lat="43.42615" lon="6.85796">
        <ele>5.1999998092651</ele>
        <time>2019-01-12T11:26:27.000Z</time>
      </trkpt>
      <trkpt lat="43.42616" lon="6.85796">
        <ele>5.1999998092651</ele>
        <time>2019-01-12T11:26:04.000Z</time>
      </trkpt>
      <trkpt lat="43.42616" lon="6.85795">
        <ele>5.1999998092651</ele>
        <time>2019-01-12T11:25:47.000Z</time>
      </trkpt>
      <trkpt lat="43.42615" lon="6.85795">
        <ele>5</ele>
        <time>2019-01-12T11:25:23.000Z</time>
      </trkpt>
      <trkpt lat="43.42615" lon="6.85795">
        <ele>5</ele>
        <time>2019-01-12T11:25:02.000Z</time>
      </trkpt>
      <trkpt lat="43.42616" lon="6.85795">
        <ele>4.5999999046326</ele>
        <time>2019-01-12T11:24:52.000Z</time>
      </trkpt>
      <trkpt lat="43.42615" lon="6.85795">
        <ele>4.5999999046326</ele>
        <time>2019-01-12T11:24:26.000Z</time>
      </trkpt>
      <trkpt lat="43.42615" lon="6.85795">
        <ele>4.8000001907349</ele>
        <time>2019-01-12T11:23:50.000Z</time>
      </trkpt>
      <trkpt lat="43.42615" lon="6.85795">
        <ele>4.8000001907349</ele>
        <time>2019-01-12T11:23:21.000Z</time>
      </trkpt>
      <trkpt lat="43.42615" lon="6.85795">
        <ele>4.8000001907349</ele>
        <time>2019-01-12T11:23:16.000Z</time>
      </trkpt>
      <trkpt lat="43.42615" lon="6.85795">
        <ele>4.8000001907349</ele>
        <time>2019-01-12T11:23:00.000Z</time>
      </trkpt>
      <trkpt lat="43.42614" lon="6.85795">
        <ele>4.8000001907349</ele>
        <time>2019-01-12T11:22:29.000Z</time>
      </trkpt>
      <trkpt lat="43.42615" lon="6.85795">
        <ele>5</ele>
        <time>2019-01-12T11:22:00.000Z</time>
      </trkpt>
      <trkpt lat="43.42615" lon="6.85795">
        <ele>5</ele>
        <time>2019-01-12T11:21:33.000Z</time>
      </trkpt>
      <trkpt lat="43.42616" lon="6.85795">
        <ele>5</ele>
        <time>2019-01-12T11:21:14.000Z</time>
      </trkpt>
      <trkpt lat="43.42617" lon="6.85795">
        <ele>5</ele>
        <time>2019-01-12T11:20:58.000Z</time>
      </trkpt>
      <trkpt lat="43.42617" lon="6.85795">
        <ele>4.5999999046326</ele>
        <time>2019-01-12T11:20:50.000Z</time>
      </trkpt>
      <trkpt lat="43.42617" lon="6.85795">
        <ele>5</ele>
        <time>2019-01-12T11:20:44.000Z</time>
      </trkpt>
      <trkpt lat="43.42617" lon="6.85795">
        <ele>5</ele>
        <time>2019-01-12T11:20:31.000Z</time>
      </trkpt>
      <trkpt lat="43.42617" lon="6.85794">
        <ele>5</ele>
        <time>2019-01-12T11:20:15.000Z</time>
      </trkpt>
      <trkpt lat="43.42617" lon="6.85794">
        <ele>5</ele>
        <time>2019-01-12T11:20:05.000Z</time>
      </trkpt>
      <trkpt lat="43.42617" lon="6.85794">
        <ele>5.1999998092651</ele>
        <time>2019-01-12T11:19:57.000Z</time>
      </trkpt>
      <trkpt lat="43.42617" lon="6.85794">
        <ele>5</ele>
        <time>2019-01-12T11:19:50.000Z</time>
      </trkpt>
      <trkpt lat="43.42617" lon="6.85794">
        <ele>4.8000001907349</ele>
        <time>2019-01-12T11:19:39.000Z</time>
      </trkpt>
      <trkpt lat="43.42616" lon="6.85795">
        <ele>5.1999998092651</ele>
        <time>2019-01-12T11:19:27.000Z</time>
      </trkpt>
      <trkpt lat="43.42616" lon="6.85795">
        <ele>5.1999998092651</ele>
        <time>2019-01-12T11:19:17.000Z</time>
      </trkpt>
      <trkpt lat="43.42616" lon="6.85795">
        <ele>5.1999998092651</ele>
        <time>2019-01-12T11:19:08.000Z</time>
      </trkpt>
      <trkpt lat="43.42617" lon="6.85795">
        <ele>5</ele>
        <time>2019-01-12T11:18:59.000Z</time>
      </trkpt>
      <trkpt lat="43.42617" lon="6.85795">
        <ele>5.1999998092651</ele>
        <time>2019-01-12T11:18:54.000Z</time>
      </trkpt>
      <trkpt lat="43.42617" lon="6.85795">
        <ele>5</ele>
        <time>2019-01-12T11:18:45.000Z</time>
      </trkpt>
      <trkpt lat="43.42618" lon="6.85795">
        <ele>4.5999999046326</ele>
        <time>2019-01-12T11:18:31.000Z</time>
      </trkpt>
      <trkpt lat="43.42618" lon="6.85795">
        <ele>4.8000001907349</ele>
        <time>2019-01-12T11:18:18.000Z</time>
      </trkpt>
      <trkpt lat="43.42619" lon="6.85795">
        <ele>4.8000001907349</ele>
        <time>2019-01-12T11:17:59.000Z</time>
      </trkpt>
      <trkpt lat="43.42616" lon="6.85795">
        <ele>5</ele>
        <time>2019-01-12T11:17:42.000Z</time>
      </trkpt>
      <trkpt lat="43.42615" lon="6.85795">
        <ele>5</ele>
        <time>2019-01-12T11:17:23.000Z</time>
      </trkpt>
      <trkpt lat="43.42615" lon="6.85796">
        <ele>5</ele>
        <time>2019-01-12T11:17:04.000Z</time>
      </trkpt>
      <trkpt lat="43.42615" lon="6.85796">
        <ele>5.1999998092651</ele>
        <time>2019-01-12T11:16:45.000Z</time>
      </trkpt>
      <trkpt lat="43.42615" lon="6.85796">
        <ele>5</ele>
        <time>2019-01-12T11:16:30.000Z</time>
      </trkpt>
      <trkpt lat="43.42614" lon="6.85796">
        <ele>4.8000001907349</ele>
        <time>2019-01-12T11:16:21.000Z</time>
      </trkpt>
      <trkpt lat="43.42614" lon="6.85796">
        <ele>5.1999998092651</ele>
        <time>2019-01-12T11:16:14.000Z</time>
      </trkpt>
      <trkpt lat="43.42614" lon="6.85796">
        <ele>5</ele>
        <time>2019-01-12T11:16:13.000Z</time>
      </trkpt>
      <trkpt lat="43.42614" lon="6.85796">
        <ele>4.1999998092651</ele>
        <time>2019-01-12T11:16:09.000Z</time>
      </trkpt>
      <trkpt lat="43.42614" lon="6.85796">
        <ele>5</ele>
        <time>2019-01-12T11:16:05.000Z</time>
      </trkpt>
      <trkpt lat="43.42613" lon="6.85795">
        <ele>5.1999998092651</ele>
        <time>2019-01-12T11:15:59.000Z</time>
      </trkpt>
      <trkpt lat="43.42613" lon="6.85796">
        <ele>5.1999998092651</ele>
        <time>2019-01-12T11:15:58.000Z</time>
      </trkpt>
      <trkpt lat="43.42613" lon="6.85795">
        <ele>5.8000001907349</ele>
        <time>2019-01-12T11:15:55.000Z</time>
      </trkpt>
      <trkpt lat="43.42614" lon="6.85793">
        <ele>6.4000000953674</ele>
        <time>2019-01-12T11:15:50.000Z</time>
      </trkpt>
      <trkpt lat="43.42611" lon="6.8579">
        <ele>6.1999998092651</ele>
        <time>2019-01-12T11:15:44.000Z</time>
      </trkpt>
      <trkpt lat="43.4261" lon="6.85788">
        <ele>6.1999998092651</ele>
        <time>2019-01-12T11:15:41.000Z</time>
      </trkpt>
      <trkpt lat="43.42608" lon="6.85787">
        <ele>5.5999999046326</ele>
        <time>2019-01-12T11:15:38.000Z</time>
      </trkpt>
      <trkpt lat="43.42606" lon="6.85786">
        <ele>5.4000000953674</ele>
        <time>2019-01-12T11:15:36.000Z</time>
      </trkpt>
      <trkpt lat="43.42604" lon="6.85785">
        <ele>5.4000000953674</ele>
        <time>2019-01-12T11:15:31.000Z</time>
      </trkpt>
      <trkpt lat="43.42604" lon="6.85786">
        <ele>6</ele>
        <time>2019-01-12T11:15:26.000Z</time>
      </trkpt>
      <trkpt lat="43.42604" lon="6.85783">
        <ele>6.4000000953674</ele>
        <time>2019-01-12T11:15:21.000Z</time>
      </trkpt>
      <trkpt lat="43.42604" lon="6.85783">
        <ele>6.1999998092651</ele>
        <time>2019-01-12T11:15:13.000Z</time>
      </trkpt>
      <trkpt lat="43.42604" lon="6.85783">
        <ele>6.1999998092651</ele>
        <time>2019-01-12T11:15:12.000Z</time>
      </trkpt>
      <trkpt lat="43.42604" lon="6.85784">
        <ele>6.5999999046326</ele>
        <time>2019-01-12T11:15:06.000Z</time>
      </trkpt>
      <trkpt lat="43.42605" lon="6.85782">
        <ele>6.5999999046326</ele>
        <time>2019-01-12T11:14:58.000Z</time>
      </trkpt>
      <trkpt lat="43.42606" lon="6.85783">
        <ele>6.8000001907349</ele>
        <time>2019-01-12T11:14:52.000Z</time>
      </trkpt>
      <trkpt lat="43.42606" lon="6.85782">
        <ele>6.8000001907349</ele>
        <time>2019-01-12T11:14:51.000Z</time>
      </trkpt>
      <trkpt lat="43.42606" lon="6.85783">
        <ele>7.1999998092651</ele>
        <time>2019-01-12T11:14:47.000Z</time>
      </trkpt>
      <trkpt lat="43.42605" lon="6.85782">
        <ele>8.3999996185303</ele>
        <time>2019-01-12T11:14:45.000Z</time>
      </trkpt>
      <trkpt lat="43.42606" lon="6.85783">
        <ele>9</ele>
        <time>2019-01-12T11:14:44.000Z</time>
      </trkpt>
      <trkpt lat="43.42607" lon="6.85772">
        <ele>10.39999961853</ele>
        <time>2019-01-12T11:14:38.000Z</time>
      </trkpt>
      <trkpt lat="43.42608" lon="6.8577">
        <ele>10.60000038147</ele>
        <time>2019-01-12T11:14:37.000Z</time>
      </trkpt>
      <trkpt lat="43.42609" lon="6.85763">
        <ele>10.60000038147</ele>
        <time>2019-01-12T11:14:34.000Z</time>
      </trkpt>
      <trkpt lat="43.42608" lon="6.85755">
        <ele>10.199999809265</ele>
        <time>2019-01-12T11:14:31.000Z</time>
      </trkpt>
      <trkpt lat="43.42604" lon="6.85752">
        <ele>10</ele>
        <time>2019-01-12T11:14:29.000Z</time>
      </trkpt>
      <trkpt lat="43.42593" lon="6.85748">
        <ele>9</ele>
        <time>2019-01-12T11:14:23.000Z</time>
      </trkpt>
      <trkpt lat="43.42588" lon="6.85746">
        <ele>8.8000001907349</ele>
        <time>2019-01-12T11:14:17.000Z</time>
      </trkpt>
      <trkpt lat="43.42583" lon="6.85743">
        <ele>8.3999996185303</ele>
        <time>2019-01-12T11:14:12.000Z</time>
      </trkpt>
      <trkpt lat="43.42582" lon="6.85743">
        <ele>7.8000001907349</ele>
        <time>2019-01-12T11:14:06.000Z</time>
      </trkpt>
      <trkpt lat="43.42579" lon="6.85743">
        <ele>7.8000001907349</ele>
        <time>2019-01-12T11:14:01.000Z</time>
      </trkpt>
      <trkpt lat="43.42578" lon="6.85742">
        <ele>8</ele>
        <time>2019-01-12T11:13:58.000Z</time>
      </trkpt>
      <trkpt lat="43.42577" lon="6.85741">
        <ele>8.3999996185303</ele>
        <time>2019-01-12T11:13:56.000Z</time>
      </trkpt>
      <trkpt lat="43.42576" lon="6.8574">
        <ele>8.6000003814697</ele>
        <time>2019-01-12T11:13:52.000Z</time>
      </trkpt>
      <trkpt lat="43.42576" lon="6.8574">
        <ele>9</ele>
        <time>2019-01-12T11:13:51.000Z</time>
      </trkpt>
      <trkpt lat="43.42576" lon="6.8574">
        <ele>10.199999809265</ele>
        <time>2019-01-12T11:13:48.000Z</time>
      </trkpt>
      <trkpt lat="43.42575" lon="6.85739">
        <ele>10.39999961853</ele>
        <time>2019-01-12T11:13:47.000Z</time>
      </trkpt>
      <trkpt lat="43.42577" lon="6.85738">
        <ele>10.800000190735</ele>
        <time>2019-01-12T11:13:45.000Z</time>
      </trkpt>
      <trkpt lat="43.42579" lon="6.85733">
        <ele>10.60000038147</ele>
        <time>2019-01-12T11:13:43.000Z</time>
      </trkpt>
      <trkpt lat="43.4258" lon="6.85729">
        <ele>10.60000038147</ele>
        <time>2019-01-12T11:13:25.000Z</time>
      </trkpt>
      <trkpt lat="43.4258" lon="6.85727">
        <ele>11</ele>
        <time>2019-01-12T11:13:21.000Z</time>
      </trkpt>
      <trkpt lat="43.42587" lon="6.85732">
        <ele>11</ele>
        <time>2019-01-12T11:13:16.000Z</time>
      </trkpt>
      <trkpt lat="43.42597" lon="6.85741">
        <ele>10.39999961853</ele>
        <time>2019-01-12T11:13:11.000Z</time>
      </trkpt>
      <trkpt lat="43.42599" lon="6.85742">
        <ele>10.60000038147</ele>
        <time>2019-01-12T11:13:10.000Z</time>
      </trkpt>
      <trkpt lat="43.42603" lon="6.85735">
        <ele>10.60000038147</ele>
        <time>2019-01-12T11:13:06.000Z</time>
      </trkpt>
      <trkpt lat="43.42605" lon="6.85727">
        <ele>10.800000190735</ele>
        <time>2019-01-12T11:13:02.000Z</time>
      </trkpt>
      <trkpt lat="43.42604" lon="6.85727">
        <ele>11</ele>
        <time>2019-01-12T11:12:47.000Z</time>
      </trkpt>
      <trkpt lat="43.42605" lon="6.85726">
        <ele>11.39999961853</ele>
        <time>2019-01-12T11:12:46.000Z</time>
      </trkpt>
      <trkpt lat="43.42606" lon="6.85724">
        <ele>12.39999961853</ele>
        <time>2019-01-12T11:12:43.000Z</time>
      </trkpt>
      <trkpt lat="43.42606" lon="6.85721">
        <ele>13</ele>
        <time>2019-01-12T11:12:42.000Z</time>
      </trkpt>
      <trkpt lat="43.42607" lon="6.85717">
        <ele>13.800000190735</ele>
        <time>2019-01-12T11:12:41.000Z</time>
      </trkpt>
      <trkpt lat="43.42605" lon="6.85712">
        <ele>15.60000038147</ele>
        <time>2019-01-12T11:12:39.000Z</time>
      </trkpt>
      <trkpt lat="43.42607" lon="6.85709">
        <ele>16</ele>
        <time>2019-01-12T11:12:38.000Z</time>
      </trkpt>
      <trkpt lat="43.42611" lon="6.85707">
        <ele>16.799999237061</ele>
        <time>2019-01-12T11:12:37.000Z</time>
      </trkpt>
      <trkpt lat="43.42615" lon="6.857">
        <ele>17.39999961853</ele>
        <time>2019-01-12T11:12:35.000Z</time>
      </trkpt>
      <trkpt lat="43.42622" lon="6.85695">
        <ele>17.799999237061</ele>
        <time>2019-01-12T11:12:33.000Z</time>
      </trkpt>
      <trkpt lat="43.42626" lon="6.85693">
        <ele>17.799999237061</ele>
        <time>2019-01-12T11:12:31.000Z</time>
      </trkpt>
      <trkpt lat="43.42635" lon="6.85696">
        <ele>18.200000762939</ele>
        <time>2019-01-12T11:12:27.000Z</time>
      </trkpt>
      <trkpt lat="43.42638" lon="6.85694">
        <ele>18.799999237061</ele>
        <time>2019-01-12T11:12:25.000Z</time>
      </trkpt>
      <trkpt lat="43.42643" lon="6.8569">
        <ele>20</ele>
        <time>2019-01-12T11:12:23.000Z</time>
      </trkpt>
      <trkpt lat="43.42645" lon="6.85689">
        <ele>20.799999237061</ele>
        <time>2019-01-12T11:12:22.000Z</time>
      </trkpt>
      <trkpt lat="43.42648" lon="6.85686">
        <ele>21.60000038147</ele>
        <time>2019-01-12T11:12:21.000Z</time>
      </trkpt>
      <trkpt lat="43.42655" lon="6.85681">
        <ele>22.799999237061</ele>
        <time>2019-01-12T11:12:19.000Z</time>
      </trkpt>
      <trkpt lat="43.42658" lon="6.85676">
        <ele>23</ele>
        <time>2019-01-12T11:12:18.000Z</time>
      </trkpt>
      <trkpt lat="43.42669" lon="6.85646">
        <ele>24.39999961853</ele>
        <time>2019-01-12T11:12:14.000Z</time>
      </trkpt>
      <trkpt lat="43.42674" lon="6.85628">
        <ele>25</ele>
        <time>2019-01-12T11:12:12.000Z</time>
      </trkpt>
      <trkpt lat="43.42676" lon="6.85619">
        <ele>25.39999961853</ele>
        <time>2019-01-12T11:12:11.000Z</time>
      </trkpt>
      <trkpt lat="43.42689" lon="6.85591">
        <ele>26.60000038147</ele>
        <time>2019-01-12T11:12:07.000Z</time>
      </trkpt>
      <trkpt lat="43.42692" lon="6.85585">
        <ele>26.799999237061</ele>
        <time>2019-01-12T11:12:06.000Z</time>
      </trkpt>
      <trkpt lat="43.42704" lon="6.85564">
        <ele>27.60000038147</ele>
        <time>2019-01-12T11:12:02.000Z</time>
      </trkpt>
      <trkpt lat="43.42708" lon="6.85557">
        <ele>27.60000038147</ele>
        <time>2019-01-12T11:12:01.000Z</time>
      </trkpt>
      <trkpt lat="43.42719" lon="6.85537">
        <ele>28.200000762939</ele>
        <time>2019-01-12T11:11:58.000Z</time>
      </trkpt>
      <trkpt lat="43.42734" lon="6.85525">
        <ele>28.799999237061</ele>
        <time>2019-01-12T11:11:55.000Z</time>
      </trkpt>
      <trkpt lat="43.4274" lon="6.85523">
        <ele>29</ele>
        <time>2019-01-12T11:11:54.000Z</time>
      </trkpt>
      <trkpt lat="43.42771" lon="6.85529">
        <ele>30</ele>
        <time>2019-01-12T11:11:49.000Z</time>
      </trkpt>
      <trkpt lat="43.42777" lon="6.8553">
        <ele>30.39999961853</ele>
        <time>2019-01-12T11:11:48.000Z</time>
      </trkpt>
      <trkpt lat="43.42793" lon="6.85536">
        <ele>31.200000762939</ele>
        <time>2019-01-12T11:11:45.000Z</time>
      </trkpt>
      <trkpt lat="43.42807" lon="6.85544">
        <ele>31.799999237061</ele>
        <time>2019-01-12T11:11:42.000Z</time>
      </trkpt>
      <trkpt lat="43.42815" lon="6.8555">
        <ele>32</ele>
        <time>2019-01-12T11:11:40.000Z</time>
      </trkpt>
      <trkpt lat="43.42828" lon="6.85555">
        <ele>32.400001525879</ele>
        <time>2019-01-12T11:11:37.000Z</time>
      </trkpt>
      <trkpt lat="43.42837" lon="6.85557">
        <ele>32.599998474121</ele>
        <time>2019-01-12T11:11:35.000Z</time>
      </trkpt>
      <trkpt lat="43.42848" lon="6.85558">
        <ele>33</ele>
        <time>2019-01-12T11:11:32.000Z</time>
      </trkpt>
      <trkpt lat="43.42859" lon="6.8555">
        <ele>32.599998474121</ele>
        <time>2019-01-12T11:11:27.000Z</time>
      </trkpt>
      <trkpt lat="43.42861" lon="6.85542">
        <ele>32.599998474121</ele>
        <time>2019-01-12T11:11:24.000Z</time>
      </trkpt>
      <trkpt lat="43.42856" lon="6.85539">
        <ele>33</ele>
        <time>2019-01-12T11:11:21.000Z</time>
      </trkpt>
      <trkpt lat="43.42862" lon="6.85532">
        <ele>33.200000762939</ele>
        <time>2019-01-12T11:11:18.000Z</time>
      </trkpt>
      <trkpt lat="43.42866" lon="6.85528">
        <ele>33.400001525879</ele>
        <time>2019-01-12T11:11:17.000Z</time>
      </trkpt>
      <trkpt lat="43.42871" lon="6.85525">
        <ele>33.599998474121</ele>
        <time>2019-01-12T11:11:16.000Z</time>
      </trkpt>
      <trkpt lat="43.4288" lon="6.85515">
        <ele>34.200000762939</ele>
        <time>2019-01-12T11:11:14.000Z</time>
      </trkpt>
      <trkpt lat="43.42886" lon="6.85508">
        <ele>34.799999237061</ele>
        <time>2019-01-12T11:11:13.000Z</time>
      </trkpt>
      <trkpt lat="43.42895" lon="6.85493">
        <ele>36</ele>
        <time>2019-01-12T11:11:11.000Z</time>
      </trkpt>
      <trkpt lat="43.42903" lon="6.85476">
        <ele>37.200000762939</ele>
        <time>2019-01-12T11:11:09.000Z</time>
      </trkpt>
      <trkpt lat="43.42915" lon="6.85439">
        <ele>38.200000762939</ele>
        <time>2019-01-12T11:11:04.000Z</time>
      </trkpt>
      <trkpt lat="43.42922" lon="6.85402">
        <ele>38.599998474121</ele>
        <time>2019-01-12T11:10:57.000Z</time>
      </trkpt>
      <trkpt lat="43.42923" lon="6.85376">
        <ele>38.400001525879</ele>
        <time>2019-01-12T11:10:51.000Z</time>
      </trkpt>
      <trkpt lat="43.42927" lon="6.85331">
        <ele>37.200000762939</ele>
        <time>2019-01-12T11:10:40.000Z</time>
      </trkpt>
      <trkpt lat="43.42929" lon="6.85315">
        <ele>36.200000762939</ele>
        <time>2019-01-12T11:10:36.000Z</time>
      </trkpt>
      <trkpt lat="43.4293" lon="6.85303">
        <ele>34.599998474121</ele>
        <time>2019-01-12T11:10:33.000Z</time>
      </trkpt>
      <trkpt lat="43.42927" lon="6.85287">
        <ele>33.799999237061</ele>
        <time>2019-01-12T11:10:29.000Z</time>
      </trkpt>
      <trkpt lat="43.42922" lon="6.85279">
        <ele>33.799999237061</ele>
        <time>2019-01-12T11:10:27.000Z</time>
      </trkpt>
      <trkpt lat="43.42916" lon="6.8527">
        <ele>34.400001525879</ele>
        <time>2019-01-12T11:10:25.000Z</time>
      </trkpt>
      <trkpt lat="43.4291" lon="6.85256">
        <ele>34.799999237061</ele>
        <time>2019-01-12T11:10:23.000Z</time>
      </trkpt>
      <trkpt lat="43.42909" lon="6.85249">
        <ele>34.599998474121</ele>
        <time>2019-01-12T11:10:22.000Z</time>
      </trkpt>
      <trkpt lat="43.42908" lon="6.85225">
        <ele>35.200000762939</ele>
        <time>2019-01-12T11:10:19.000Z</time>
      </trkpt>
      <trkpt lat="43.42906" lon="6.85173">
        <ele>35.799999237061</ele>
        <time>2019-01-12T11:10:12.000Z</time>
      </trkpt>
      <trkpt lat="43.42905" lon="6.85165">
        <ele>35.799999237061</ele>
        <time>2019-01-12T11:10:11.000Z</time>
      </trkpt>
      <trkpt lat="43.42904" lon="6.85125">
        <ele>36.799999237061</ele>
        <time>2019-01-12T11:10:05.000Z</time>
      </trkpt>
      <trkpt lat="43.42902" lon="6.85098">
        <ele>37.799999237061</ele>
        <time>2019-01-12T11:10:01.000Z</time>
      </trkpt>
      <trkpt lat="43.42901" lon="6.85086">
        <ele>38.200000762939</ele>
        <time>2019-01-12T11:09:59.000Z</time>
      </trkpt>
      <trkpt lat="43.42898" lon="6.85071">
        <ele>38.400001525879</ele>
        <time>2019-01-12T11:09:56.000Z</time>
      </trkpt>
      <trkpt lat="43.42894" lon="6.85063">
        <ele>38.599998474121</ele>
        <time>2019-01-12T11:09:54.000Z</time>
      </trkpt>
      <trkpt lat="43.42893" lon="6.85054">
        <ele>38.599998474121</ele>
        <time>2019-01-12T11:09:52.000Z</time>
      </trkpt>
      <trkpt lat="43.42896" lon="6.85048">
        <ele>38.599998474121</ele>
        <time>2019-01-12T11:09:49.000Z</time>
      </trkpt>
      <trkpt lat="43.42901" lon="6.85047">
        <ele>38.400001525879</ele>
        <time>2019-01-12T11:09:44.000Z</time>
      </trkpt>
      <trkpt lat="43.42902" lon="6.85044">
        <ele>39</ele>
        <time>2019-01-12T11:09:39.000Z</time>
      </trkpt>
      <trkpt lat="43.42901" lon="6.85042">
        <ele>39</ele>
        <time>2019-01-12T11:09:38.000Z</time>
      </trkpt>
      <trkpt lat="43.42901" lon="6.85042">
        <ele>38.799999237061</ele>
        <time>2019-01-12T11:09:33.000Z</time>
      </trkpt>
      <trkpt lat="43.42901" lon="6.85038">
        <ele>39</ele>
        <time>2019-01-12T11:09:30.000Z</time>
      </trkpt>
      <trkpt lat="43.42901" lon="6.85039">
        <ele>39.200000762939</ele>
        <time>2019-01-12T11:09:29.000Z</time>
      </trkpt>
      <trkpt lat="43.42898" lon="6.85024">
        <ele>40.400001525879</ele>
        <time>2019-01-12T11:09:25.000Z</time>
      </trkpt>
      <trkpt lat="43.42896" lon="6.84997">
        <ele>40.200000762939</ele>
        <time>2019-01-12T11:09:20.000Z</time>
      </trkpt>
      <trkpt lat="43.42896" lon="6.84993">
        <ele>40.599998474121</ele>
        <time>2019-01-12T11:09:19.000Z</time>
      </trkpt>
      <trkpt lat="43.42896" lon="6.84988">
        <ele>41</ele>
        <time>2019-01-12T11:09:18.000Z</time>
      </trkpt>
      <trkpt lat="43.42896" lon="6.84957">
        <ele>41.400001525879</ele>
        <time>2019-01-12T11:09:13.000Z</time>
      </trkpt>
      <trkpt lat="43.42898" lon="6.84929">
        <ele>41.200000762939</ele>
        <time>2019-01-12T11:09:08.000Z</time>
      </trkpt>
      <trkpt lat="43.42899" lon="6.84916">
        <ele>41.400001525879</ele>
        <time>2019-01-12T11:09:06.000Z</time>
      </trkpt>
      <trkpt lat="43.42902" lon="6.84898">
        <ele>42.200000762939</ele>
        <time>2019-01-12T11:09:03.000Z</time>
      </trkpt>
      <trkpt lat="43.42904" lon="6.84891">
        <ele>42.400001525879</ele>
        <time>2019-01-12T11:09:02.000Z</time>
      </trkpt>
      <trkpt lat="43.42912" lon="6.84873">
        <ele>43.200000762939</ele>
        <time>2019-01-12T11:08:59.000Z</time>
      </trkpt>
      <trkpt lat="43.42915" lon="6.84866">
        <ele>43.200000762939</ele>
        <time>2019-01-12T11:08:58.000Z</time>
      </trkpt>
      <trkpt lat="43.42926" lon="6.84848">
        <ele>43</ele>
        <time>2019-01-12T11:08:54.000Z</time>
      </trkpt>
      <trkpt lat="43.42928" lon="6.84843">
        <ele>43</ele>
        <time>2019-01-12T11:08:53.000Z</time>
      </trkpt>
      <trkpt lat="43.42934" lon="6.84825">
        <ele>43.599998474121</ele>
        <time>2019-01-12T11:08:50.000Z</time>
      </trkpt>
      <trkpt lat="43.42938" lon="6.84806">
        <ele>44.599998474121</ele>
        <time>2019-01-12T11:08:47.000Z</time>
      </trkpt>
      <trkpt lat="43.42938" lon="6.84799">
        <ele>45</ele>
        <time>2019-01-12T11:08:46.000Z</time>
      </trkpt>
      <trkpt lat="43.42943" lon="6.84778">
        <ele>45.400001525879</ele>
        <time>2019-01-12T11:08:43.000Z</time>
      </trkpt>
      <trkpt lat="43.42948" lon="6.84767">
        <ele>45.400001525879</ele>
        <time>2019-01-12T11:08:41.000Z</time>
      </trkpt>
      <trkpt lat="43.42954" lon="6.84758">
        <ele>45.599998474121</ele>
        <time>2019-01-12T11:08:39.000Z</time>
      </trkpt>
      <trkpt lat="43.42957" lon="6.84754">
        <ele>46</ele>
        <time>2019-01-12T11:08:38.000Z</time>
      </trkpt>
      <trkpt lat="43.4296" lon="6.84748">
        <ele>46.200000762939</ele>
        <time>2019-01-12T11:08:37.000Z</time>
      </trkpt>
      <trkpt lat="43.42967" lon="6.84729">
        <ele>46.200000762939</ele>
        <time>2019-01-12T11:08:34.000Z</time>
      </trkpt>
      <trkpt lat="43.42967" lon="6.84721">
        <ele>46.400001525879</ele>
        <time>2019-01-12T11:08:33.000Z</time>
      </trkpt>
      <trkpt lat="43.42967" lon="6.84709">
        <ele>46.799999237061</ele>
        <time>2019-01-12T11:08:31.000Z</time>
      </trkpt>
      <trkpt lat="43.42965" lon="6.8469">
        <ele>48</ele>
        <time>2019-01-12T11:08:28.000Z</time>
      </trkpt>
      <trkpt lat="43.42969" lon="6.84654">
        <ele>49.400001525879</ele>
        <time>2019-01-12T11:08:21.000Z</time>
      </trkpt>
      <trkpt lat="43.42974" lon="6.84621">
        <ele>50.200000762939</ele>
        <time>2019-01-12T11:08:14.000Z</time>
      </trkpt>
      <trkpt lat="43.42973" lon="6.84611">
        <ele>50.599998474121</ele>
        <time>2019-01-12T11:08:12.000Z</time>
      </trkpt>
      <trkpt lat="43.42972" lon="6.84598">
        <ele>51.599998474121</ele>
        <time>2019-01-12T11:08:09.000Z</time>
      </trkpt>
      <trkpt lat="43.42971" lon="6.84589">
        <ele>52.200000762939</ele>
        <time>2019-01-12T11:08:07.000Z</time>
      </trkpt>
      <trkpt lat="43.42968" lon="6.84568">
        <ele>52.400001525879</ele>
        <time>2019-01-12T11:08:03.000Z</time>
      </trkpt>
      <trkpt lat="43.42966" lon="6.84557">
        <ele>52.599998474121</ele>
        <time>2019-01-12T11:08:01.000Z</time>
      </trkpt>
      <trkpt lat="43.42965" lon="6.84531">
        <ele>52.799999237061</ele>
        <time>2019-01-12T11:07:56.000Z</time>
      </trkpt>
      <trkpt lat="43.42966" lon="6.84527">
        <ele>53.200000762939</ele>
        <time>2019-01-12T11:07:55.000Z</time>
      </trkpt>
      <trkpt lat="43.42973" lon="6.84514">
        <ele>53.400001525879</ele>
        <time>2019-01-12T11:07:52.000Z</time>
      </trkpt>
      <trkpt lat="43.42976" lon="6.84508">
        <ele>54</ele>
        <time>2019-01-12T11:07:51.000Z</time>
      </trkpt>
      <trkpt lat="43.42979" lon="6.84499">
        <ele>54</ele>
        <time>2019-01-12T11:07:49.000Z</time>
      </trkpt>
      <trkpt lat="43.42985" lon="6.84483">
        <ele>54.599998474121</ele>
        <time>2019-01-12T11:07:46.000Z</time>
      </trkpt>
      <trkpt lat="43.42989" lon="6.84466">
        <ele>55</ele>
        <time>2019-01-12T11:07:43.000Z</time>
      </trkpt>
      <trkpt lat="43.4299" lon="6.8446">
        <ele>55</ele>
        <time>2019-01-12T11:07:42.000Z</time>
      </trkpt>
      <trkpt lat="43.4299" lon="6.84455">
        <ele>55.400001525879</ele>
        <time>2019-01-12T11:07:41.000Z</time>
      </trkpt>
      <trkpt lat="43.42986" lon="6.84438">
        <ele>56.200000762939</ele>
        <time>2019-01-12T11:07:38.000Z</time>
      </trkpt>
      <trkpt lat="43.42981" lon="6.84419">
        <ele>57.200000762939</ele>
        <time>2019-01-12T11:07:35.000Z</time>
      </trkpt>
      <trkpt lat="43.42972" lon="6.84387">
        <ele>57.400001525879</ele>
        <time>2019-01-12T11:07:30.000Z</time>
      </trkpt>
      <trkpt lat="43.42969" lon="6.84375">
        <ele>58.400001525879</ele>
        <time>2019-01-12T11:07:28.000Z</time>
      </trkpt>
      <trkpt lat="43.42961" lon="6.84357">
        <ele>58.799999237061</ele>
        <time>2019-01-12T11:07:25.000Z</time>
      </trkpt>
      <trkpt lat="43.42954" lon="6.84327">
        <ele>58.799999237061</ele>
        <time>2019-01-12T11:07:19.000Z</time>
      </trkpt>
      <trkpt lat="43.4295" lon="6.84286">
        <ele>59.200000762939</ele>
        <time>2019-01-12T11:07:11.000Z</time>
      </trkpt>
      <trkpt lat="43.42947" lon="6.84263">
        <ele>58.400001525879</ele>
        <time>2019-01-12T11:07:05.000Z</time>
      </trkpt>
      <trkpt lat="43.42948" lon="6.84254">
        <ele>59.200000762939</ele>
        <time>2019-01-12T11:07:02.000Z</time>
      </trkpt>
      <trkpt lat="43.4295" lon="6.84248">
        <ele>59.599998474121</ele>
        <time>2019-01-12T11:07:01.000Z</time>
      </trkpt>
      <trkpt lat="43.42961" lon="6.84231">
        <ele>60.400001525879</ele>
        <time>2019-01-12T11:06:57.000Z</time>
      </trkpt>
      <trkpt lat="43.42964" lon="6.84227">
        <ele>60.599998474121</ele>
        <time>2019-01-12T11:06:56.000Z</time>
      </trkpt>
      <trkpt lat="43.42968" lon="6.84217">
        <ele>61.599998474121</ele>
        <time>2019-01-12T11:06:53.000Z</time>
      </trkpt>
      <trkpt lat="43.42973" lon="6.84211">
        <ele>62.599998474121</ele>
        <time>2019-01-12T11:06:50.000Z</time>
      </trkpt>
      <trkpt lat="43.42976" lon="6.84207">
        <ele>62.799999237061</ele>
        <time>2019-01-12T11:06:49.000Z</time>
      </trkpt>
      <trkpt lat="43.42988" lon="6.84189">
        <ele>63.400001525879</ele>
        <time>2019-01-12T11:06:44.000Z</time>
      </trkpt>
      <trkpt lat="43.42994" lon="6.84175">
        <ele>63.599998474121</ele>
        <time>2019-01-12T11:06:40.000Z</time>
      </trkpt>
      <trkpt lat="43.42994" lon="6.84172">
        <ele>63.599998474121</ele>
        <time>2019-01-12T11:06:39.000Z</time>
      </trkpt>
      <trkpt lat="43.42994" lon="6.84166">
        <ele>63.799999237061</ele>
        <time>2019-01-12T11:06:37.000Z</time>
      </trkpt>
      <trkpt lat="43.42992" lon="6.84163">
        <ele>63.799999237061</ele>
        <time>2019-01-12T11:06:36.000Z</time>
      </trkpt>
      <trkpt lat="43.4299" lon="6.84159">
        <ele>64.199996948242</ele>
        <time>2019-01-12T11:06:35.000Z</time>
      </trkpt>
      <trkpt lat="43.42985" lon="6.84151">
        <ele>64.800003051758</ele>
        <time>2019-01-12T11:06:33.000Z</time>
      </trkpt>
      <trkpt lat="43.42979" lon="6.84143">
        <ele>65.800003051758</ele>
        <time>2019-01-12T11:06:31.000Z</time>
      </trkpt>
      <trkpt lat="43.42972" lon="6.84137">
        <ele>67.599998474121</ele>
        <time>2019-01-12T11:06:29.000Z</time>
      </trkpt>
      <trkpt lat="43.42968" lon="6.84136">
        <ele>68.800003051758</ele>
        <time>2019-01-12T11:06:28.000Z</time>
      </trkpt>
      <trkpt lat="43.42965" lon="6.84134">
        <ele>69.800003051758</ele>
        <time>2019-01-12T11:06:27.000Z</time>
      </trkpt>
      <trkpt lat="43.42961" lon="6.84132">
        <ele>70.599998474121</ele>
        <time>2019-01-12T11:06:26.000Z</time>
      </trkpt>
      <trkpt lat="43.42959" lon="6.8413">
        <ele>71.800003051758</ele>
        <time>2019-01-12T11:06:25.000Z</time>
      </trkpt>
      <trkpt lat="43.42958" lon="6.84123">
        <ele>73.599998474121</ele>
        <time>2019-01-12T11:06:23.000Z</time>
      </trkpt>
      <trkpt lat="43.42958" lon="6.84116">
        <ele>75</ele>
        <time>2019-01-12T11:06:21.000Z</time>
      </trkpt>
      <trkpt lat="43.42957" lon="6.8411">
        <ele>75.199996948242</ele>
        <time>2019-01-12T11:06:19.000Z</time>
      </trkpt>
      <trkpt lat="43.42957" lon="6.84106">
        <ele>75.400001525879</ele>
        <time>2019-01-12T11:06:18.000Z</time>
      </trkpt>
      <trkpt lat="43.42962" lon="6.84094">
        <ele>76</ele>
        <time>2019-01-12T11:06:13.000Z</time>
      </trkpt>
      <trkpt lat="43.42967" lon="6.84087">
        <ele>77.199996948242</ele>
        <time>2019-01-12T11:06:10.000Z</time>
      </trkpt>
      <trkpt lat="43.42968" lon="6.84084">
        <ele>77.400001525879</ele>
        <time>2019-01-12T11:06:09.000Z</time>
      </trkpt>
      <trkpt lat="43.42971" lon="6.8406">
        <ele>78.199996948242</ele>
        <time>2019-01-12T11:06:04.000Z</time>
      </trkpt>
      <trkpt lat="43.42976" lon="6.84043">
        <ele>78.400001525879</ele>
        <time>2019-01-12T11:06:00.000Z</time>
      </trkpt>
      <trkpt lat="43.42976" lon="6.84038">
        <ele>78.400001525879</ele>
        <time>2019-01-12T11:05:59.000Z</time>
      </trkpt>
      <trkpt lat="43.42978" lon="6.84019">
        <ele>78.800003051758</ele>
        <time>2019-01-12T11:05:55.000Z</time>
      </trkpt>
      <trkpt lat="43.42977" lon="6.8401">
        <ele>79.400001525879</ele>
        <time>2019-01-12T11:05:53.000Z</time>
      </trkpt>
      <trkpt lat="43.42975" lon="6.83998">
        <ele>79.800003051758</ele>
        <time>2019-01-12T11:05:50.000Z</time>
      </trkpt>
      <trkpt lat="43.42971" lon="6.83977">
        <ele>80</ele>
        <time>2019-01-12T11:05:45.000Z</time>
      </trkpt>
      <trkpt lat="43.42962" lon="6.83966">
        <ele>79.599998474121</ele>
        <time>2019-01-12T11:05:38.000Z</time>
      </trkpt>
      <trkpt lat="43.42961" lon="6.83964">
        <ele>79.800003051758</ele>
        <time>2019-01-12T11:05:33.000Z</time>
      </trkpt>
      <trkpt lat="43.4296" lon="6.83964">
        <ele>79.800003051758</ele>
        <time>2019-01-12T11:05:21.000Z</time>
      </trkpt>
      <trkpt lat="43.42959" lon="6.83964">
        <ele>79.800003051758</ele>
        <time>2019-01-12T11:05:14.000Z</time>
      </trkpt>
      <trkpt lat="43.42958" lon="6.83963">
        <ele>79.599998474121</ele>
        <time>2019-01-12T11:05:12.000Z</time>
      </trkpt>
      <trkpt lat="43.42957" lon="6.83964">
        <ele>79.400001525879</ele>
        <time>2019-01-12T11:05:09.000Z</time>
      </trkpt>
      <trkpt lat="43.42958" lon="6.83963">
        <ele>79.599998474121</ele>
        <time>2019-01-12T11:04:53.000Z</time>
      </trkpt>
      <trkpt lat="43.42959" lon="6.83963">
        <ele>79.599998474121</ele>
        <time>2019-01-12T11:04:35.000Z</time>
      </trkpt>
      <trkpt lat="43.4296" lon="6.83963">
        <ele>79.599998474121</ele>
        <time>2019-01-12T11:04:26.000Z</time>
      </trkpt>
      <trkpt lat="43.42961" lon="6.83963">
        <ele>79.599998474121</ele>
        <time>2019-01-12T11:04:21.000Z</time>
      </trkpt>
      <trkpt lat="43.42962" lon="6.83962">
        <ele>79.800003051758</ele>
        <time>2019-01-12T11:04:18.000Z</time>
      </trkpt>
      <trkpt lat="43.42961" lon="6.83962">
        <ele>80.199996948242</ele>
        <time>2019-01-12T11:04:15.000Z</time>
      </trkpt>
      <trkpt lat="43.42959" lon="6.83959">
        <ele>80.400001525879</ele>
        <time>2019-01-12T11:04:14.000Z</time>
      </trkpt>
      <trkpt lat="43.42952" lon="6.83946">
        <ele>81.400001525879</ele>
        <time>2019-01-12T11:04:10.000Z</time>
      </trkpt>
      <trkpt lat="43.42952" lon="6.83944">
        <ele>82</ele>
        <time>2019-01-12T11:04:09.000Z</time>
      </trkpt>
      <trkpt lat="43.42955" lon="6.83939">
        <ele>82.800003051758</ele>
        <time>2019-01-12T11:04:07.000Z</time>
      </trkpt>
      <trkpt lat="43.42958" lon="6.83937">
        <ele>83.199996948242</ele>
        <time>2019-01-12T11:04:06.000Z</time>
      </trkpt>
      <trkpt lat="43.42969" lon="6.83929">
        <ele>83.199996948242</ele>
        <time>2019-01-12T11:04:02.000Z</time>
      </trkpt>
      <trkpt lat="43.42972" lon="6.83922">
        <ele>83</ele>
        <time>2019-01-12T11:03:51.000Z</time>
      </trkpt>
      <trkpt lat="43.42972" lon="6.83922">
        <ele>84</ele>
        <time>2019-01-12T11:03:46.000Z</time>
      </trkpt>
      <trkpt lat="43.42972" lon="6.83921">
        <ele>84.800003051758</ele>
        <time>2019-01-12T11:03:44.000Z</time>
      </trkpt>
      <trkpt lat="43.42971" lon="6.83922">
        <ele>85.199996948242</ele>
        <time>2019-01-12T11:03:43.000Z</time>
      </trkpt>
      <trkpt lat="43.42972" lon="6.83918">
        <ele>85.400001525879</ele>
        <time>2019-01-12T11:03:41.000Z</time>
      </trkpt>
      <trkpt lat="43.42977" lon="6.83911">
        <ele>86.199996948242</ele>
        <time>2019-01-12T11:03:39.000Z</time>
      </trkpt>
      <trkpt lat="43.42982" lon="6.83904">
        <ele>87</ele>
        <time>2019-01-12T11:03:37.000Z</time>
      </trkpt>
      <trkpt lat="43.42986" lon="6.83902">
        <ele>87.400001525879</ele>
        <time>2019-01-12T11:03:36.000Z</time>
      </trkpt>
      <trkpt lat="43.43001" lon="6.83897">
        <ele>88.599998474121</ele>
        <time>2019-01-12T11:03:32.000Z</time>
      </trkpt>
      <trkpt lat="43.43003" lon="6.83897">
        <ele>89</ele>
        <time>2019-01-12T11:03:31.000Z</time>
      </trkpt>
      <trkpt lat="43.43007" lon="6.83897">
        <ele>89.599998474121</ele>
        <time>2019-01-12T11:03:29.000Z</time>
      </trkpt>
      <trkpt lat="43.43009" lon="6.839">
        <ele>90.599998474121</ele>
        <time>2019-01-12T11:03:27.000Z</time>
      </trkpt>
      <trkpt lat="43.43011" lon="6.83902">
        <ele>91.199996948242</ele>
        <time>2019-01-12T11:03:26.000Z</time>
      </trkpt>
      <trkpt lat="43.43023" lon="6.83899">
        <ele>92</ele>
        <time>2019-01-12T11:03:23.000Z</time>
      </trkpt>
      <trkpt lat="43.4304" lon="6.83895">
        <ele>92.400001525879</ele>
        <time>2019-01-12T11:03:19.000Z</time>
      </trkpt>
      <trkpt lat="43.43045" lon="6.83892">
        <ele>93</ele>
        <time>2019-01-12T11:03:18.000Z</time>
      </trkpt>
      <trkpt lat="43.43048" lon="6.83885">
        <ele>93.400001525879</ele>
        <time>2019-01-12T11:03:16.000Z</time>
      </trkpt>
      <trkpt lat="43.43052" lon="6.83884">
        <ele>93.800003051758</ele>
        <time>2019-01-12T11:03:15.000Z</time>
      </trkpt>
      <trkpt lat="43.43062" lon="6.83879">
        <ele>94.800003051758</ele>
        <time>2019-01-12T11:03:13.000Z</time>
      </trkpt>
      <trkpt lat="43.43068" lon="6.83877">
        <ele>95.199996948242</ele>
        <time>2019-01-12T11:03:12.000Z</time>
      </trkpt>
      <trkpt lat="43.43074" lon="6.83877">
        <ele>96</ele>
        <time>2019-01-12T11:03:11.000Z</time>
      </trkpt>
      <trkpt lat="43.4308" lon="6.83877">
        <ele>97.199996948242</ele>
        <time>2019-01-12T11:03:10.000Z</time>
      </trkpt>
      <trkpt lat="43.43086" lon="6.83876">
        <ele>98.400001525879</ele>
        <time>2019-01-12T11:03:09.000Z</time>
      </trkpt>
      <trkpt lat="43.43092" lon="6.83873">
        <ele>99.800003051758</ele>
        <time>2019-01-12T11:03:08.000Z</time>
      </trkpt>
      <trkpt lat="43.43097" lon="6.8387">
        <ele>100.80000305176</ele>
        <time>2019-01-12T11:03:07.000Z</time>
      </trkpt>
      <trkpt lat="43.43103" lon="6.83868">
        <ele>101.40000152588</ele>
        <time>2019-01-12T11:03:06.000Z</time>
      </trkpt>
      <trkpt lat="43.43113" lon="6.83866">
        <ele>102</ele>
        <time>2019-01-12T11:03:04.000Z</time>
      </trkpt>
      <trkpt lat="43.43118" lon="6.83863">
        <ele>102</ele>
        <time>2019-01-12T11:03:03.000Z</time>
      </trkpt>
      <trkpt lat="43.43126" lon="6.8386">
        <ele>102.40000152588</ele>
        <time>2019-01-12T11:03:01.000Z</time>
      </trkpt>
      <trkpt lat="43.43131" lon="6.8386">
        <ele>103</ele>
        <time>2019-01-12T11:03:00.000Z</time>
      </trkpt>
      <trkpt lat="43.43142" lon="6.83857">
        <ele>104.19999694824</ele>
        <time>2019-01-12T11:02:58.000Z</time>
      </trkpt>
      <trkpt lat="43.43147" lon="6.83855">
        <ele>104.59999847412</ele>
        <time>2019-01-12T11:02:57.000Z</time>
      </trkpt>
      <trkpt lat="43.43152" lon="6.83852">
        <ele>105.19999694824</ele>
        <time>2019-01-12T11:02:56.000Z</time>
      </trkpt>
      <trkpt lat="43.43157" lon="6.83849">
        <ele>105.80000305176</ele>
        <time>2019-01-12T11:02:55.000Z</time>
      </trkpt>
      <trkpt lat="43.43162" lon="6.83847">
        <ele>105.80000305176</ele>
        <time>2019-01-12T11:02:54.000Z</time>
      </trkpt>
      <trkpt lat="43.43167" lon="6.83845">
        <ele>106</ele>
        <time>2019-01-12T11:02:53.000Z</time>
      </trkpt>
      <trkpt lat="43.43175" lon="6.83842">
        <ele>106.80000305176</ele>
        <time>2019-01-12T11:02:51.000Z</time>
      </trkpt>
      <trkpt lat="43.43178" lon="6.83842">
        <ele>107</ele>
        <time>2019-01-12T11:02:50.000Z</time>
      </trkpt>
      <trkpt lat="43.43181" lon="6.83831">
        <ele>108.40000152588</ele>
        <time>2019-01-12T11:02:47.000Z</time>
      </trkpt>
      <trkpt lat="43.4318" lon="6.83826">
        <ele>109.40000152588</ele>
        <time>2019-01-12T11:02:45.000Z</time>
      </trkpt>
      <trkpt lat="43.43181" lon="6.83824">
        <ele>109.59999847412</ele>
        <time>2019-01-12T11:02:44.000Z</time>
      </trkpt>
      <trkpt lat="43.43188" lon="6.83811">
        <ele>109.59999847412</ele>
        <time>2019-01-12T11:02:40.000Z</time>
      </trkpt>
      <trkpt lat="43.43191" lon="6.83807">
        <ele>109.59999847412</ele>
        <time>2019-01-12T11:02:38.000Z</time>
      </trkpt>
      <trkpt lat="43.43193" lon="6.838">
        <ele>110.59999847412</ele>
        <time>2019-01-12T11:02:36.000Z</time>
      </trkpt>
      <trkpt lat="43.43196" lon="6.83792">
        <ele>111.80000305176</ele>
        <time>2019-01-12T11:02:34.000Z</time>
      </trkpt>
      <trkpt lat="43.43198" lon="6.83783">
        <ele>112.80000305176</ele>
        <time>2019-01-12T11:02:32.000Z</time>
      </trkpt>
      <trkpt lat="43.43203" lon="6.83766">
        <ele>113.19999694824</ele>
        <time>2019-01-12T11:02:28.000Z</time>
      </trkpt>
      <trkpt lat="43.43208" lon="6.83754">
        <ele>113.40000152588</ele>
        <time>2019-01-12T11:02:24.000Z</time>
      </trkpt>
      <trkpt lat="43.4321" lon="6.83752">
        <ele>113.59999847412</ele>
        <time>2019-01-12T11:02:23.000Z</time>
      </trkpt>
      <trkpt lat="43.43213" lon="6.83742">
        <ele>114</ele>
        <time>2019-01-12T11:02:20.000Z</time>
      </trkpt>
      <trkpt lat="43.43216" lon="6.83728">
        <ele>114</ele>
        <time>2019-01-12T11:02:15.000Z</time>
      </trkpt>
      <trkpt lat="43.43219" lon="6.83714">
        <ele>113.19999694824</ele>
        <time>2019-01-12T11:02:08.000Z</time>
      </trkpt>
      <trkpt lat="43.4322" lon="6.83712">
        <ele>113</ele>
        <time>2019-01-12T11:02:07.000Z</time>
      </trkpt>
      <trkpt lat="43.43222" lon="6.83705">
        <ele>112.19999694824</ele>
        <time>2019-01-12T11:02:03.000Z</time>
      </trkpt>
      <trkpt lat="43.43222" lon="6.83703">
        <ele>112</ele>
        <time>2019-01-12T11:02:02.000Z</time>
      </trkpt>
      <trkpt lat="43.43223" lon="6.83691">
        <ele>111</ele>
        <time>2019-01-12T11:01:56.000Z</time>
      </trkpt>
      <trkpt lat="43.43224" lon="6.83687">
        <ele>110.40000152588</ele>
        <time>2019-01-12T11:01:54.000Z</time>
      </trkpt>
      <trkpt lat="43.43224" lon="6.83682">
        <ele>109.80000305176</ele>
        <time>2019-01-12T11:01:52.000Z</time>
      </trkpt>
      <trkpt lat="43.43225" lon="6.83677">
        <ele>109.19999694824</ele>
        <time>2019-01-12T11:01:50.000Z</time>
      </trkpt>
      <trkpt lat="43.43225" lon="6.83675">
        <ele>108.80000305176</ele>
        <time>2019-01-12T11:01:49.000Z</time>
      </trkpt>
      <trkpt lat="43.43226" lon="6.8367">
        <ele>108.19999694824</ele>
        <time>2019-01-12T11:01:47.000Z</time>
      </trkpt>
      <trkpt lat="43.43226" lon="6.83668">
        <ele>107.80000305176</ele>
        <time>2019-01-12T11:01:46.000Z</time>
      </trkpt>
      <trkpt lat="43.43225" lon="6.83664">
        <ele>107.40000152588</ele>
        <time>2019-01-12T11:01:44.000Z</time>
      </trkpt>
      <trkpt lat="43.43224" lon="6.83662">
        <ele>107.19999694824</ele>
        <time>2019-01-12T11:01:43.000Z</time>
      </trkpt>
      <trkpt lat="43.43227" lon="6.83656">
        <ele>106.80000305176</ele>
        <time>2019-01-12T11:01:40.000Z</time>
      </trkpt>
      <trkpt lat="43.43228" lon="6.8365">
        <ele>105.59999847412</ele>
        <time>2019-01-12T11:01:37.000Z</time>
      </trkpt>
      <trkpt lat="43.43228" lon="6.83647">
        <ele>105</ele>
        <time>2019-01-12T11:01:36.000Z</time>
      </trkpt>
      <trkpt lat="43.4323" lon="6.83644">
        <ele>104.19999694824</ele>
        <time>2019-01-12T11:01:34.000Z</time>
      </trkpt>
      <trkpt lat="43.43232" lon="6.83641">
        <ele>103.59999847412</ele>
        <time>2019-01-12T11:01:32.000Z</time>
      </trkpt>
      <trkpt lat="43.43233" lon="6.83638">
        <ele>103.59999847412</ele>
        <time>2019-01-12T11:01:31.000Z</time>
      </trkpt>
      <trkpt lat="43.43237" lon="6.83625">
        <ele>103.40000152588</ele>
        <time>2019-01-12T11:01:26.000Z</time>
      </trkpt>
      <trkpt lat="43.43239" lon="6.83622">
        <ele>103.19999694824</ele>
        <time>2019-01-12T11:01:25.000Z</time>
      </trkpt>
      <trkpt lat="43.43243" lon="6.83618">
        <ele>103</ele>
        <time>2019-01-12T11:01:23.000Z</time>
      </trkpt>
      <trkpt lat="43.43246" lon="6.83614">
        <ele>103.80000305176</ele>
        <time>2019-01-12T11:01:21.000Z</time>
      </trkpt>
      <trkpt lat="43.43246" lon="6.83611">
        <ele>104.19999694824</ele>
        <time>2019-01-12T11:01:20.000Z</time>
      </trkpt>
      <trkpt lat="43.43246" lon="6.83607">
        <ele>104.59999847412</ele>
        <time>2019-01-12T11:01:19.000Z</time>
      </trkpt>
      <trkpt lat="43.43251" lon="6.83596">
        <ele>104.59999847412</ele>
        <time>2019-01-12T11:01:17.000Z</time>
      </trkpt>
      <trkpt lat="43.4326" lon="6.83579">
        <ele>105.19999694824</ele>
        <time>2019-01-12T11:01:13.000Z</time>
      </trkpt>
      <trkpt lat="43.43261" lon="6.83576">
        <ele>105.40000152588</ele>
        <time>2019-01-12T11:01:12.000Z</time>
      </trkpt>
      <trkpt lat="43.43272" lon="6.83576">
        <ele>106</ele>
        <time>2019-01-12T11:01:08.000Z</time>
      </trkpt>
      <trkpt lat="43.43275" lon="6.83575">
        <ele>106.19999694824</ele>
        <time>2019-01-12T11:01:07.000Z</time>
      </trkpt>
      <trkpt lat="43.43282" lon="6.83563">
        <ele>106.59999847412</ele>
        <time>2019-01-12T11:01:03.000Z</time>
      </trkpt>
      <trkpt lat="43.4329" lon="6.83553">
        <ele>106.59999847412</ele>
        <time>2019-01-12T11:00:59.000Z</time>
      </trkpt>
      <trkpt lat="43.43293" lon="6.83552">
        <ele>106.59999847412</ele>
        <time>2019-01-12T11:00:58.000Z</time>
      </trkpt>
      <trkpt lat="43.43304" lon="6.83544">
        <ele>106.59999847412</ele>
        <time>2019-01-12T11:00:53.000Z</time>
      </trkpt>
      <trkpt lat="43.43314" lon="6.83538">
        <ele>106.59999847412</ele>
        <time>2019-01-12T11:00:48.000Z</time>
      </trkpt>
      <trkpt lat="43.43316" lon="6.83536">
        <ele>106.59999847412</ele>
        <time>2019-01-12T11:00:46.000Z</time>
      </trkpt>
      <trkpt lat="43.43316" lon="6.83535">
        <ele>106.59999847412</ele>
        <time>2019-01-12T11:00:34.000Z</time>
      </trkpt>
      <trkpt lat="43.43317" lon="6.83534">
        <ele>106.80000305176</ele>
        <time>2019-01-12T11:00:23.000Z</time>
      </trkpt>
      <trkpt lat="43.43324" lon="6.83527">
        <ele>106.40000152588</ele>
        <time>2019-01-12T11:00:17.000Z</time>
      </trkpt>
      <trkpt lat="43.43326" lon="6.83525">
        <ele>106.40000152588</ele>
        <time>2019-01-12T11:00:15.000Z</time>
      </trkpt>
      <trkpt lat="43.43335" lon="6.83528">
        <ele>105.59999847412</ele>
        <time>2019-01-12T11:00:10.000Z</time>
      </trkpt>
      <trkpt lat="43.43339" lon="6.8353">
        <ele>105.40000152588</ele>
        <time>2019-01-12T11:00:08.000Z</time>
      </trkpt>
      <trkpt lat="43.43346" lon="6.83531">
        <ele>105</ele>
        <time>2019-01-12T11:00:04.000Z</time>
      </trkpt>
      <trkpt lat="43.43353" lon="6.83529">
        <ele>104.19999694824</ele>
        <time>2019-01-12T11:00:00.000Z</time>
      </trkpt>
      <trkpt lat="43.43355" lon="6.83526">
        <ele>104</ele>
        <time>2019-01-12T10:59:58.000Z</time>
      </trkpt>
      <trkpt lat="43.4336" lon="6.83516">
        <ele>103.19999694824</ele>
        <time>2019-01-12T10:59:53.000Z</time>
      </trkpt>
      <trkpt lat="43.43362" lon="6.83512">
        <ele>102.80000305176</ele>
        <time>2019-01-12T10:59:51.000Z</time>
      </trkpt>
      <trkpt lat="43.43368" lon="6.83497">
        <ele>102.19999694824</ele>
        <time>2019-01-12T10:59:43.000Z</time>
      </trkpt>
      <trkpt lat="43.43369" lon="6.83495">
        <ele>102</ele>
        <time>2019-01-12T10:59:42.000Z</time>
      </trkpt>
      <trkpt lat="43.43375" lon="6.83483">
        <ele>101.19999694824</ele>
        <time>2019-01-12T10:59:36.000Z</time>
      </trkpt>
      <trkpt lat="43.43376" lon="6.83479">
        <ele>100.80000305176</ele>
        <time>2019-01-12T10:59:34.000Z</time>
      </trkpt>
      <trkpt lat="43.43382" lon="6.83478">
        <ele>100.80000305176</ele>
        <time>2019-01-12T10:59:31.000Z</time>
      </trkpt>
      <trkpt lat="43.43387" lon="6.83481">
        <ele>100.80000305176</ele>
        <time>2019-01-12T10:59:28.000Z</time>
      </trkpt>
      <trkpt lat="43.43391" lon="6.83483">
        <ele>101.40000152588</ele>
        <time>2019-01-12T10:59:26.000Z</time>
      </trkpt>
      <trkpt lat="43.43394" lon="6.83488">
        <ele>102</ele>
        <time>2019-01-12T10:59:24.000Z</time>
      </trkpt>
      <trkpt lat="43.43398" lon="6.83494">
        <ele>102.59999847412</ele>
        <time>2019-01-12T10:59:22.000Z</time>
      </trkpt>
      <trkpt lat="43.43397" lon="6.83499">
        <ele>103.19999694824</ele>
        <time>2019-01-12T10:59:20.000Z</time>
      </trkpt>
      <trkpt lat="43.43395" lon="6.83507">
        <ele>103.40000152588</ele>
        <time>2019-01-12T10:59:18.000Z</time>
      </trkpt>
      <trkpt lat="43.43394" lon="6.83511">
        <ele>104</ele>
        <time>2019-01-12T10:59:17.000Z</time>
      </trkpt>
      <trkpt lat="43.43392" lon="6.83515">
        <ele>104.40000152588</ele>
        <time>2019-01-12T10:59:16.000Z</time>
      </trkpt>
      <trkpt lat="43.43399" lon="6.83523">
        <ele>104.59999847412</ele>
        <time>2019-01-12T10:59:13.000Z</time>
      </trkpt>
      <trkpt lat="43.43408" lon="6.83527">
        <ele>104.59999847412</ele>
        <time>2019-01-12T10:59:10.000Z</time>
      </trkpt>
      <trkpt lat="43.43417" lon="6.83525">
        <ele>105.40000152588</ele>
        <time>2019-01-12T10:59:08.000Z</time>
      </trkpt>
      <trkpt lat="43.4342" lon="6.83524">
        <ele>105.59999847412</ele>
        <time>2019-01-12T10:59:07.000Z</time>
      </trkpt>
      <trkpt lat="43.43433" lon="6.83519">
        <ele>105.80000305176</ele>
        <time>2019-01-12T10:59:04.000Z</time>
      </trkpt>
      <trkpt lat="43.43436" lon="6.83517">
        <ele>106.19999694824</ele>
        <time>2019-01-12T10:59:03.000Z</time>
      </trkpt>
      <trkpt lat="43.43444" lon="6.83514">
        <ele>107</ele>
        <time>2019-01-12T10:59:01.000Z</time>
      </trkpt>
      <trkpt lat="43.43454" lon="6.83512">
        <ele>108.59999847412</ele>
        <time>2019-01-12T10:58:59.000Z</time>
      </trkpt>
      <trkpt lat="43.43461" lon="6.83512">
        <ele>110.40000152588</ele>
        <time>2019-01-12T10:58:57.000Z</time>
      </trkpt>
      <trkpt lat="43.43469" lon="6.83512">
        <ele>111.80000305176</ele>
        <time>2019-01-12T10:58:55.000Z</time>
      </trkpt>
      <trkpt lat="43.43481" lon="6.83511">
        <ele>112.59999847412</ele>
        <time>2019-01-12T10:58:52.000Z</time>
      </trkpt>
      <trkpt lat="43.4349" lon="6.8351">
        <ele>113.19999694824</ele>
        <time>2019-01-12T10:58:49.000Z</time>
      </trkpt>
      <trkpt lat="43.43491" lon="6.83509">
        <ele>114</ele>
        <time>2019-01-12T10:58:48.000Z</time>
      </trkpt>
      <trkpt lat="43.43491" lon="6.83509">
        <ele>114.80000305176</ele>
        <time>2019-01-12T10:58:47.000Z</time>
      </trkpt>
      <trkpt lat="43.43495" lon="6.8351">
        <ele>116.19999694824</ele>
        <time>2019-01-12T10:58:45.000Z</time>
      </trkpt>
      <trkpt lat="43.43499" lon="6.83511">
        <ele>117.59999847412</ele>
        <time>2019-01-12T10:58:44.000Z</time>
      </trkpt>
      <trkpt lat="43.43503" lon="6.83514">
        <ele>118.40000152588</ele>
        <time>2019-01-12T10:58:43.000Z</time>
      </trkpt>
      <trkpt lat="43.43509" lon="6.83521">
        <ele>120.19999694824</ele>
        <time>2019-01-12T10:58:41.000Z</time>
      </trkpt>
      <trkpt lat="43.43523" lon="6.83518">
        <ele>122</ele>
        <time>2019-01-12T10:58:37.000Z</time>
      </trkpt>
      <trkpt lat="43.43529" lon="6.83515">
        <ele>122</ele>
        <time>2019-01-12T10:58:35.000Z</time>
      </trkpt>
      <trkpt lat="43.43532" lon="6.83515">
        <ele>122</ele>
        <time>2019-01-12T10:58:31.000Z</time>
      </trkpt>
      <trkpt lat="43.43532" lon="6.83514">
        <ele>122.59999847412</ele>
        <time>2019-01-12T10:58:29.000Z</time>
      </trkpt>
      <trkpt lat="43.43535" lon="6.83514">
        <ele>123.19999694824</ele>
        <time>2019-01-12T10:58:24.000Z</time>
      </trkpt>
      <trkpt lat="43.43535" lon="6.83514">
        <ele>123.59999847412</ele>
        <time>2019-01-12T10:58:23.000Z</time>
      </trkpt>
      <trkpt lat="43.43536" lon="6.83513">
        <ele>124.40000152588</ele>
        <time>2019-01-12T10:58:22.000Z</time>
      </trkpt>
      <trkpt lat="43.43536" lon="6.83513">
        <ele>126</ele>
        <time>2019-01-12T10:58:20.000Z</time>
      </trkpt>
      <trkpt lat="43.43539" lon="6.83512">
        <ele>126.59999847412</ele>
        <time>2019-01-12T10:58:18.000Z</time>
      </trkpt>
      <trkpt lat="43.43547" lon="6.83509">
        <ele>127.19999694824</ele>
        <time>2019-01-12T10:58:15.000Z</time>
      </trkpt>
      <trkpt lat="43.43551" lon="6.83505">
        <ele>127.59999847412</ele>
        <time>2019-01-12T10:58:13.000Z</time>
      </trkpt>
      <trkpt lat="43.43554" lon="6.83503">
        <ele>128.19999694824</ele>
        <time>2019-01-12T10:58:10.000Z</time>
      </trkpt>
      <trkpt lat="43.43557" lon="6.83502">
        <ele>129.19999694824</ele>
        <time>2019-01-12T10:58:08.000Z</time>
      </trkpt>
      <trkpt lat="43.43558" lon="6.83501">
        <ele>130.39999389648</ele>
        <time>2019-01-12T10:58:07.000Z</time>
      </trkpt>
      <trkpt lat="43.4356" lon="6.835">
        <ele>131.39999389648</ele>
        <time>2019-01-12T10:58:06.000Z</time>
      </trkpt>
      <trkpt lat="43.43561" lon="6.83499">
        <ele>133.39999389648</ele>
        <time>2019-01-12T10:58:04.000Z</time>
      </trkpt>
      <trkpt lat="43.43564" lon="6.83498">
        <ele>135</ele>
        <time>2019-01-12T10:58:03.000Z</time>
      </trkpt>
      <trkpt lat="43.43566" lon="6.83498">
        <ele>136</ele>
        <time>2019-01-12T10:58:02.000Z</time>
      </trkpt>
      <trkpt lat="43.43571" lon="6.83494">
        <ele>137.39999389648</ele>
        <time>2019-01-12T10:58:00.000Z</time>
      </trkpt>
      <trkpt lat="43.43574" lon="6.83491">
        <ele>138.19999694824</ele>
        <time>2019-01-12T10:57:59.000Z</time>
      </trkpt>
      <trkpt lat="43.43577" lon="6.83489">
        <ele>138.80000305176</ele>
        <time>2019-01-12T10:57:58.000Z</time>
      </trkpt>
      <trkpt lat="43.43582" lon="6.83486">
        <ele>140.19999694824</ele>
        <time>2019-01-12T10:57:56.000Z</time>
      </trkpt>
      <trkpt lat="43.43585" lon="6.83485">
        <ele>141.19999694824</ele>
        <time>2019-01-12T10:57:55.000Z</time>
      </trkpt>
      <trkpt lat="43.43588" lon="6.83483">
        <ele>142</ele>
        <time>2019-01-12T10:57:54.000Z</time>
      </trkpt>
      <trkpt lat="43.43591" lon="6.83481">
        <ele>143</ele>
        <time>2019-01-12T10:57:53.000Z</time>
      </trkpt>
      <trkpt lat="43.43597" lon="6.83479">
        <ele>144.60000610352</ele>
        <time>2019-01-12T10:57:51.000Z</time>
      </trkpt>
      <trkpt lat="43.436" lon="6.83477">
        <ele>145.60000610352</ele>
        <time>2019-01-12T10:57:50.000Z</time>
      </trkpt>
      <trkpt lat="43.43602" lon="6.83476">
        <ele>146.39999389648</ele>
        <time>2019-01-12T10:57:49.000Z</time>
      </trkpt>
      <trkpt lat="43.43607" lon="6.83473">
        <ele>148</ele>
        <time>2019-01-12T10:57:47.000Z</time>
      </trkpt>
      <trkpt lat="43.43617" lon="6.8347">
        <ele>149.19999694824</ele>
        <time>2019-01-12T10:57:44.000Z</time>
      </trkpt>
      <trkpt lat="43.43631" lon="6.83461">
        <ele>149.80000305176</ele>
        <time>2019-01-12T10:57:39.000Z</time>
      </trkpt>
      <trkpt lat="43.43633" lon="6.83459">
        <ele>149.80000305176</ele>
        <time>2019-01-12T10:57:38.000Z</time>
      </trkpt>
      <trkpt lat="43.43641" lon="6.83454">
        <ele>149.39999389648</ele>
        <time>2019-01-12T10:57:33.000Z</time>
      </trkpt>
      <trkpt lat="43.43649" lon="6.83453">
        <ele>148.60000610352</ele>
        <time>2019-01-12T10:57:27.000Z</time>
      </trkpt>
      <trkpt lat="43.4365" lon="6.83453">
        <ele>149.19999694824</ele>
        <time>2019-01-12T10:57:26.000Z</time>
      </trkpt>
      <trkpt lat="43.43655" lon="6.83455">
        <ele>150.19999694824</ele>
        <time>2019-01-12T10:57:23.000Z</time>
      </trkpt>
      <trkpt lat="43.43655" lon="6.83458">
        <ele>150.39999389648</ele>
        <time>2019-01-12T10:57:22.000Z</time>
      </trkpt>
      <trkpt lat="43.4365" lon="6.83467">
        <ele>151.60000610352</ele>
        <time>2019-01-12T10:57:18.000Z</time>
      </trkpt>
      <trkpt lat="43.43641" lon="6.83475">
        <ele>152</ele>
        <time>2019-01-12T10:57:13.000Z</time>
      </trkpt>
      <trkpt lat="43.4364" lon="6.83477">
        <ele>152.19999694824</ele>
        <time>2019-01-12T10:57:07.000Z</time>
      </trkpt>
      <trkpt lat="43.43641" lon="6.83477">
        <ele>151.80000305176</ele>
        <time>2019-01-12T10:56:57.000Z</time>
      </trkpt>
      <trkpt lat="43.43641" lon="6.83477">
        <ele>151.39999389648</ele>
        <time>2019-01-12T10:56:54.000Z</time>
      </trkpt>
      <trkpt lat="43.43642" lon="6.83476">
        <ele>150.60000610352</ele>
        <time>2019-01-12T10:56:51.000Z</time>
      </trkpt>
      <trkpt lat="43.43643" lon="6.83475">
        <ele>150.19999694824</ele>
        <time>2019-01-12T10:56:50.000Z</time>
      </trkpt>
      <trkpt lat="43.43649" lon="6.83469">
        <ele>149.39999389648</ele>
        <time>2019-01-12T10:56:45.000Z</time>
      </trkpt>
      <trkpt lat="43.4365" lon="6.83468">
        <ele>149</ele>
        <time>2019-01-12T10:56:44.000Z</time>
      </trkpt>
      <trkpt lat="43.43653" lon="6.83462">
        <ele>147.80000305176</ele>
        <time>2019-01-12T10:56:40.000Z</time>
      </trkpt>
      <trkpt lat="43.43655" lon="6.83458">
        <ele>147.39999389648</ele>
        <time>2019-01-12T10:56:38.000Z</time>
      </trkpt>
      <trkpt lat="43.43656" lon="6.83455">
        <ele>146.60000610352</ele>
        <time>2019-01-12T10:56:36.000Z</time>
      </trkpt>
      <trkpt lat="43.43664" lon="6.83448">
        <ele>145.60000610352</ele>
        <time>2019-01-12T10:56:30.000Z</time>
      </trkpt>
      <trkpt lat="43.4367" lon="6.83446">
        <ele>145.60000610352</ele>
        <time>2019-01-12T10:56:26.000Z</time>
      </trkpt>
      <trkpt lat="43.43674" lon="6.83444">
        <ele>145.19999694824</ele>
        <time>2019-01-12T10:56:23.000Z</time>
      </trkpt>
      <trkpt lat="43.43679" lon="6.83441">
        <ele>144.60000610352</ele>
        <time>2019-01-12T10:56:19.000Z</time>
      </trkpt>
      <trkpt lat="43.43682" lon="6.83438">
        <ele>143.60000610352</ele>
        <time>2019-01-12T10:56:16.000Z</time>
      </trkpt>
      <trkpt lat="43.43682" lon="6.83437">
        <ele>143.39999389648</ele>
        <time>2019-01-12T10:56:15.000Z</time>
      </trkpt>
      <trkpt lat="43.43687" lon="6.83431">
        <ele>142</ele>
        <time>2019-01-12T10:56:10.000Z</time>
      </trkpt>
      <trkpt lat="43.43689" lon="6.83429">
        <ele>141</ele>
        <time>2019-01-12T10:56:08.000Z</time>
      </trkpt>
      <trkpt lat="43.4369" lon="6.83427">
        <ele>140.80000305176</ele>
        <time>2019-01-12T10:56:07.000Z</time>
      </trkpt>
      <trkpt lat="43.43692" lon="6.8342">
        <ele>139.60000610352</ele>
        <time>2019-01-12T10:56:03.000Z</time>
      </trkpt>
      <trkpt lat="43.43693" lon="6.83418">
        <ele>139.19999694824</ele>
        <time>2019-01-12T10:56:02.000Z</time>
      </trkpt>
      <trkpt lat="43.43695" lon="6.83415">
        <ele>138.19999694824</ele>
        <time>2019-01-12T10:56:00.000Z</time>
      </trkpt>
      <trkpt lat="43.43698" lon="6.83407">
        <ele>136.39999389648</ele>
        <time>2019-01-12T10:55:56.000Z</time>
      </trkpt>
      <trkpt lat="43.43703" lon="6.83395">
        <ele>137</ele>
        <time>2019-01-12T10:55:53.000Z</time>
      </trkpt>
      <trkpt lat="43.43706" lon="6.83391">
        <ele>137.19999694824</ele>
        <time>2019-01-12T10:55:52.000Z</time>
      </trkpt>
      <trkpt lat="43.43715" lon="6.83372">
        <ele>138.19999694824</ele>
        <time>2019-01-12T10:55:49.000Z</time>
      </trkpt>
      <trkpt lat="43.4372" lon="6.83355">
        <ele>139.39999389648</ele>
        <time>2019-01-12T10:55:47.000Z</time>
      </trkpt>
      <trkpt lat="43.43723" lon="6.83347">
        <ele>140.60000610352</ele>
        <time>2019-01-12T10:55:46.000Z</time>
      </trkpt>
      <trkpt lat="43.43725" lon="6.83338">
        <ele>141.39999389648</ele>
        <time>2019-01-12T10:55:45.000Z</time>
      </trkpt>
      <trkpt lat="43.43729" lon="6.8333">
        <ele>142.80000305176</ele>
        <time>2019-01-12T10:55:44.000Z</time>
      </trkpt>
      <trkpt lat="43.43732" lon="6.8332">
        <ele>143.39999389648</ele>
        <time>2019-01-12T10:55:43.000Z</time>
      </trkpt>
      <trkpt lat="43.43735" lon="6.83314">
        <ele>144.39999389648</ele>
        <time>2019-01-12T10:55:42.000Z</time>
      </trkpt>
      <trkpt lat="43.43739" lon="6.83306">
        <ele>145.19999694824</ele>
        <time>2019-01-12T10:55:41.000Z</time>
      </trkpt>
      <trkpt lat="43.43742" lon="6.833">
        <ele>146.39999389648</ele>
        <time>2019-01-12T10:55:40.000Z</time>
      </trkpt>
      <trkpt lat="43.43747" lon="6.83289">
        <ele>148.39999389648</ele>
        <time>2019-01-12T10:55:38.000Z</time>
      </trkpt>
      <trkpt lat="43.4375" lon="6.83283">
        <ele>149</ele>
        <time>2019-01-12T10:55:37.000Z</time>
      </trkpt>
      <trkpt lat="43.43753" lon="6.83277">
        <ele>149.60000610352</ele>
        <time>2019-01-12T10:55:36.000Z</time>
      </trkpt>
      <trkpt lat="43.4376" lon="6.83267">
        <ele>150.39999389648</ele>
        <time>2019-01-12T10:55:34.000Z</time>
      </trkpt>
      <trkpt lat="43.43788" lon="6.83262">
        <ele>151.39999389648</ele>
        <time>2019-01-12T10:55:29.000Z</time>
      </trkpt>
      <trkpt lat="43.43805" lon="6.83261">
        <ele>151.19999694824</ele>
        <time>2019-01-12T10:55:24.000Z</time>
      </trkpt>
      <trkpt lat="43.43808" lon="6.8326">
        <ele>151</ele>
        <time>2019-01-12T10:55:23.000Z</time>
      </trkpt>
      <trkpt lat="43.43822" lon="6.83246">
        <ele>150.39999389648</ele>
        <time>2019-01-12T10:55:17.000Z</time>
      </trkpt>
      <trkpt lat="43.43837" lon="6.83225">
        <ele>149.39999389648</ele>
        <time>2019-01-12T10:55:10.000Z</time>
      </trkpt>
      <trkpt lat="43.43852" lon="6.83206">
        <ele>150</ele>
        <time>2019-01-12T10:55:05.000Z</time>
      </trkpt>
      <trkpt lat="43.43855" lon="6.83202">
        <ele>150.39999389648</ele>
        <time>2019-01-12T10:55:04.000Z</time>
      </trkpt>
      <trkpt lat="43.43869" lon="6.83188">
        <ele>151.19999694824</ele>
        <time>2019-01-12T10:54:59.000Z</time>
      </trkpt>
      <trkpt lat="43.43873" lon="6.83184">
        <ele>151.19999694824</ele>
        <time>2019-01-12T10:54:57.000Z</time>
      </trkpt>
      <trkpt lat="43.43874" lon="6.83183">
        <ele>151.39999389648</ele>
        <time>2019-01-12T10:54:46.000Z</time>
      </trkpt>
      <trkpt lat="43.43876" lon="6.83184">
        <ele>151.19999694824</ele>
        <time>2019-01-12T10:54:42.000Z</time>
      </trkpt>
      <trkpt lat="43.43889" lon="6.83181">
        <ele>151.19999694824</ele>
        <time>2019-01-12T10:54:37.000Z</time>
      </trkpt>
      <trkpt lat="43.439" lon="6.83187">
        <ele>151.19999694824</ele>
        <time>2019-01-12T10:54:33.000Z</time>
      </trkpt>
      <trkpt lat="43.43919" lon="6.8322">
        <ele>153.60000610352</ele>
        <time>2019-01-12T10:54:27.000Z</time>
      </trkpt>
      <trkpt lat="43.43929" lon="6.83239">
        <ele>152.80000305176</ele>
        <time>2019-01-12T10:54:23.000Z</time>
      </trkpt>
      <trkpt lat="43.43931" lon="6.83246">
        <ele>152.39999389648</ele>
        <time>2019-01-12T10:54:21.000Z</time>
      </trkpt>
      <trkpt lat="43.43937" lon="6.83268">
        <ele>152</ele>
        <time>2019-01-12T10:54:15.000Z</time>
      </trkpt>
      <trkpt lat="43.43939" lon="6.83289">
        <ele>152.19999694824</ele>
        <time>2019-01-12T10:54:09.000Z</time>
      </trkpt>
      <trkpt lat="43.4394" lon="6.83299">
        <ele>151.80000305176</ele>
        <time>2019-01-12T10:54:07.000Z</time>
      </trkpt>
      <trkpt lat="43.43939" lon="6.8331">
        <ele>152.80000305176</ele>
        <time>2019-01-12T10:54:05.000Z</time>
      </trkpt>
      <trkpt lat="43.43939" lon="6.83319">
        <ele>154.39999389648</ele>
        <time>2019-01-12T10:54:03.000Z</time>
      </trkpt>
      <trkpt lat="43.4394" lon="6.83329">
        <ele>155.60000610352</ele>
        <time>2019-01-12T10:54:01.000Z</time>
      </trkpt>
      <trkpt lat="43.43942" lon="6.83347">
        <ele>156.39999389648</ele>
        <time>2019-01-12T10:53:57.000Z</time>
      </trkpt>
      <trkpt lat="43.43946" lon="6.83353">
        <ele>156.19999694824</ele>
        <time>2019-01-12T10:53:52.000Z</time>
      </trkpt>
      <trkpt lat="43.43946" lon="6.83352">
        <ele>156</ele>
        <time>2019-01-12T10:53:46.000Z</time>
      </trkpt>
      <trkpt lat="43.43949" lon="6.83353">
        <ele>155.60000610352</ele>
        <time>2019-01-12T10:53:43.000Z</time>
      </trkpt>
      <trkpt lat="43.43953" lon="6.83353">
        <ele>154.60000610352</ele>
        <time>2019-01-12T10:53:37.000Z</time>
      </trkpt>
      <trkpt lat="43.43957" lon="6.83353">
        <ele>153.39999389648</ele>
        <time>2019-01-12T10:53:32.000Z</time>
      </trkpt>
      <trkpt lat="43.4396" lon="6.83352">
        <ele>152.60000610352</ele>
        <time>2019-01-12T10:53:28.000Z</time>
      </trkpt>
      <trkpt lat="43.43962" lon="6.83351">
        <ele>152.19999694824</ele>
        <time>2019-01-12T10:53:26.000Z</time>
      </trkpt>
      <trkpt lat="43.43965" lon="6.83348">
        <ele>151</ele>
        <time>2019-01-12T10:53:20.000Z</time>
      </trkpt>
      <trkpt lat="43.43967" lon="6.83347">
        <ele>150.80000305176</ele>
        <time>2019-01-12T10:53:18.000Z</time>
      </trkpt>
      <trkpt lat="43.43969" lon="6.83346">
        <ele>150</ele>
        <time>2019-01-12T10:53:14.000Z</time>
      </trkpt>
      <trkpt lat="43.43972" lon="6.83344">
        <ele>148.80000305176</ele>
        <time>2019-01-12T10:53:09.000Z</time>
      </trkpt>
      <trkpt lat="43.43973" lon="6.83344">
        <ele>148.80000305176</ele>
        <time>2019-01-12T10:53:08.000Z</time>
      </trkpt>
      <trkpt lat="43.43977" lon="6.83341">
        <ele>147.60000610352</ele>
        <time>2019-01-12T10:53:01.000Z</time>
      </trkpt>
      <trkpt lat="43.43978" lon="6.83341">
        <ele>147.39999389648</ele>
        <time>2019-01-12T10:53:00.000Z</time>
      </trkpt>
      <trkpt lat="43.43979" lon="6.83339">
        <ele>146.60000610352</ele>
        <time>2019-01-12T10:52:56.000Z</time>
      </trkpt>
      <trkpt lat="43.4398" lon="6.83338">
        <ele>146.39999389648</ele>
        <time>2019-01-12T10:52:54.000Z</time>
      </trkpt>
      <trkpt lat="43.43983" lon="6.83339">
        <ele>145.60000610352</ele>
        <time>2019-01-12T10:52:49.000Z</time>
      </trkpt>
      <trkpt lat="43.43983" lon="6.83339">
        <ele>145.19999694824</ele>
        <time>2019-01-12T10:52:46.000Z</time>
      </trkpt>
      <trkpt lat="43.43984" lon="6.8334">
        <ele>144.60000610352</ele>
        <time>2019-01-12T10:52:44.000Z</time>
      </trkpt>
      <trkpt lat="43.43986" lon="6.8334">
        <ele>143.60000610352</ele>
        <time>2019-01-12T10:52:37.000Z</time>
      </trkpt>
      <trkpt lat="43.43987" lon="6.8334">
        <ele>143.39999389648</ele>
        <time>2019-01-12T10:52:36.000Z</time>
      </trkpt>
      <trkpt lat="43.43989" lon="6.83341">
        <ele>142.19999694824</ele>
        <time>2019-01-12T10:52:29.000Z</time>
      </trkpt>
      <trkpt lat="43.4399" lon="6.83341">
        <ele>142</ele>
        <time>2019-01-12T10:52:28.000Z</time>
      </trkpt>
      <trkpt lat="43.43991" lon="6.83342">
        <ele>141.19999694824</ele>
        <time>2019-01-12T10:52:24.000Z</time>
      </trkpt>
      <trkpt lat="43.43993" lon="6.83342">
        <ele>140.39999389648</ele>
        <time>2019-01-12T10:52:20.000Z</time>
      </trkpt>
      <trkpt lat="43.43994" lon="6.83343">
        <ele>140</ele>
        <time>2019-01-12T10:52:16.000Z</time>
      </trkpt>
      <trkpt lat="43.43996" lon="6.83344">
        <ele>139</ele>
        <time>2019-01-12T10:52:11.000Z</time>
      </trkpt>
      <trkpt lat="43.43997" lon="6.83344">
        <ele>138.80000305176</ele>
        <time>2019-01-12T10:52:10.000Z</time>
      </trkpt>
      <trkpt lat="43.44" lon="6.83345">
        <ele>137.60000610352</ele>
        <time>2019-01-12T10:52:04.000Z</time>
      </trkpt>
      <trkpt lat="43.44" lon="6.83345">
        <ele>137.19999694824</ele>
        <time>2019-01-12T10:52:03.000Z</time>
      </trkpt>
      <trkpt lat="43.44004" lon="6.83347">
        <ele>136.19999694824</ele>
        <time>2019-01-12T10:51:56.000Z</time>
      </trkpt>
      <trkpt lat="43.44004" lon="6.83347">
        <ele>136.19999694824</ele>
        <time>2019-01-12T10:51:55.000Z</time>
      </trkpt>
      <trkpt lat="43.44005" lon="6.83348">
        <ele>135.19999694824</ele>
        <time>2019-01-12T10:51:50.000Z</time>
      </trkpt>
      <trkpt lat="43.44007" lon="6.83349">
        <ele>134.80000305176</ele>
        <time>2019-01-12T10:51:48.000Z</time>
      </trkpt>
      <trkpt lat="43.4401" lon="6.8335">
        <ele>134.19999694824</ele>
        <time>2019-01-12T10:51:43.000Z</time>
      </trkpt>
      <trkpt lat="43.4401" lon="6.83351">
        <ele>133.80000305176</ele>
        <time>2019-01-12T10:51:42.000Z</time>
      </trkpt>
      <trkpt lat="43.44011" lon="6.8335">
        <ele>133.19999694824</ele>
        <time>2019-01-12T10:51:40.000Z</time>
      </trkpt>
      <trkpt lat="43.44018" lon="6.83355">
        <ele>132</ele>
        <time>2019-01-12T10:51:34.000Z</time>
      </trkpt>
      <trkpt lat="43.4402" lon="6.83355">
        <ele>131.60000610352</ele>
        <time>2019-01-12T10:51:33.000Z</time>
      </trkpt>
      <trkpt lat="43.44026" lon="6.83357">
        <ele>131.19999694824</ele>
        <time>2019-01-12T10:51:29.000Z</time>
      </trkpt>
      <trkpt lat="43.44031" lon="6.83358">
        <ele>131.39999389648</ele>
        <time>2019-01-12T10:51:27.000Z</time>
      </trkpt>
      <trkpt lat="43.44039" lon="6.83361">
        <ele>131.80000305176</ele>
        <time>2019-01-12T10:51:25.000Z</time>
      </trkpt>
      <trkpt lat="43.44044" lon="6.83362">
        <ele>132</ele>
        <time>2019-01-12T10:51:24.000Z</time>
      </trkpt>
      <trkpt lat="43.44066" lon="6.83365">
        <ele>133.19999694824</ele>
        <time>2019-01-12T10:51:20.000Z</time>
      </trkpt>
      <trkpt lat="43.44075" lon="6.83365">
        <ele>133.60000610352</ele>
        <time>2019-01-12T10:51:18.000Z</time>
      </trkpt>
      <trkpt lat="43.44083" lon="6.83363">
        <ele>133.60000610352</ele>
        <time>2019-01-12T10:51:15.000Z</time>
      </trkpt>
      <trkpt lat="43.44086" lon="6.83362">
        <ele>133.80000305176</ele>
        <time>2019-01-12T10:51:13.000Z</time>
      </trkpt>
      <trkpt lat="43.44089" lon="6.83362">
        <ele>133.60000610352</ele>
        <time>2019-01-12T10:51:08.000Z</time>
      </trkpt>
      <trkpt lat="43.44094" lon="6.83359">
        <ele>133.39999389648</ele>
        <time>2019-01-12T10:51:02.000Z</time>
      </trkpt>
      <trkpt lat="43.44107" lon="6.83354">
        <ele>133.19999694824</ele>
        <time>2019-01-12T10:50:55.000Z</time>
      </trkpt>
      <trkpt lat="43.44109" lon="6.83353">
        <ele>133.19999694824</ele>
        <time>2019-01-12T10:50:54.000Z</time>
      </trkpt>
      <trkpt lat="43.44117" lon="6.83351">
        <ele>132</ele>
        <time>2019-01-12T10:50:48.000Z</time>
      </trkpt>
      <trkpt lat="43.44118" lon="6.8335">
        <ele>132</ele>
        <time>2019-01-12T10:50:47.000Z</time>
      </trkpt>
      <trkpt lat="43.44125" lon="6.83346">
        <ele>131</ele>
        <time>2019-01-12T10:50:42.000Z</time>
      </trkpt>
      <trkpt lat="43.4413" lon="6.83343">
        <ele>129.80000305176</ele>
        <time>2019-01-12T10:50:38.000Z</time>
      </trkpt>
      <trkpt lat="43.44132" lon="6.8334">
        <ele>129.19999694824</ele>
        <time>2019-01-12T10:50:36.000Z</time>
      </trkpt>
      <trkpt lat="43.44137" lon="6.83337">
        <ele>128.60000610352</ele>
        <time>2019-01-12T10:50:32.000Z</time>
      </trkpt>
      <trkpt lat="43.44141" lon="6.83335">
        <ele>128.39999389648</ele>
        <time>2019-01-12T10:50:29.000Z</time>
      </trkpt>
      <trkpt lat="43.44147" lon="6.83333">
        <ele>127.59999847412</ele>
        <time>2019-01-12T10:50:23.000Z</time>
      </trkpt>
      <trkpt lat="43.44149" lon="6.83333">
        <ele>127.59999847412</ele>
        <time>2019-01-12T10:50:20.000Z</time>
      </trkpt>
      <trkpt lat="43.44148" lon="6.83333">
        <ele>127.19999694824</ele>
        <time>2019-01-12T10:50:18.000Z</time>
      </trkpt>
      <trkpt lat="43.44153" lon="6.83332">
        <ele>126.40000152588</ele>
        <time>2019-01-12T10:50:12.000Z</time>
      </trkpt>
      <trkpt lat="43.44155" lon="6.83332">
        <ele>125.80000305176</ele>
        <time>2019-01-12T10:50:09.000Z</time>
      </trkpt>
      <trkpt lat="43.44156" lon="6.83332">
        <ele>125.40000152588</ele>
        <time>2019-01-12T10:50:07.000Z</time>
      </trkpt>
      <trkpt lat="43.44159" lon="6.83332">
        <ele>124.40000152588</ele>
        <time>2019-01-12T10:50:03.000Z</time>
      </trkpt>
      <trkpt lat="43.4416" lon="6.83332">
        <ele>123.80000305176</ele>
        <time>2019-01-12T10:50:00.000Z</time>
      </trkpt>
      <trkpt lat="43.44161" lon="6.83332">
        <ele>123.19999694824</ele>
        <time>2019-01-12T10:49:56.000Z</time>
      </trkpt>
      <trkpt lat="43.44164" lon="6.83332">
        <ele>122.59999847412</ele>
        <time>2019-01-12T10:49:51.000Z</time>
      </trkpt>
      <trkpt lat="43.44164" lon="6.83332">
        <ele>122.19999694824</ele>
        <time>2019-01-12T10:49:48.000Z</time>
      </trkpt>
      <trkpt lat="43.44166" lon="6.83332">
        <ele>121</ele>
        <time>2019-01-12T10:49:43.000Z</time>
      </trkpt>
      <trkpt lat="43.4417" lon="6.83332">
        <ele>120</ele>
        <time>2019-01-12T10:49:37.000Z</time>
      </trkpt>
      <trkpt lat="43.4417" lon="6.83332">
        <ele>119.80000305176</ele>
        <time>2019-01-12T10:49:36.000Z</time>
      </trkpt>
      <trkpt lat="43.44173" lon="6.83332">
        <ele>118.80000305176</ele>
        <time>2019-01-12T10:49:29.000Z</time>
      </trkpt>
      <trkpt lat="43.44175" lon="6.83332">
        <ele>117.59999847412</ele>
        <time>2019-01-12T10:49:26.000Z</time>
      </trkpt>
      <trkpt lat="43.44179" lon="6.83332">
        <ele>116.40000152588</ele>
        <time>2019-01-12T10:49:22.000Z</time>
      </trkpt>
      <trkpt lat="43.44188" lon="6.83331">
        <ele>115.19999694824</ele>
        <time>2019-01-12T10:49:16.000Z</time>
      </trkpt>
      <trkpt lat="43.4419" lon="6.83331">
        <ele>115.19999694824</ele>
        <time>2019-01-12T10:49:15.000Z</time>
      </trkpt>
      <trkpt lat="43.44198" lon="6.83325">
        <ele>114.19999694824</ele>
        <time>2019-01-12T10:49:09.000Z</time>
      </trkpt>
      <trkpt lat="43.44211" lon="6.83323">
        <ele>113.80000305176</ele>
        <time>2019-01-12T10:49:02.000Z</time>
      </trkpt>
      <trkpt lat="43.44215" lon="6.83322">
        <ele>113</ele>
        <time>2019-01-12T10:49:00.000Z</time>
      </trkpt>
      <trkpt lat="43.44222" lon="6.83322">
        <ele>112</ele>
        <time>2019-01-12T10:48:56.000Z</time>
      </trkpt>
      <trkpt lat="43.44229" lon="6.83326">
        <ele>112.19999694824</ele>
        <time>2019-01-12T10:48:51.000Z</time>
      </trkpt>
      <trkpt lat="43.44235" lon="6.83332">
        <ele>112.40000152588</ele>
        <time>2019-01-12T10:48:46.000Z</time>
      </trkpt>
      <trkpt lat="43.44238" lon="6.83335">
        <ele>112.40000152588</ele>
        <time>2019-01-12T10:48:34.000Z</time>
      </trkpt>
      <trkpt lat="43.44238" lon="6.83335">
        <ele>112</ele>
        <time>2019-01-12T10:48:24.000Z</time>
      </trkpt>
      <trkpt lat="43.44239" lon="6.83335">
        <ele>112.80000305176</ele>
        <time>2019-01-12T10:48:18.000Z</time>
      </trkpt>
      <trkpt lat="43.44239" lon="6.83336">
        <ele>113</ele>
        <time>2019-01-12T10:48:16.000Z</time>
      </trkpt>
      <trkpt lat="43.44239" lon="6.83333">
        <ele>113.40000152588</ele>
        <time>2019-01-12T10:48:15.000Z</time>
      </trkpt>
      <trkpt lat="43.44239" lon="6.83329">
        <ele>114.40000152588</ele>
        <time>2019-01-12T10:48:14.000Z</time>
      </trkpt>
      <trkpt lat="43.4424" lon="6.83322">
        <ele>115.40000152588</ele>
        <time>2019-01-12T10:48:12.000Z</time>
      </trkpt>
      <trkpt lat="43.44246" lon="6.83313">
        <ele>117</ele>
        <time>2019-01-12T10:48:10.000Z</time>
      </trkpt>
      <trkpt lat="43.44258" lon="6.83304">
        <ele>118.40000152588</ele>
        <time>2019-01-12T10:48:08.000Z</time>
      </trkpt>
      <trkpt lat="43.44265" lon="6.83299">
        <ele>119.19999694824</ele>
        <time>2019-01-12T10:48:07.000Z</time>
      </trkpt>
      <trkpt lat="43.44271" lon="6.83295">
        <ele>120</ele>
        <time>2019-01-12T10:48:06.000Z</time>
      </trkpt>
      <trkpt lat="43.44277" lon="6.83291">
        <ele>121.19999694824</ele>
        <time>2019-01-12T10:48:05.000Z</time>
      </trkpt>
      <trkpt lat="43.44285" lon="6.83281">
        <ele>123</ele>
        <time>2019-01-12T10:48:03.000Z</time>
      </trkpt>
      <trkpt lat="43.44289" lon="6.83276">
        <ele>124.19999694824</ele>
        <time>2019-01-12T10:48:02.000Z</time>
      </trkpt>
      <trkpt lat="43.44293" lon="6.83271">
        <ele>125.19999694824</ele>
        <time>2019-01-12T10:48:01.000Z</time>
      </trkpt>
      <trkpt lat="43.44297" lon="6.83266">
        <ele>125.80000305176</ele>
        <time>2019-01-12T10:48:00.000Z</time>
      </trkpt>
      <trkpt lat="43.44302" lon="6.83261">
        <ele>126.59999847412</ele>
        <time>2019-01-12T10:47:59.000Z</time>
      </trkpt>
      <trkpt lat="43.44305" lon="6.83257">
        <ele>127.19999694824</ele>
        <time>2019-01-12T10:47:58.000Z</time>
      </trkpt>
      <trkpt lat="43.44308" lon="6.83255">
        <ele>127.59999847412</ele>
        <time>2019-01-12T10:47:57.000Z</time>
      </trkpt>
      <trkpt lat="43.44321" lon="6.83249">
        <ele>128.80000305176</ele>
        <time>2019-01-12T10:47:52.000Z</time>
      </trkpt>
      <trkpt lat="43.44336" lon="6.83252">
        <ele>127.80000305176</ele>
        <time>2019-01-12T10:47:45.000Z</time>
      </trkpt>
      <trkpt lat="43.44347" lon="6.83254">
        <ele>127.80000305176</ele>
        <time>2019-01-12T10:47:41.000Z</time>
      </trkpt>
      <trkpt lat="43.44361" lon="6.83262">
        <ele>128.39999389648</ele>
        <time>2019-01-12T10:47:38.000Z</time>
      </trkpt>
      <trkpt lat="43.44371" lon="6.83269">
        <ele>128.60000610352</ele>
        <time>2019-01-12T10:47:36.000Z</time>
      </trkpt>
      <trkpt lat="43.44384" lon="6.83275">
        <ele>129.60000610352</ele>
        <time>2019-01-12T10:47:34.000Z</time>
      </trkpt>
      <trkpt lat="43.44397" lon="6.8328">
        <ele>130.80000305176</ele>
        <time>2019-01-12T10:47:32.000Z</time>
      </trkpt>
      <trkpt lat="43.44403" lon="6.83282">
        <ele>132</ele>
        <time>2019-01-12T10:47:31.000Z</time>
      </trkpt>
      <trkpt lat="43.44409" lon="6.83284">
        <ele>132.19999694824</ele>
        <time>2019-01-12T10:47:30.000Z</time>
      </trkpt>
      <trkpt lat="43.44423" lon="6.83288">
        <ele>133</ele>
        <time>2019-01-12T10:47:27.000Z</time>
      </trkpt>
      <trkpt lat="43.4444" lon="6.83295">
        <ele>133.39999389648</ele>
        <time>2019-01-12T10:47:21.000Z</time>
      </trkpt>
      <trkpt lat="43.44446" lon="6.83296">
        <ele>133.39999389648</ele>
        <time>2019-01-12T10:47:18.000Z</time>
      </trkpt>
      <trkpt lat="43.4445" lon="6.83299">
        <ele>133</ele>
        <time>2019-01-12T10:47:15.000Z</time>
      </trkpt>
      <trkpt lat="43.44458" lon="6.83303">
        <ele>132.39999389648</ele>
        <time>2019-01-12T10:47:09.000Z</time>
      </trkpt>
      <trkpt lat="43.4446" lon="6.83305">
        <ele>131.80000305176</ele>
        <time>2019-01-12T10:47:07.000Z</time>
      </trkpt>
      <trkpt lat="43.44461" lon="6.83306">
        <ele>131.60000610352</ele>
        <time>2019-01-12T10:47:06.000Z</time>
      </trkpt>
      <trkpt lat="43.44464" lon="6.83309">
        <ele>131.19999694824</ele>
        <time>2019-01-12T10:47:03.000Z</time>
      </trkpt>
      <trkpt lat="43.44466" lon="6.8331">
        <ele>131.19999694824</ele>
        <time>2019-01-12T10:47:01.000Z</time>
      </trkpt>
      <trkpt lat="43.44472" lon="6.83312">
        <ele>130.19999694824</ele>
        <time>2019-01-12T10:46:56.000Z</time>
      </trkpt>
      <trkpt lat="43.44475" lon="6.83312">
        <ele>129.60000610352</ele>
        <time>2019-01-12T10:46:53.000Z</time>
      </trkpt>
      <trkpt lat="43.44478" lon="6.83312">
        <ele>129.19999694824</ele>
        <time>2019-01-12T10:46:51.000Z</time>
      </trkpt>
      <trkpt lat="43.44482" lon="6.83312">
        <ele>128.39999389648</ele>
        <time>2019-01-12T10:46:47.000Z</time>
      </trkpt>
      <trkpt lat="43.44484" lon="6.83311">
        <ele>128</ele>
        <time>2019-01-12T10:46:45.000Z</time>
      </trkpt>
      <trkpt lat="43.44489" lon="6.83309">
        <ele>127</ele>
        <time>2019-01-12T10:46:40.000Z</time>
      </trkpt>
      <trkpt lat="43.44492" lon="6.83308">
        <ele>126</ele>
        <time>2019-01-12T10:46:36.000Z</time>
      </trkpt>
      <trkpt lat="43.44496" lon="6.83306">
        <ele>125.40000152588</ele>
        <time>2019-01-12T10:46:32.000Z</time>
      </trkpt>
      <trkpt lat="43.44499" lon="6.83306">
        <ele>124.80000305176</ele>
        <time>2019-01-12T10:46:29.000Z</time>
      </trkpt>
      <trkpt lat="43.44504" lon="6.83305">
        <ele>123.80000305176</ele>
        <time>2019-01-12T10:46:25.000Z</time>
      </trkpt>
      <trkpt lat="43.44505" lon="6.83305">
        <ele>123.59999847412</ele>
        <time>2019-01-12T10:46:24.000Z</time>
      </trkpt>
      <trkpt lat="43.4451" lon="6.83306">
        <ele>122.80000305176</ele>
        <time>2019-01-12T10:46:20.000Z</time>
      </trkpt>
      <trkpt lat="43.44514" lon="6.83306">
        <ele>122.19999694824</ele>
        <time>2019-01-12T10:46:17.000Z</time>
      </trkpt>
      <trkpt lat="43.44515" lon="6.83307">
        <ele>122</ele>
        <time>2019-01-12T10:46:15.000Z</time>
      </trkpt>
      <trkpt lat="43.44518" lon="6.83307">
        <ele>122.19999694824</ele>
        <time>2019-01-12T10:46:10.000Z</time>
      </trkpt>
      <trkpt lat="43.44517" lon="6.83307">
        <ele>121.59999847412</ele>
        <time>2019-01-12T10:46:05.000Z</time>
      </trkpt>
      <trkpt lat="43.44522" lon="6.83309">
        <ele>120.59999847412</ele>
        <time>2019-01-12T10:45:58.000Z</time>
      </trkpt>
      <trkpt lat="43.44524" lon="6.8331">
        <ele>119.80000305176</ele>
        <time>2019-01-12T10:45:55.000Z</time>
      </trkpt>
      <trkpt lat="43.44526" lon="6.8331">
        <ele>119.40000152588</ele>
        <time>2019-01-12T10:45:52.000Z</time>
      </trkpt>
      <trkpt lat="43.44529" lon="6.83313">
        <ele>118.40000152588</ele>
        <time>2019-01-12T10:45:45.000Z</time>
      </trkpt>
      <trkpt lat="43.4453" lon="6.83313">
        <ele>118.19999694824</ele>
        <time>2019-01-12T10:45:44.000Z</time>
      </trkpt>
      <trkpt lat="43.44533" lon="6.83314">
        <ele>117.40000152588</ele>
        <time>2019-01-12T10:45:39.000Z</time>
      </trkpt>
      <trkpt lat="43.44535" lon="6.83315">
        <ele>116.19999694824</ele>
        <time>2019-01-12T10:45:34.000Z</time>
      </trkpt>
      <trkpt lat="43.44536" lon="6.83316">
        <ele>115.80000305176</ele>
        <time>2019-01-12T10:45:32.000Z</time>
      </trkpt>
      <trkpt lat="43.44537" lon="6.83316">
        <ele>115.19999694824</ele>
        <time>2019-01-12T10:45:29.000Z</time>
      </trkpt>
      <trkpt lat="43.4454" lon="6.83318">
        <ele>114</ele>
        <time>2019-01-12T10:45:23.000Z</time>
      </trkpt>
      <trkpt lat="43.44542" lon="6.8332">
        <ele>112.80000305176</ele>
        <time>2019-01-12T10:45:17.000Z</time>
      </trkpt>
      <trkpt lat="43.44544" lon="6.83321">
        <ele>112.19999694824</ele>
        <time>2019-01-12T10:45:15.000Z</time>
      </trkpt>
      <trkpt lat="43.44545" lon="6.83321">
        <ele>111.59999847412</ele>
        <time>2019-01-12T10:45:10.000Z</time>
      </trkpt>
      <trkpt lat="43.44547" lon="6.83322">
        <ele>110.80000305176</ele>
        <time>2019-01-12T10:45:05.000Z</time>
      </trkpt>
      <trkpt lat="43.44549" lon="6.83322">
        <ele>110.59999847412</ele>
        <time>2019-01-12T10:45:03.000Z</time>
      </trkpt>
      <trkpt lat="43.44551" lon="6.83321">
        <ele>109.59999847412</ele>
        <time>2019-01-12T10:44:58.000Z</time>
      </trkpt>
      <trkpt lat="43.44552" lon="6.83321">
        <ele>109.19999694824</ele>
        <time>2019-01-12T10:44:56.000Z</time>
      </trkpt>
      <trkpt lat="43.44555" lon="6.83322">
        <ele>108.59999847412</ele>
        <time>2019-01-12T10:44:50.000Z</time>
      </trkpt>
      <trkpt lat="43.44555" lon="6.83322">
        <ele>108.19999694824</ele>
        <time>2019-01-12T10:44:48.000Z</time>
      </trkpt>
      <trkpt lat="43.44556" lon="6.83322">
        <ele>107.59999847412</ele>
        <time>2019-01-12T10:44:45.000Z</time>
      </trkpt>
      <trkpt lat="43.44559" lon="6.83322">
        <ele>106.59999847412</ele>
        <time>2019-01-12T10:44:40.000Z</time>
      </trkpt>
      <trkpt lat="43.44561" lon="6.83322">
        <ele>105.59999847412</ele>
        <time>2019-01-12T10:44:36.000Z</time>
      </trkpt>
      <trkpt lat="43.44562" lon="6.83322">
        <ele>105.40000152588</ele>
        <time>2019-01-12T10:44:35.000Z</time>
      </trkpt>
      <trkpt lat="43.44565" lon="6.83323">
        <ele>104.40000152588</ele>
        <time>2019-01-12T10:44:28.000Z</time>
      </trkpt>
      <trkpt lat="43.44566" lon="6.83323">
        <ele>104.19999694824</ele>
        <time>2019-01-12T10:44:27.000Z</time>
      </trkpt>
      <trkpt lat="43.44568" lon="6.83322">
        <ele>103.19999694824</ele>
        <time>2019-01-12T10:44:23.000Z</time>
      </trkpt>
      <trkpt lat="43.44572" lon="6.83323">
        <ele>102.19999694824</ele>
        <time>2019-01-12T10:44:17.000Z</time>
      </trkpt>
      <trkpt lat="43.44572" lon="6.83323">
        <ele>102</ele>
        <time>2019-01-12T10:44:16.000Z</time>
      </trkpt>
      <trkpt lat="43.44575" lon="6.83323">
        <ele>101.19999694824</ele>
        <time>2019-01-12T10:44:10.000Z</time>
      </trkpt>
      <trkpt lat="43.44577" lon="6.83323">
        <ele>100.59999847412</ele>
        <time>2019-01-12T10:44:07.000Z</time>
      </trkpt>
      <trkpt lat="43.44578" lon="6.83323">
        <ele>100.19999694824</ele>
        <time>2019-01-12T10:44:04.000Z</time>
      </trkpt>
      <trkpt lat="43.44582" lon="6.83323">
        <ele>99</ele>
        <time>2019-01-12T10:43:58.000Z</time>
      </trkpt>
      <trkpt lat="43.44583" lon="6.83323">
        <ele>98.800003051758</ele>
        <time>2019-01-12T10:43:57.000Z</time>
      </trkpt>
      <trkpt lat="43.44586" lon="6.83323">
        <ele>98</ele>
        <time>2019-01-12T10:43:52.000Z</time>
      </trkpt>
      <trkpt lat="43.44589" lon="6.83324">
        <ele>97</ele>
        <time>2019-01-12T10:43:48.000Z</time>
      </trkpt>
      <trkpt lat="43.44589" lon="6.83324">
        <ele>96.800003051758</ele>
        <time>2019-01-12T10:43:47.000Z</time>
      </trkpt>
      <trkpt lat="43.44593" lon="6.83324">
        <ele>95.599998474121</ele>
        <time>2019-01-12T10:43:41.000Z</time>
      </trkpt>
      <trkpt lat="43.44594" lon="6.83324">
        <ele>95.199996948242</ele>
        <time>2019-01-12T10:43:39.000Z</time>
      </trkpt>
      <trkpt lat="43.44596" lon="6.83325">
        <ele>94.599998474121</ele>
        <time>2019-01-12T10:43:35.000Z</time>
      </trkpt>
      <trkpt lat="43.44598" lon="6.83325">
        <ele>93.400001525879</ele>
        <time>2019-01-12T10:43:29.000Z</time>
      </trkpt>
      <trkpt lat="43.44601" lon="6.83327">
        <ele>92.400001525879</ele>
        <time>2019-01-12T10:43:23.000Z</time>
      </trkpt>
      <trkpt lat="43.44602" lon="6.83328">
        <ele>92</ele>
        <time>2019-01-12T10:43:21.000Z</time>
      </trkpt>
      <trkpt lat="43.44605" lon="6.83327">
        <ele>91.199996948242</ele>
        <time>2019-01-12T10:43:17.000Z</time>
      </trkpt>
      <trkpt lat="43.44607" lon="6.83327">
        <ele>90.599998474121</ele>
        <time>2019-01-12T10:43:10.000Z</time>
      </trkpt>
      <trkpt lat="43.44608" lon="6.83327">
        <ele>90.199996948242</ele>
        <time>2019-01-12T10:43:08.000Z</time>
      </trkpt>
      <trkpt lat="43.4461" lon="6.83326">
        <ele>89</ele>
        <time>2019-01-12T10:43:02.000Z</time>
      </trkpt>
      <trkpt lat="43.44616" lon="6.83325">
        <ele>88</ele>
        <time>2019-01-12T10:42:55.000Z</time>
      </trkpt>
      <trkpt lat="43.44619" lon="6.83325">
        <ele>87.400001525879</ele>
        <time>2019-01-12T10:42:51.000Z</time>
      </trkpt>
      <trkpt lat="43.4462" lon="6.83325">
        <ele>87</ele>
        <time>2019-01-12T10:42:49.000Z</time>
      </trkpt>
      <trkpt lat="43.44624" lon="6.83326">
        <ele>85.800003051758</ele>
        <time>2019-01-12T10:42:42.000Z</time>
      </trkpt>
      <trkpt lat="43.44625" lon="6.83326">
        <ele>85.400001525879</ele>
        <time>2019-01-12T10:42:40.000Z</time>
      </trkpt>
      <trkpt lat="43.44627" lon="6.83326">
        <ele>84.599998474121</ele>
        <time>2019-01-12T10:42:37.000Z</time>
      </trkpt>
      <trkpt lat="43.4463" lon="6.83326">
        <ele>84</ele>
        <time>2019-01-12T10:42:33.000Z</time>
      </trkpt>
      <trkpt lat="43.44632" lon="6.83325">
        <ele>83.599998474121</ele>
        <time>2019-01-12T10:42:28.000Z</time>
      </trkpt>
      <trkpt lat="43.44635" lon="6.83325">
        <ele>82.800003051758</ele>
        <time>2019-01-12T10:42:24.000Z</time>
      </trkpt>
      <trkpt lat="43.44636" lon="6.83325">
        <ele>82.400001525879</ele>
        <time>2019-01-12T10:42:23.000Z</time>
      </trkpt>
      <trkpt lat="43.4464" lon="6.83323">
        <ele>81.199996948242</ele>
        <time>2019-01-12T10:42:18.000Z</time>
      </trkpt>
      <trkpt lat="43.4464" lon="6.83323">
        <ele>81</ele>
        <time>2019-01-12T10:42:17.000Z</time>
      </trkpt>
      <trkpt lat="43.44643" lon="6.83321">
        <ele>80.199996948242</ele>
        <time>2019-01-12T10:42:10.000Z</time>
      </trkpt>
      <trkpt lat="43.44644" lon="6.83321">
        <ele>79.800003051758</ele>
        <time>2019-01-12T10:42:09.000Z</time>
      </trkpt>
      <trkpt lat="43.44646" lon="6.83322">
        <ele>79</ele>
        <time>2019-01-12T10:42:05.000Z</time>
      </trkpt>
      <trkpt lat="43.44648" lon="6.83321">
        <ele>77.800003051758</ele>
        <time>2019-01-12T10:42:00.000Z</time>
      </trkpt>
      <trkpt lat="43.44649" lon="6.83321">
        <ele>77.800003051758</ele>
        <time>2019-01-12T10:41:59.000Z</time>
      </trkpt>
      <trkpt lat="43.44651" lon="6.83323">
        <ele>76.800003051758</ele>
        <time>2019-01-12T10:41:53.000Z</time>
      </trkpt>
      <trkpt lat="43.44652" lon="6.83323">
        <ele>76.199996948242</ele>
        <time>2019-01-12T10:41:50.000Z</time>
      </trkpt>
      <trkpt lat="43.44654" lon="6.83323">
        <ele>75.800003051758</ele>
        <time>2019-01-12T10:41:48.000Z</time>
      </trkpt>
      <trkpt lat="43.44656" lon="6.83323">
        <ele>74.599998474121</ele>
        <time>2019-01-12T10:41:42.000Z</time>
      </trkpt>
      <trkpt lat="43.44657" lon="6.83323">
        <ele>74.400001525879</ele>
        <time>2019-01-12T10:41:40.000Z</time>
      </trkpt>
      <trkpt lat="43.44658" lon="6.83323">
        <ele>73.599998474121</ele>
        <time>2019-01-12T10:41:36.000Z</time>
      </trkpt>
      <trkpt lat="43.44659" lon="6.83323">
        <ele>73.199996948242</ele>
        <time>2019-01-12T10:41:34.000Z</time>
      </trkpt>
      <trkpt lat="43.44662" lon="6.83324">
        <ele>72.599998474121</ele>
        <time>2019-01-12T10:41:30.000Z</time>
      </trkpt>
      <trkpt lat="43.44663" lon="6.83324">
        <ele>72</ele>
        <time>2019-01-12T10:41:28.000Z</time>
      </trkpt>
      <trkpt lat="43.44664" lon="6.83324">
        <ele>71.400001525879</ele>
        <time>2019-01-12T10:41:25.000Z</time>
      </trkpt>
      <trkpt lat="43.44667" lon="6.83325">
        <ele>70.599998474121</ele>
        <time>2019-01-12T10:41:20.000Z</time>
      </trkpt>
      <trkpt lat="43.44667" lon="6.83326">
        <ele>70.400001525879</ele>
        <time>2019-01-12T10:41:19.000Z</time>
      </trkpt>
      <trkpt lat="43.44671" lon="6.83327">
        <ele>69.199996948242</ele>
        <time>2019-01-12T10:41:13.000Z</time>
      </trkpt>
      <trkpt lat="43.44672" lon="6.83327">
        <ele>69</ele>
        <time>2019-01-12T10:41:12.000Z</time>
      </trkpt>
      <trkpt lat="43.44676" lon="6.83327">
        <ele>68.199996948242</ele>
        <time>2019-01-12T10:41:06.000Z</time>
      </trkpt>
      <trkpt lat="43.44676" lon="6.83327">
        <ele>68.199996948242</ele>
        <time>2019-01-12T10:41:04.000Z</time>
      </trkpt>
      <trkpt lat="43.44682" lon="6.8333">
        <ele>67.400001525879</ele>
        <time>2019-01-12T10:40:59.000Z</time>
      </trkpt>
      <trkpt lat="43.44685" lon="6.83331">
        <ele>67.199996948242</ele>
        <time>2019-01-12T10:40:57.000Z</time>
      </trkpt>
      <trkpt lat="43.44694" lon="6.83329">
        <ele>66.400001525879</ele>
        <time>2019-01-12T10:40:53.000Z</time>
      </trkpt>
      <trkpt lat="43.44713" lon="6.8332">
        <ele>65.199996948242</ele>
        <time>2019-01-12T10:40:46.000Z</time>
      </trkpt>
      <trkpt lat="43.44724" lon="6.83312">
        <ele>66.199996948242</ele>
        <time>2019-01-12T10:40:42.000Z</time>
      </trkpt>
      <trkpt lat="43.44738" lon="6.83311">
        <ele>66.599998474121</ele>
        <time>2019-01-12T10:40:38.000Z</time>
      </trkpt>
      <trkpt lat="43.44751" lon="6.83321">
        <ele>65.800003051758</ele>
        <time>2019-01-12T10:40:33.000Z</time>
      </trkpt>
      <trkpt lat="43.44767" lon="6.83337">
        <ele>66.199996948242</ele>
        <time>2019-01-12T10:40:28.000Z</time>
      </trkpt>
      <trkpt lat="43.4477" lon="6.8334">
        <ele>66</ele>
        <time>2019-01-12T10:40:27.000Z</time>
      </trkpt>
      <trkpt lat="43.44776" lon="6.83349">
        <ele>66.599998474121</ele>
        <time>2019-01-12T10:40:25.000Z</time>
      </trkpt>
      <trkpt lat="43.44783" lon="6.8336">
        <ele>67.199996948242</ele>
        <time>2019-01-12T10:40:23.000Z</time>
      </trkpt>
      <trkpt lat="43.4479" lon="6.83375">
        <ele>68</ele>
        <time>2019-01-12T10:40:20.000Z</time>
      </trkpt>
      <trkpt lat="43.44812" lon="6.83404">
        <ele>67.400001525879</ele>
        <time>2019-01-12T10:40:12.000Z</time>
      </trkpt>
      <trkpt lat="43.44824" lon="6.83418">
        <ele>68.400001525879</ele>
        <time>2019-01-12T10:40:08.000Z</time>
      </trkpt>
      <trkpt lat="43.44836" lon="6.83434">
        <ele>69.199996948242</ele>
        <time>2019-01-12T10:40:04.000Z</time>
      </trkpt>
      <trkpt lat="43.44854" lon="6.83453">
        <ele>69.599998474121</ele>
        <time>2019-01-12T10:39:58.000Z</time>
      </trkpt>
      <trkpt lat="43.44863" lon="6.8346">
        <ele>69.400001525879</ele>
        <time>2019-01-12T10:39:54.000Z</time>
      </trkpt>
      <trkpt lat="43.44866" lon="6.83461">
        <ele>69.199996948242</ele>
        <time>2019-01-12T10:39:53.000Z</time>
      </trkpt>
      <trkpt lat="43.44877" lon="6.83453">
        <ele>68.599998474121</ele>
        <time>2019-01-12T10:39:47.000Z</time>
      </trkpt>
      <trkpt lat="43.44884" lon="6.83439">
        <ele>68.199996948242</ele>
        <time>2019-01-12T10:39:41.000Z</time>
      </trkpt>
      <trkpt lat="43.44886" lon="6.83436">
        <ele>67.800003051758</ele>
        <time>2019-01-12T10:39:39.000Z</time>
      </trkpt>
      <trkpt lat="43.44898" lon="6.83419">
        <ele>67.199996948242</ele>
        <time>2019-01-12T10:39:30.000Z</time>
      </trkpt>
      <trkpt lat="43.44899" lon="6.83417">
        <ele>67.199996948242</ele>
        <time>2019-01-12T10:39:29.000Z</time>
      </trkpt>
      <trkpt lat="43.44903" lon="6.83405">
        <ele>66.199996948242</ele>
        <time>2019-01-12T10:39:23.000Z</time>
      </trkpt>
      <trkpt lat="43.44904" lon="6.83403">
        <ele>66</ele>
        <time>2019-01-12T10:39:22.000Z</time>
      </trkpt>
      <trkpt lat="43.44906" lon="6.83397">
        <ele>65</ele>
        <time>2019-01-12T10:39:18.000Z</time>
      </trkpt>
      <trkpt lat="43.44908" lon="6.83394">
        <ele>64.800003051758</ele>
        <time>2019-01-12T10:39:16.000Z</time>
      </trkpt>
      <trkpt lat="43.44912" lon="6.83381">
        <ele>64</ele>
        <time>2019-01-12T10:39:09.000Z</time>
      </trkpt>
      <trkpt lat="43.44917" lon="6.83373">
        <ele>63</ele>
        <time>2019-01-12T10:39:03.000Z</time>
      </trkpt>
      <trkpt lat="43.44918" lon="6.8337">
        <ele>62.599998474121</ele>
        <time>2019-01-12T10:39:01.000Z</time>
      </trkpt>
      <trkpt lat="43.44921" lon="6.83364">
        <ele>61.799999237061</ele>
        <time>2019-01-12T10:38:57.000Z</time>
      </trkpt>
      <trkpt lat="43.44922" lon="6.83359">
        <ele>61.400001525879</ele>
        <time>2019-01-12T10:38:54.000Z</time>
      </trkpt>
      <trkpt lat="43.44924" lon="6.83354">
        <ele>60.799999237061</ele>
        <time>2019-01-12T10:38:51.000Z</time>
      </trkpt>
      <trkpt lat="43.44926" lon="6.8335">
        <ele>59.799999237061</ele>
        <time>2019-01-12T10:38:48.000Z</time>
      </trkpt>
      <trkpt lat="43.44926" lon="6.83348">
        <ele>59.599998474121</ele>
        <time>2019-01-12T10:38:47.000Z</time>
      </trkpt>
      <trkpt lat="43.44928" lon="6.83341">
        <ele>58.599998474121</ele>
        <time>2019-01-12T10:38:42.000Z</time>
      </trkpt>
      <trkpt lat="43.44929" lon="6.83334">
        <ele>57.599998474121</ele>
        <time>2019-01-12T10:38:38.000Z</time>
      </trkpt>
      <trkpt lat="43.44932" lon="6.83323">
        <ele>56.599998474121</ele>
        <time>2019-01-12T10:38:31.000Z</time>
      </trkpt>
      <trkpt lat="43.44933" lon="6.83318">
        <ele>55.599998474121</ele>
        <time>2019-01-12T10:38:28.000Z</time>
      </trkpt>
      <trkpt lat="43.44935" lon="6.83316">
        <ele>54.799999237061</ele>
        <time>2019-01-12T10:38:26.000Z</time>
      </trkpt>
      <trkpt lat="43.44941" lon="6.83313">
        <ele>54.400001525879</ele>
        <time>2019-01-12T10:38:21.000Z</time>
      </trkpt>
      <trkpt lat="43.44943" lon="6.83313">
        <ele>53.799999237061</ele>
        <time>2019-01-12T10:38:19.000Z</time>
      </trkpt>
      <trkpt lat="43.44952" lon="6.83318">
        <ele>53.200000762939</ele>
        <time>2019-01-12T10:38:12.000Z</time>
      </trkpt>
      <trkpt lat="43.44957" lon="6.83323">
        <ele>52</ele>
        <time>2019-01-12T10:38:07.000Z</time>
      </trkpt>
      <trkpt lat="43.44959" lon="6.83326">
        <ele>51.599998474121</ele>
        <time>2019-01-12T10:38:05.000Z</time>
      </trkpt>
      <trkpt lat="43.44961" lon="6.83329">
        <ele>50.799999237061</ele>
        <time>2019-01-12T10:38:02.000Z</time>
      </trkpt>
      <trkpt lat="43.44963" lon="6.83335">
        <ele>50.200000762939</ele>
        <time>2019-01-12T10:37:58.000Z</time>
      </trkpt>
      <trkpt lat="43.44963" lon="6.83338">
        <ele>49.599998474121</ele>
        <time>2019-01-12T10:37:56.000Z</time>
      </trkpt>
      <trkpt lat="43.44966" lon="6.83349">
        <ele>48.599998474121</ele>
        <time>2019-01-12T10:37:50.000Z</time>
      </trkpt>
      <trkpt lat="43.44969" lon="6.83356">
        <ele>47.400001525879</ele>
        <time>2019-01-12T10:37:45.000Z</time>
      </trkpt>
      <trkpt lat="43.4497" lon="6.8336">
        <ele>47</ele>
        <time>2019-01-12T10:37:43.000Z</time>
      </trkpt>
      <trkpt lat="43.44975" lon="6.83367">
        <ele>46.200000762939</ele>
        <time>2019-01-12T10:37:38.000Z</time>
      </trkpt>
      <trkpt lat="43.44976" lon="6.83368">
        <ele>46</ele>
        <time>2019-01-12T10:37:37.000Z</time>
      </trkpt>
      <trkpt lat="43.44983" lon="6.83366">
        <ele>45</ele>
        <time>2019-01-12T10:37:33.000Z</time>
      </trkpt>
      <trkpt lat="43.44985" lon="6.83364">
        <ele>44.599998474121</ele>
        <time>2019-01-12T10:37:31.000Z</time>
      </trkpt>
      <trkpt lat="43.44987" lon="6.83357">
        <ele>44</ele>
        <time>2019-01-12T10:37:27.000Z</time>
      </trkpt>
      <trkpt lat="43.44988" lon="6.83352">
        <ele>43.599998474121</ele>
        <time>2019-01-12T10:37:25.000Z</time>
      </trkpt>
      <trkpt lat="43.44992" lon="6.83344">
        <ele>42.799999237061</ele>
        <time>2019-01-12T10:37:20.000Z</time>
      </trkpt>
      <trkpt lat="43.44994" lon="6.83341">
        <ele>42.599998474121</ele>
        <time>2019-01-12T10:37:18.000Z</time>
      </trkpt>
      <trkpt lat="43.44996" lon="6.83334">
        <ele>41.799999237061</ele>
        <time>2019-01-12T10:37:14.000Z</time>
      </trkpt>
      <trkpt lat="43.44999" lon="6.83326">
        <ele>40.599998474121</ele>
        <time>2019-01-12T10:37:09.000Z</time>
      </trkpt>
      <trkpt lat="43.45" lon="6.83324">
        <ele>40.200000762939</ele>
        <time>2019-01-12T10:37:08.000Z</time>
      </trkpt>
      <trkpt lat="43.45002" lon="6.83317">
        <ele>39.200000762939</ele>
        <time>2019-01-12T10:37:04.000Z</time>
      </trkpt>
      <trkpt lat="43.45004" lon="6.83311">
        <ele>38.400001525879</ele>
        <time>2019-01-12T10:37:01.000Z</time>
      </trkpt>
      <trkpt lat="43.45005" lon="6.83308">
        <ele>38</ele>
        <time>2019-01-12T10:37:00.000Z</time>
      </trkpt>
      <trkpt lat="43.45006" lon="6.83292">
        <ele>36.799999237061</ele>
        <time>2019-01-12T10:36:54.000Z</time>
      </trkpt>
      <trkpt lat="43.45012" lon="6.83281">
        <ele>36.599998474121</ele>
        <time>2019-01-12T10:36:49.000Z</time>
      </trkpt>
      <trkpt lat="43.45014" lon="6.83274">
        <ele>37</ele>
        <time>2019-01-12T10:36:46.000Z</time>
      </trkpt>
      <trkpt lat="43.45014" lon="6.8327">
        <ele>37.400001525879</ele>
        <time>2019-01-12T10:36:44.000Z</time>
      </trkpt>
      <trkpt lat="43.45015" lon="6.83264">
        <ele>37.799999237061</ele>
        <time>2019-01-12T10:36:41.000Z</time>
      </trkpt>
      <trkpt lat="43.4502" lon="6.8323">
        <ele>38.200000762939</ele>
        <time>2019-01-12T10:36:34.000Z</time>
      </trkpt>
      <trkpt lat="43.45021" lon="6.83222">
        <ele>38</ele>
        <time>2019-01-12T10:36:32.000Z</time>
      </trkpt>
      <trkpt lat="43.45025" lon="6.83208">
        <ele>37.200000762939</ele>
        <time>2019-01-12T10:36:28.000Z</time>
      </trkpt>
      <trkpt lat="43.45031" lon="6.83184">
        <ele>36.599998474121</ele>
        <time>2019-01-12T10:36:22.000Z</time>
      </trkpt>
      <trkpt lat="43.45025" lon="6.83153">
        <ele>36.200000762939</ele>
        <time>2019-01-12T10:36:15.000Z</time>
      </trkpt>
      <trkpt lat="43.45029" lon="6.83122">
        <ele>36.599998474121</ele>
        <time>2019-01-12T10:36:08.000Z</time>
      </trkpt>
      <trkpt lat="43.45033" lon="6.8309">
        <ele>36.400001525879</ele>
        <time>2019-01-12T10:36:01.000Z</time>
      </trkpt>
      <trkpt lat="43.45045" lon="6.83058">
        <ele>36.599998474121</ele>
        <time>2019-01-12T10:35:53.000Z</time>
      </trkpt>
      <trkpt lat="43.45053" lon="6.83039">
        <ele>36.599998474121</ele>
        <time>2019-01-12T10:35:48.000Z</time>
      </trkpt>
      <trkpt lat="43.45063" lon="6.83029">
        <ele>36.799999237061</ele>
        <time>2019-01-12T10:35:44.000Z</time>
      </trkpt>
      <trkpt lat="43.45075" lon="6.83028">
        <ele>36.400001525879</ele>
        <time>2019-01-12T10:35:38.000Z</time>
      </trkpt>
      <trkpt lat="43.4508" lon="6.83035">
        <ele>36.400001525879</ele>
        <time>2019-01-12T10:35:33.000Z</time>
      </trkpt>
      <trkpt lat="43.45085" lon="6.83045">
        <ele>36.400001525879</ele>
        <time>2019-01-12T10:35:28.000Z</time>
      </trkpt>
      <trkpt lat="43.45091" lon="6.83053">
        <ele>36.599998474121</ele>
        <time>2019-01-12T10:35:22.000Z</time>
      </trkpt>
      <trkpt lat="43.45093" lon="6.83055">
        <ele>36.799999237061</ele>
        <time>2019-01-12T10:35:20.000Z</time>
      </trkpt>
      <trkpt lat="43.45098" lon="6.83062">
        <ele>37.400001525879</ele>
        <time>2019-01-12T10:35:16.000Z</time>
      </trkpt>
      <trkpt lat="43.45101" lon="6.83067">
        <ele>38</ele>
        <time>2019-01-12T10:35:12.000Z</time>
      </trkpt>
      <trkpt lat="43.45102" lon="6.83069">
        <ele>38.400001525879</ele>
        <time>2019-01-12T10:35:11.000Z</time>
      </trkpt>
      <trkpt lat="43.45111" lon="6.8309">
        <ele>39</ele>
        <time>2019-01-12T10:35:06.000Z</time>
      </trkpt>
      <trkpt lat="43.45114" lon="6.83099">
        <ele>39.200000762939</ele>
        <time>2019-01-12T10:35:04.000Z</time>
      </trkpt>
      <trkpt lat="43.45116" lon="6.83131">
        <ele>38.599998474121</ele>
        <time>2019-01-12T10:34:57.000Z</time>
      </trkpt>
      <trkpt lat="43.45127" lon="6.83174">
        <ele>37.599998474121</ele>
        <time>2019-01-12T10:34:46.000Z</time>
      </trkpt>
      <trkpt lat="43.45137" lon="6.83201">
        <ele>37.200000762939</ele>
        <time>2019-01-12T10:34:38.000Z</time>
      </trkpt>
      <trkpt lat="43.45139" lon="6.83211">
        <ele>37.400001525879</ele>
        <time>2019-01-12T10:34:35.000Z</time>
      </trkpt>
      <trkpt lat="43.45142" lon="6.83213">
        <ele>37.400001525879</ele>
        <time>2019-01-12T10:34:34.000Z</time>
      </trkpt>
      <trkpt lat="43.45144" lon="6.8321">
        <ele>37.599998474121</ele>
        <time>2019-01-12T10:34:33.000Z</time>
      </trkpt>
      <trkpt lat="43.45141" lon="6.83196">
        <ele>37.599998474121</ele>
        <time>2019-01-12T10:34:30.000Z</time>
      </trkpt>
      <trkpt lat="43.45137" lon="6.83188">
        <ele>37.599998474121</ele>
        <time>2019-01-12T10:34:28.000Z</time>
      </trkpt>
      <trkpt lat="43.45135" lon="6.83181">
        <ele>37.599998474121</ele>
        <time>2019-01-12T10:34:26.000Z</time>
      </trkpt>
      <trkpt lat="43.45137" lon="6.83178">
        <ele>38.200000762939</ele>
        <time>2019-01-12T10:34:24.000Z</time>
      </trkpt>
      <trkpt lat="43.45143" lon="6.83173">
        <ele>39.200000762939</ele>
        <time>2019-01-12T10:34:20.000Z</time>
      </trkpt>
      <trkpt lat="43.45147" lon="6.83172">
        <ele>39.200000762939</ele>
        <time>2019-01-12T10:34:19.000Z</time>
      </trkpt>
      <trkpt lat="43.45155" lon="6.83169">
        <ele>40.200000762939</ele>
        <time>2019-01-12T10:34:17.000Z</time>
      </trkpt>
      <trkpt lat="43.45159" lon="6.8317">
        <ele>40.599998474121</ele>
        <time>2019-01-12T10:34:16.000Z</time>
      </trkpt>
      <trkpt lat="43.45162" lon="6.83175">
        <ele>41.799999237061</ele>
        <time>2019-01-12T10:34:15.000Z</time>
      </trkpt>
      <trkpt lat="43.45166" lon="6.83182">
        <ele>43</ele>
        <time>2019-01-12T10:34:14.000Z</time>
      </trkpt>
      <trkpt lat="43.45168" lon="6.83191">
        <ele>44</ele>
        <time>2019-01-12T10:34:13.000Z</time>
      </trkpt>
      <trkpt lat="43.45171" lon="6.832">
        <ele>44.799999237061</ele>
        <time>2019-01-12T10:34:12.000Z</time>
      </trkpt>
      <trkpt lat="43.45177" lon="6.83208">
        <ele>45.799999237061</ele>
        <time>2019-01-12T10:34:11.000Z</time>
      </trkpt>
      <trkpt lat="43.45183" lon="6.83215">
        <ele>46.400001525879</ele>
        <time>2019-01-12T10:34:10.000Z</time>
      </trkpt>
      <trkpt lat="43.45192" lon="6.8322">
        <ele>47.400001525879</ele>
        <time>2019-01-12T10:34:09.000Z</time>
      </trkpt>
      <trkpt lat="43.45201" lon="6.83224">
        <ele>48.200000762939</ele>
        <time>2019-01-12T10:34:08.000Z</time>
      </trkpt>
      <trkpt lat="43.45221" lon="6.83225">
        <ele>50.200000762939</ele>
        <time>2019-01-12T10:34:06.000Z</time>
      </trkpt>
      <trkpt lat="43.4524" lon="6.83224">
        <ele>52</ele>
        <time>2019-01-12T10:34:04.000Z</time>
      </trkpt>
      <trkpt lat="43.45249" lon="6.83226">
        <ele>53.200000762939</ele>
        <time>2019-01-12T10:34:03.000Z</time>
      </trkpt>
      <trkpt lat="43.45256" lon="6.8323">
        <ele>54.200000762939</ele>
        <time>2019-01-12T10:34:02.000Z</time>
      </trkpt>
      <trkpt lat="43.45271" lon="6.8324">
        <ele>56</ele>
        <time>2019-01-12T10:34:00.000Z</time>
      </trkpt>
      <trkpt lat="43.45279" lon="6.83245">
        <ele>57</ele>
        <time>2019-01-12T10:33:59.000Z</time>
      </trkpt>
      <trkpt lat="43.45289" lon="6.8325">
        <ele>58.400001525879</ele>
        <time>2019-01-12T10:33:58.000Z</time>
      </trkpt>
      <trkpt lat="43.45307" lon="6.8326">
        <ele>60.599998474121</ele>
        <time>2019-01-12T10:33:56.000Z</time>
      </trkpt>
      <trkpt lat="43.45325" lon="6.83271">
        <ele>62.200000762939</ele>
        <time>2019-01-12T10:33:54.000Z</time>
      </trkpt>
      <trkpt lat="43.45349" lon="6.83279">
        <ele>63.599998474121</ele>
        <time>2019-01-12T10:33:51.000Z</time>
      </trkpt>
      <trkpt lat="43.45357" lon="6.83279">
        <ele>64.199996948242</ele>
        <time>2019-01-12T10:33:50.000Z</time>
      </trkpt>
      <trkpt lat="43.45386" lon="6.8327">
        <ele>65.400001525879</ele>
        <time>2019-01-12T10:33:45.000Z</time>
      </trkpt>
      <trkpt lat="43.4541" lon="6.8326">
        <ele>65.400001525879</ele>
        <time>2019-01-12T10:33:38.000Z</time>
      </trkpt>
      <trkpt lat="43.45434" lon="6.8325">
        <ele>64.800003051758</ele>
        <time>2019-01-12T10:33:30.000Z</time>
      </trkpt>
      <trkpt lat="43.45452" lon="6.83241">
        <ele>64.199996948242</ele>
        <time>2019-01-12T10:33:24.000Z</time>
      </trkpt>
      <trkpt lat="43.45456" lon="6.83239">
        <ele>64.199996948242</ele>
        <time>2019-01-12T10:33:23.000Z</time>
      </trkpt>
      <trkpt lat="43.45468" lon="6.83231">
        <ele>64.400001525879</ele>
        <time>2019-01-12T10:33:19.000Z</time>
      </trkpt>
      <trkpt lat="43.45476" lon="6.83222">
        <ele>64.800003051758</ele>
        <time>2019-01-12T10:33:17.000Z</time>
      </trkpt>
      <trkpt lat="43.45486" lon="6.83202">
        <ele>65.199996948242</ele>
        <time>2019-01-12T10:33:13.000Z</time>
      </trkpt>
      <trkpt lat="43.45496" lon="6.83168">
        <ele>65.400001525879</ele>
        <time>2019-01-12T10:33:05.000Z</time>
      </trkpt>
      <trkpt lat="43.45502" lon="6.83142">
        <ele>64.800003051758</ele>
        <time>2019-01-12T10:32:57.000Z</time>
      </trkpt>
      <trkpt lat="43.45509" lon="6.83107">
        <ele>63.799999237061</ele>
        <time>2019-01-12T10:32:45.000Z</time>
      </trkpt>
      <trkpt lat="43.45509" lon="6.83105">
        <ele>63.599998474121</ele>
        <time>2019-01-12T10:32:44.000Z</time>
      </trkpt>
      <trkpt lat="43.45513" lon="6.83091">
        <ele>62.799999237061</ele>
        <time>2019-01-12T10:32:39.000Z</time>
      </trkpt>
      <trkpt lat="43.45516" lon="6.83074">
        <ele>62.200000762939</ele>
        <time>2019-01-12T10:32:33.000Z</time>
      </trkpt>
      <trkpt lat="43.4552" lon="6.83059">
        <ele>61.799999237061</ele>
        <time>2019-01-12T10:32:28.000Z</time>
      </trkpt>
      <trkpt lat="43.45524" lon="6.83045">
        <ele>61.200000762939</ele>
        <time>2019-01-12T10:32:23.000Z</time>
      </trkpt>
      <trkpt lat="43.45525" lon="6.83037">
        <ele>60.599998474121</ele>
        <time>2019-01-12T10:32:20.000Z</time>
      </trkpt>
      <trkpt lat="43.45528" lon="6.8303">
        <ele>60.400001525879</ele>
        <time>2019-01-12T10:32:17.000Z</time>
      </trkpt>
      <trkpt lat="43.45535" lon="6.83026">
        <ele>60</ele>
        <time>2019-01-12T10:32:11.000Z</time>
      </trkpt>
      <trkpt lat="43.45536" lon="6.83026">
        <ele>59.799999237061</ele>
        <time>2019-01-12T10:32:10.000Z</time>
      </trkpt>
      <trkpt lat="43.45538" lon="6.83025">
        <ele>59.599998474121</ele>
        <time>2019-01-12T10:32:09.000Z</time>
      </trkpt>
      <trkpt lat="43.4554" lon="6.83022">
        <ele>59</ele>
        <time>2019-01-12T10:32:07.000Z</time>
      </trkpt>
      <trkpt lat="43.45541" lon="6.8302">
        <ele>58.400001525879</ele>
        <time>2019-01-12T10:32:05.000Z</time>
      </trkpt>
      <trkpt lat="43.45543" lon="6.83018">
        <ele>57.799999237061</ele>
        <time>2019-01-12T10:32:03.000Z</time>
      </trkpt>
      <trkpt lat="43.45545" lon="6.83015">
        <ele>57.200000762939</ele>
        <time>2019-01-12T10:32:01.000Z</time>
      </trkpt>
      <trkpt lat="43.45547" lon="6.83011">
        <ele>56.599998474121</ele>
        <time>2019-01-12T10:31:58.000Z</time>
      </trkpt>
      <trkpt lat="43.45552" lon="6.83008">
        <ele>56</ele>
        <time>2019-01-12T10:31:54.000Z</time>
      </trkpt>
      <trkpt lat="43.45554" lon="6.83007">
        <ele>55.799999237061</ele>
        <time>2019-01-12T10:31:53.000Z</time>
      </trkpt>
      <trkpt lat="43.45558" lon="6.8301">
        <ele>55.799999237061</ele>
        <time>2019-01-12T10:31:50.000Z</time>
      </trkpt>
      <trkpt lat="43.45561" lon="6.83012">
        <ele>55.200000762939</ele>
        <time>2019-01-12T10:31:48.000Z</time>
      </trkpt>
      <trkpt lat="43.45564" lon="6.83014">
        <ele>54.799999237061</ele>
        <time>2019-01-12T10:31:46.000Z</time>
      </trkpt>
      <trkpt lat="43.45571" lon="6.83016">
        <ele>54.200000762939</ele>
        <time>2019-01-12T10:31:43.000Z</time>
      </trkpt>
      <trkpt lat="43.45575" lon="6.8302">
        <ele>53.799999237061</ele>
        <time>2019-01-12T10:31:41.000Z</time>
      </trkpt>
      <trkpt lat="43.45577" lon="6.83021">
        <ele>53.799999237061</ele>
        <time>2019-01-12T10:31:40.000Z</time>
      </trkpt>
      <trkpt lat="43.45581" lon="6.83035">
        <ele>52.599998474121</ele>
        <time>2019-01-12T10:31:35.000Z</time>
      </trkpt>
      <trkpt lat="43.45584" lon="6.83056">
        <ele>51.599998474121</ele>
        <time>2019-01-12T10:31:28.000Z</time>
      </trkpt>
      <trkpt lat="43.45585" lon="6.83068">
        <ele>50.400001525879</ele>
        <time>2019-01-12T10:31:24.000Z</time>
      </trkpt>
      <trkpt lat="43.45586" lon="6.83082">
        <ele>49.400001525879</ele>
        <time>2019-01-12T10:31:20.000Z</time>
      </trkpt>
      <trkpt lat="43.45587" lon="6.83089">
        <ele>49</ele>
        <time>2019-01-12T10:31:18.000Z</time>
      </trkpt>
      <trkpt lat="43.45588" lon="6.83103">
        <ele>48.400001525879</ele>
        <time>2019-01-12T10:31:14.000Z</time>
      </trkpt>
      <trkpt lat="43.45592" lon="6.83121">
        <ele>47.200000762939</ele>
        <time>2019-01-12T10:31:09.000Z</time>
      </trkpt>
      <trkpt lat="43.45593" lon="6.83124">
        <ele>47.200000762939</ele>
        <time>2019-01-12T10:31:08.000Z</time>
      </trkpt>
      <trkpt lat="43.45597" lon="6.83141">
        <ele>46.200000762939</ele>
        <time>2019-01-12T10:31:03.000Z</time>
      </trkpt>
      <trkpt lat="43.45601" lon="6.83152">
        <ele>45.799999237061</ele>
        <time>2019-01-12T10:31:00.000Z</time>
      </trkpt>
      <trkpt lat="43.45611" lon="6.83175">
        <ele>45</ele>
        <time>2019-01-12T10:30:53.000Z</time>
      </trkpt>
      <trkpt lat="43.45613" lon="6.83178">
        <ele>44.799999237061</ele>
        <time>2019-01-12T10:30:52.000Z</time>
      </trkpt>
      <trkpt lat="43.45627" lon="6.83205">
        <ele>43.799999237061</ele>
        <time>2019-01-12T10:30:44.000Z</time>
      </trkpt>
      <trkpt lat="43.45629" lon="6.83208">
        <ele>43.799999237061</ele>
        <time>2019-01-12T10:30:43.000Z</time>
      </trkpt>
      <trkpt lat="43.45638" lon="6.83226">
        <ele>42.799999237061</ele>
        <time>2019-01-12T10:30:38.000Z</time>
      </trkpt>
      <trkpt lat="43.45644" lon="6.8324">
        <ele>41.200000762939</ele>
        <time>2019-01-12T10:30:34.000Z</time>
      </trkpt>
      <trkpt lat="43.45652" lon="6.83263">
        <ele>41.599998474121</ele>
        <time>2019-01-12T10:30:28.000Z</time>
      </trkpt>
      <trkpt lat="43.45656" lon="6.83274">
        <ele>40.799999237061</ele>
        <time>2019-01-12T10:30:25.000Z</time>
      </trkpt>
      <trkpt lat="43.45658" lon="6.83281">
        <ele>40.400001525879</ele>
        <time>2019-01-12T10:30:23.000Z</time>
      </trkpt>
      <trkpt lat="43.45667" lon="6.83313">
        <ele>39.400001525879</ele>
        <time>2019-01-12T10:30:15.000Z</time>
      </trkpt>
      <trkpt lat="43.45673" lon="6.83336">
        <ele>38.400001525879</ele>
        <time>2019-01-12T10:30:09.000Z</time>
      </trkpt>
      <trkpt lat="43.45676" lon="6.83352">
        <ele>37.799999237061</ele>
        <time>2019-01-12T10:30:05.000Z</time>
      </trkpt>
      <trkpt lat="43.45679" lon="6.8337">
        <ele>37.400001525879</ele>
        <time>2019-01-12T10:30:00.000Z</time>
      </trkpt>
      <trkpt lat="43.45681" lon="6.83381">
        <ele>37</ele>
        <time>2019-01-12T10:29:57.000Z</time>
      </trkpt>
      <trkpt lat="43.45683" lon="6.83397">
        <ele>36.400001525879</ele>
        <time>2019-01-12T10:29:53.000Z</time>
      </trkpt>
      <trkpt lat="43.45685" lon="6.83408">
        <ele>36</ele>
        <time>2019-01-12T10:29:50.000Z</time>
      </trkpt>
      <trkpt lat="43.45686" lon="6.83423">
        <ele>35.200000762939</ele>
        <time>2019-01-12T10:29:46.000Z</time>
      </trkpt>
      <trkpt lat="43.45687" lon="6.83438">
        <ele>35</ele>
        <time>2019-01-12T10:29:42.000Z</time>
      </trkpt>
      <trkpt lat="43.45686" lon="6.8346">
        <ele>34.200000762939</ele>
        <time>2019-01-12T10:29:36.000Z</time>
      </trkpt>
      <trkpt lat="43.45686" lon="6.83471">
        <ele>33.799999237061</ele>
        <time>2019-01-12T10:29:33.000Z</time>
      </trkpt>
      <trkpt lat="43.45686" lon="6.83481">
        <ele>33.200000762939</ele>
        <time>2019-01-12T10:29:30.000Z</time>
      </trkpt>
      <trkpt lat="43.45684" lon="6.83504">
        <ele>32.400001525879</ele>
        <time>2019-01-12T10:29:24.000Z</time>
      </trkpt>
      <trkpt lat="43.45683" lon="6.83516">
        <ele>32</ele>
        <time>2019-01-12T10:29:21.000Z</time>
      </trkpt>
      <trkpt lat="43.45682" lon="6.83534">
        <ele>31.200000762939</ele>
        <time>2019-01-12T10:29:16.000Z</time>
      </trkpt>
      <trkpt lat="43.45683" lon="6.83552">
        <ele>30.799999237061</ele>
        <time>2019-01-12T10:29:11.000Z</time>
      </trkpt>
      <trkpt lat="43.45684" lon="6.8357">
        <ele>30</ele>
        <time>2019-01-12T10:29:06.000Z</time>
      </trkpt>
      <trkpt lat="43.45685" lon="6.83577">
        <ele>29.60000038147</ele>
        <time>2019-01-12T10:29:04.000Z</time>
      </trkpt>
      <trkpt lat="43.45692" lon="6.83609">
        <ele>28.60000038147</ele>
        <time>2019-01-12T10:28:54.000Z</time>
      </trkpt>
      <trkpt lat="43.45693" lon="6.83612">
        <ele>28.39999961853</ele>
        <time>2019-01-12T10:28:53.000Z</time>
      </trkpt>
      <trkpt lat="43.45698" lon="6.83627">
        <ele>27.39999961853</ele>
        <time>2019-01-12T10:28:48.000Z</time>
      </trkpt>
      <trkpt lat="43.45702" lon="6.83638">
        <ele>27.200000762939</ele>
        <time>2019-01-12T10:28:44.000Z</time>
      </trkpt>
      <trkpt lat="43.45712" lon="6.83658">
        <ele>26.39999961853</ele>
        <time>2019-01-12T10:28:37.000Z</time>
      </trkpt>
      <trkpt lat="43.45715" lon="6.83666">
        <ele>26</ele>
        <time>2019-01-12T10:28:34.000Z</time>
      </trkpt>
      <trkpt lat="43.45721" lon="6.8368">
        <ele>25.39999961853</ele>
        <time>2019-01-12T10:28:29.000Z</time>
      </trkpt>
      <trkpt lat="43.45723" lon="6.83685">
        <ele>25</ele>
        <time>2019-01-12T10:28:27.000Z</time>
      </trkpt>
      <trkpt lat="43.45726" lon="6.83693">
        <ele>24.39999961853</ele>
        <time>2019-01-12T10:28:24.000Z</time>
      </trkpt>
      <trkpt lat="43.45728" lon="6.83696">
        <ele>24</ele>
        <time>2019-01-12T10:28:23.000Z</time>
      </trkpt>
      <trkpt lat="43.45731" lon="6.8371">
        <ele>23</ele>
        <time>2019-01-12T10:28:18.000Z</time>
      </trkpt>
      <trkpt lat="43.45732" lon="6.83722">
        <ele>22.200000762939</ele>
        <time>2019-01-12T10:28:14.000Z</time>
      </trkpt>
      <trkpt lat="43.45732" lon="6.83728">
        <ele>21.60000038147</ele>
        <time>2019-01-12T10:28:12.000Z</time>
      </trkpt>
      <trkpt lat="43.45732" lon="6.83746">
        <ele>20.60000038147</ele>
        <time>2019-01-12T10:28:06.000Z</time>
      </trkpt>
      <trkpt lat="43.45732" lon="6.83748">
        <ele>20.60000038147</ele>
        <time>2019-01-12T10:28:05.000Z</time>
      </trkpt>
      <trkpt lat="43.45732" lon="6.83767">
        <ele>19.39999961853</ele>
        <time>2019-01-12T10:27:59.000Z</time>
      </trkpt>
      <trkpt lat="43.45731" lon="6.83771">
        <ele>19.200000762939</ele>
        <time>2019-01-12T10:27:58.000Z</time>
      </trkpt>
      <trkpt lat="43.4573" lon="6.83785">
        <ele>18.200000762939</ele>
        <time>2019-01-12T10:27:54.000Z</time>
      </trkpt>
      <trkpt lat="43.45728" lon="6.83797">
        <ele>17.60000038147</ele>
        <time>2019-01-12T10:27:51.000Z</time>
      </trkpt>
      <trkpt lat="43.45727" lon="6.83805">
        <ele>17.200000762939</ele>
        <time>2019-01-12T10:27:49.000Z</time>
      </trkpt>
      <trkpt lat="43.45724" lon="6.83826">
        <ele>16.799999237061</ele>
        <time>2019-01-12T10:27:44.000Z</time>
      </trkpt>
      <trkpt lat="43.45726" lon="6.83857">
        <ele>16</ele>
        <time>2019-01-12T10:27:37.000Z</time>
      </trkpt>
      <trkpt lat="43.45727" lon="6.83861">
        <ele>16</ele>
        <time>2019-01-12T10:27:36.000Z</time>
      </trkpt>
      <trkpt lat="43.45731" lon="6.83885">
        <ele>15</ele>
        <time>2019-01-12T10:27:29.000Z</time>
      </trkpt>
      <trkpt lat="43.45733" lon="6.83892">
        <ele>14.800000190735</ele>
        <time>2019-01-12T10:27:27.000Z</time>
      </trkpt>
      <trkpt lat="43.45739" lon="6.83913">
        <ele>13</ele>
        <time>2019-01-12T10:27:21.000Z</time>
      </trkpt>
      <trkpt lat="43.45749" lon="6.83941">
        <ele>13.39999961853</ele>
        <time>2019-01-12T10:27:15.000Z</time>
      </trkpt>
      <trkpt lat="43.45753" lon="6.83953">
        <ele>13.800000190735</ele>
        <time>2019-01-12T10:27:13.000Z</time>
      </trkpt>
      <trkpt lat="43.45766" lon="6.83982">
        <ele>14.60000038147</ele>
        <time>2019-01-12T10:27:08.000Z</time>
      </trkpt>
      <trkpt lat="43.45783" lon="6.84026">
        <ele>15</ele>
        <time>2019-01-12T10:26:59.000Z</time>
      </trkpt>
      <trkpt lat="43.45803" lon="6.8406">
        <ele>15</ele>
        <time>2019-01-12T10:26:51.000Z</time>
      </trkpt>
      <trkpt lat="43.45806" lon="6.84064">
        <ele>15</ele>
        <time>2019-01-12T10:26:50.000Z</time>
      </trkpt>
      <trkpt lat="43.45822" lon="6.84089">
        <ele>16</ele>
        <time>2019-01-12T10:26:44.000Z</time>
      </trkpt>
      <trkpt lat="43.45828" lon="6.84097">
        <ele>16.200000762939</ele>
        <time>2019-01-12T10:26:42.000Z</time>
      </trkpt>
      <trkpt lat="43.45841" lon="6.84117">
        <ele>16.39999961853</ele>
        <time>2019-01-12T10:26:36.000Z</time>
      </trkpt>
      <trkpt lat="43.45849" lon="6.84132">
        <ele>16.39999961853</ele>
        <time>2019-01-12T10:26:31.000Z</time>
      </trkpt>
      <trkpt lat="43.45853" lon="6.84135">
        <ele>16.39999961853</ele>
        <time>2019-01-12T10:26:29.000Z</time>
      </trkpt>
      <trkpt lat="43.4586" lon="6.84145">
        <ele>16.39999961853</ele>
        <time>2019-01-12T10:26:25.000Z</time>
      </trkpt>
      <trkpt lat="43.45871" lon="6.84151">
        <ele>16.60000038147</ele>
        <time>2019-01-12T10:26:20.000Z</time>
      </trkpt>
      <trkpt lat="43.45885" lon="6.84163">
        <ele>16.60000038147</ele>
        <time>2019-01-12T10:26:15.000Z</time>
      </trkpt>
      <trkpt lat="43.45904" lon="6.84167">
        <ele>16.200000762939</ele>
        <time>2019-01-12T10:26:09.000Z</time>
      </trkpt>
      <trkpt lat="43.4592" lon="6.84175">
        <ele>17</ele>
        <time>2019-01-12T10:26:04.000Z</time>
      </trkpt>
      <trkpt lat="43.45939" lon="6.84183">
        <ele>16.799999237061</ele>
        <time>2019-01-12T10:25:58.000Z</time>
      </trkpt>
      <trkpt lat="43.45944" lon="6.84184">
        <ele>17</ele>
        <time>2019-01-12T10:25:56.000Z</time>
      </trkpt>
      <trkpt lat="43.45949" lon="6.8419">
        <ele>16.799999237061</ele>
        <time>2019-01-12T10:25:53.000Z</time>
      </trkpt>
      <trkpt lat="43.4595" lon="6.84193">
        <ele>16.60000038147</ele>
        <time>2019-01-12T10:25:52.000Z</time>
      </trkpt>
      <trkpt lat="43.4595" lon="6.84195">
        <ele>16</ele>
        <time>2019-01-12T10:25:51.000Z</time>
      </trkpt>
      <trkpt lat="43.45949" lon="6.84199">
        <ele>15</ele>
        <time>2019-01-12T10:25:48.000Z</time>
      </trkpt>
      <trkpt lat="43.45947" lon="6.84204">
        <ele>14.800000190735</ele>
        <time>2019-01-12T10:25:45.000Z</time>
      </trkpt>
      <trkpt lat="43.45945" lon="6.84207">
        <ele>15.39999961853</ele>
        <time>2019-01-12T10:25:44.000Z</time>
      </trkpt>
      <trkpt lat="43.45941" lon="6.84214">
        <ele>16.200000762939</ele>
        <time>2019-01-12T10:25:42.000Z</time>
      </trkpt>
      <trkpt lat="43.45938" lon="6.84218">
        <ele>16.799999237061</ele>
        <time>2019-01-12T10:25:41.000Z</time>
      </trkpt>
      <trkpt lat="43.45935" lon="6.84223">
        <ele>17.60000038147</ele>
        <time>2019-01-12T10:25:40.000Z</time>
      </trkpt>
      <trkpt lat="43.4593" lon="6.84234">
        <ele>18.799999237061</ele>
        <time>2019-01-12T10:25:38.000Z</time>
      </trkpt>
      <trkpt lat="43.45924" lon="6.84246">
        <ele>19.799999237061</ele>
        <time>2019-01-12T10:25:35.000Z</time>
      </trkpt>
      <trkpt lat="43.45917" lon="6.84254">
        <ele>20.200000762939</ele>
        <time>2019-01-12T10:25:33.000Z</time>
      </trkpt>
      <trkpt lat="43.45911" lon="6.84261">
        <ele>20.60000038147</ele>
        <time>2019-01-12T10:25:31.000Z</time>
      </trkpt>
      <trkpt lat="43.45908" lon="6.84264">
        <ele>21.200000762939</ele>
        <time>2019-01-12T10:25:30.000Z</time>
      </trkpt>
      <trkpt lat="43.45906" lon="6.84274">
        <ele>21.799999237061</ele>
        <time>2019-01-12T10:25:28.000Z</time>
      </trkpt>
      <trkpt lat="43.45909" lon="6.84278">
        <ele>22.39999961853</ele>
        <time>2019-01-12T10:25:27.000Z</time>
      </trkpt>
      <trkpt lat="43.45924" lon="6.84271">
        <ele>22.60000038147</ele>
        <time>2019-01-12T10:25:24.000Z</time>
      </trkpt>
      <trkpt lat="43.45929" lon="6.8427">
        <ele>23.39999961853</ele>
        <time>2019-01-12T10:25:23.000Z</time>
      </trkpt>
      <trkpt lat="43.45939" lon="6.84276">
        <ele>25.200000762939</ele>
        <time>2019-01-12T10:25:21.000Z</time>
      </trkpt>
      <trkpt lat="43.45949" lon="6.84282">
        <ele>26.200000762939</ele>
        <time>2019-01-12T10:25:19.000Z</time>
      </trkpt>
      <trkpt lat="43.4596" lon="6.84288">
        <ele>26.799999237061</ele>
        <time>2019-01-12T10:25:17.000Z</time>
      </trkpt>
      <trkpt lat="43.45968" lon="6.84295">
        <ele>27</ele>
        <time>2019-01-12T10:25:15.000Z</time>
      </trkpt>
      <trkpt lat="43.45974" lon="6.84298">
        <ele>27.39999961853</ele>
        <time>2019-01-12T10:25:14.000Z</time>
      </trkpt>
      <trkpt lat="43.45984" lon="6.84306">
        <ele>28.60000038147</ele>
        <time>2019-01-12T10:25:12.000Z</time>
      </trkpt>
      <trkpt lat="43.4599" lon="6.84309">
        <ele>28.60000038147</ele>
        <time>2019-01-12T10:25:11.000Z</time>
      </trkpt>
      <trkpt lat="43.45995" lon="6.8431">
        <ele>29.60000038147</ele>
        <time>2019-01-12T10:25:10.000Z</time>
      </trkpt>
      <trkpt lat="43.46004" lon="6.84306">
        <ele>30.200000762939</ele>
        <time>2019-01-12T10:25:08.000Z</time>
      </trkpt>
      <trkpt lat="43.46014" lon="6.84298">
        <ele>31.39999961853</ele>
        <time>2019-01-12T10:25:06.000Z</time>
      </trkpt>
      <trkpt lat="43.46019" lon="6.84296">
        <ele>31.60000038147</ele>
        <time>2019-01-12T10:25:05.000Z</time>
      </trkpt>
      <trkpt lat="43.46028" lon="6.84294">
        <ele>32.400001525879</ele>
        <time>2019-01-12T10:25:03.000Z</time>
      </trkpt>
      <trkpt lat="43.46032" lon="6.84293">
        <ele>32.400001525879</ele>
        <time>2019-01-12T10:25:02.000Z</time>
      </trkpt>
      <trkpt lat="43.46037" lon="6.84293">
        <ele>32.799999237061</ele>
        <time>2019-01-12T10:25:01.000Z</time>
      </trkpt>
      <trkpt lat="43.46049" lon="6.84295">
        <ele>34</ele>
        <time>2019-01-12T10:24:58.000Z</time>
      </trkpt>
      <trkpt lat="43.46053" lon="6.84297">
        <ele>34.799999237061</ele>
        <time>2019-01-12T10:24:57.000Z</time>
      </trkpt>
      <trkpt lat="43.4606" lon="6.84302">
        <ele>35.400001525879</ele>
        <time>2019-01-12T10:24:55.000Z</time>
      </trkpt>
      <trkpt lat="43.46069" lon="6.8431">
        <ele>36.400001525879</ele>
        <time>2019-01-12T10:24:53.000Z</time>
      </trkpt>
      <trkpt lat="43.46073" lon="6.84313">
        <ele>36.599998474121</ele>
        <time>2019-01-12T10:24:52.000Z</time>
      </trkpt>
      <trkpt lat="43.46087" lon="6.84333">
        <ele>36.799999237061</ele>
        <time>2019-01-12T10:24:48.000Z</time>
      </trkpt>
      <trkpt lat="43.46088" lon="6.84354">
        <ele>38.200000762939</ele>
        <time>2019-01-12T10:24:45.000Z</time>
      </trkpt>
      <trkpt lat="43.46086" lon="6.84363">
        <ele>38.200000762939</ele>
        <time>2019-01-12T10:24:44.000Z</time>
      </trkpt>
      <trkpt lat="43.4607" lon="6.84388">
        <ele>39.200000762939</ele>
        <time>2019-01-12T10:24:40.000Z</time>
      </trkpt>
      <trkpt lat="43.46059" lon="6.84405">
        <ele>40</ele>
        <time>2019-01-12T10:24:37.000Z</time>
      </trkpt>
      <trkpt lat="43.46057" lon="6.8442">
        <ele>40</ele>
        <time>2019-01-12T10:24:35.000Z</time>
      </trkpt>
      <trkpt lat="43.46057" lon="6.84429">
        <ele>40.799999237061</ele>
        <time>2019-01-12T10:24:34.000Z</time>
      </trkpt>
      <trkpt lat="43.46058" lon="6.84437">
        <ele>40.400001525879</ele>
        <time>2019-01-12T10:24:33.000Z</time>
      </trkpt>
      <trkpt lat="43.46062" lon="6.84453">
        <ele>41.799999237061</ele>
        <time>2019-01-12T10:24:31.000Z</time>
      </trkpt>
      <trkpt lat="43.46071" lon="6.8449">
        <ele>42.599998474121</ele>
        <time>2019-01-12T10:24:26.000Z</time>
      </trkpt>
      <trkpt lat="43.46074" lon="6.84498">
        <ele>43</ele>
        <time>2019-01-12T10:24:25.000Z</time>
      </trkpt>
      <trkpt lat="43.46077" lon="6.84504">
        <ele>43</ele>
        <time>2019-01-12T10:24:24.000Z</time>
      </trkpt>
      <trkpt lat="43.46083" lon="6.84508">
        <ele>43.599998474121</ele>
        <time>2019-01-12T10:24:23.000Z</time>
      </trkpt>
      <trkpt lat="43.46095" lon="6.84514">
        <ele>44.200000762939</ele>
        <time>2019-01-12T10:24:21.000Z</time>
      </trkpt>
      <trkpt lat="43.461" lon="6.84517">
        <ele>44.200000762939</ele>
        <time>2019-01-12T10:24:20.000Z</time>
      </trkpt>
      <trkpt lat="43.46126" lon="6.84534">
        <ele>45.400001525879</ele>
        <time>2019-01-12T10:24:15.000Z</time>
      </trkpt>
      <trkpt lat="43.46145" lon="6.84554">
        <ele>46.799999237061</ele>
        <time>2019-01-12T10:24:11.000Z</time>
      </trkpt>
      <trkpt lat="43.46153" lon="6.84565">
        <ele>47.400001525879</ele>
        <time>2019-01-12T10:24:09.000Z</time>
      </trkpt>
      <trkpt lat="43.46161" lon="6.84587">
        <ele>47</ele>
        <time>2019-01-12T10:24:06.000Z</time>
      </trkpt>
      <trkpt lat="43.46164" lon="6.84595">
        <ele>47.599998474121</ele>
        <time>2019-01-12T10:24:05.000Z</time>
      </trkpt>
      <trkpt lat="43.46169" lon="6.84609">
        <ele>48</ele>
        <time>2019-01-12T10:24:03.000Z</time>
      </trkpt>
      <trkpt lat="43.46176" lon="6.8462">
        <ele>49</ele>
        <time>2019-01-12T10:24:01.000Z</time>
      </trkpt>
      <trkpt lat="43.46183" lon="6.84641">
        <ele>49.200000762939</ele>
        <time>2019-01-12T10:23:58.000Z</time>
      </trkpt>
      <trkpt lat="43.46186" lon="6.84647">
        <ele>49.400001525879</ele>
        <time>2019-01-12T10:23:57.000Z</time>
      </trkpt>
      <trkpt lat="43.46188" lon="6.84654">
        <ele>49.400001525879</ele>
        <time>2019-01-12T10:23:56.000Z</time>
      </trkpt>
      <trkpt lat="43.46198" lon="6.84673">
        <ele>50.799999237061</ele>
        <time>2019-01-12T10:23:53.000Z</time>
      </trkpt>
      <trkpt lat="43.46205" lon="6.84683">
        <ele>51</ele>
        <time>2019-01-12T10:23:51.000Z</time>
      </trkpt>
      <trkpt lat="43.46216" lon="6.84701">
        <ele>52.200000762939</ele>
        <time>2019-01-12T10:23:48.000Z</time>
      </trkpt>
      <trkpt lat="43.46227" lon="6.84719">
        <ele>53.200000762939</ele>
        <time>2019-01-12T10:23:45.000Z</time>
      </trkpt>
      <trkpt lat="43.4623" lon="6.84725">
        <ele>53.200000762939</ele>
        <time>2019-01-12T10:23:44.000Z</time>
      </trkpt>
      <trkpt lat="43.46234" lon="6.84732">
        <ele>53.400001525879</ele>
        <time>2019-01-12T10:23:43.000Z</time>
      </trkpt>
      <trkpt lat="43.46247" lon="6.84748">
        <ele>53.799999237061</ele>
        <time>2019-01-12T10:23:40.000Z</time>
      </trkpt>
      <trkpt lat="43.46256" lon="6.84757">
        <ele>54.400001525879</ele>
        <time>2019-01-12T10:23:38.000Z</time>
      </trkpt>
      <trkpt lat="43.4627" lon="6.8477">
        <ele>54.799999237061</ele>
        <time>2019-01-12T10:23:35.000Z</time>
      </trkpt>
      <trkpt lat="43.46273" lon="6.84774">
        <ele>55.200000762939</ele>
        <time>2019-01-12T10:23:34.000Z</time>
      </trkpt>
      <trkpt lat="43.46278" lon="6.84778">
        <ele>55.599998474121</ele>
        <time>2019-01-12T10:23:33.000Z</time>
      </trkpt>
      <trkpt lat="43.4629" lon="6.84788">
        <ele>56.400001525879</ele>
        <time>2019-01-12T10:23:30.000Z</time>
      </trkpt>
      <trkpt lat="43.46303" lon="6.84807">
        <ele>56.799999237061</ele>
        <time>2019-01-12T10:23:26.000Z</time>
      </trkpt>
      <trkpt lat="43.46309" lon="6.84832">
        <ele>57.400001525879</ele>
        <time>2019-01-12T10:23:20.000Z</time>
      </trkpt>
      <trkpt lat="43.46316" lon="6.84846">
        <ele>56.599998474121</ele>
        <time>2019-01-12T10:23:15.000Z</time>
      </trkpt>
      <trkpt lat="43.46317" lon="6.84848">
        <ele>56.799999237061</ele>
        <time>2019-01-12T10:23:14.000Z</time>
      </trkpt>
      <trkpt lat="43.46321" lon="6.84853">
        <ele>57.799999237061</ele>
        <time>2019-01-12T10:23:11.000Z</time>
      </trkpt>
      <trkpt lat="43.46322" lon="6.84856">
        <ele>58</ele>
        <time>2019-01-12T10:23:10.000Z</time>
      </trkpt>
      <trkpt lat="43.46337" lon="6.84881">
        <ele>59</ele>
        <time>2019-01-12T10:23:05.000Z</time>
      </trkpt>
      <trkpt lat="43.46347" lon="6.84901">
        <ele>60</ele>
        <time>2019-01-12T10:23:01.000Z</time>
      </trkpt>
      <trkpt lat="43.46349" lon="6.84907">
        <ele>60.400001525879</ele>
        <time>2019-01-12T10:23:00.000Z</time>
      </trkpt>
      <trkpt lat="43.46357" lon="6.84918">
        <ele>60.599998474121</ele>
        <time>2019-01-12T10:22:58.000Z</time>
      </trkpt>
      <trkpt lat="43.4636" lon="6.84923">
        <ele>60.799999237061</ele>
        <time>2019-01-12T10:22:57.000Z</time>
      </trkpt>
      <trkpt lat="43.46364" lon="6.84928">
        <ele>61.200000762939</ele>
        <time>2019-01-12T10:22:56.000Z</time>
      </trkpt>
      <trkpt lat="43.46368" lon="6.84933">
        <ele>61.599998474121</ele>
        <time>2019-01-12T10:22:55.000Z</time>
      </trkpt>
      <trkpt lat="43.46377" lon="6.84952">
        <ele>62.400001525879</ele>
        <time>2019-01-12T10:22:52.000Z</time>
      </trkpt>
      <trkpt lat="43.4638" lon="6.84966">
        <ele>62</ele>
        <time>2019-01-12T10:22:50.000Z</time>
      </trkpt>
      <trkpt lat="43.46383" lon="6.84982">
        <ele>62.599998474121</ele>
        <time>2019-01-12T10:22:48.000Z</time>
      </trkpt>
      <trkpt lat="43.46382" lon="6.85008">
        <ele>64.599998474121</ele>
        <time>2019-01-12T10:22:44.000Z</time>
      </trkpt>
      <trkpt lat="43.46384" lon="6.85033">
        <ele>64.599998474121</ele>
        <time>2019-01-12T10:22:40.000Z</time>
      </trkpt>
      <trkpt lat="43.46393" lon="6.85048">
        <ele>64</ele>
        <time>2019-01-12T10:22:37.000Z</time>
      </trkpt>
      <trkpt lat="43.46408" lon="6.85047">
        <ele>64.400001525879</ele>
        <time>2019-01-12T10:22:33.000Z</time>
      </trkpt>
      <trkpt lat="43.46412" lon="6.85044">
        <ele>65</ele>
        <time>2019-01-12T10:22:32.000Z</time>
      </trkpt>
      <trkpt lat="43.46416" lon="6.85042">
        <ele>65.400001525879</ele>
        <time>2019-01-12T10:22:31.000Z</time>
      </trkpt>
      <trkpt lat="43.46424" lon="6.85046">
        <ele>66.400001525879</ele>
        <time>2019-01-12T10:22:29.000Z</time>
      </trkpt>
      <trkpt lat="43.46428" lon="6.85049">
        <ele>66.599998474121</ele>
        <time>2019-01-12T10:22:28.000Z</time>
      </trkpt>
      <trkpt lat="43.46431" lon="6.85053">
        <ele>67</ele>
        <time>2019-01-12T10:22:27.000Z</time>
      </trkpt>
      <trkpt lat="43.46437" lon="6.85063">
        <ele>67.599998474121</ele>
        <time>2019-01-12T10:22:25.000Z</time>
      </trkpt>
      <trkpt lat="43.46443" lon="6.85079">
        <ele>68.400001525879</ele>
        <time>2019-01-12T10:22:22.000Z</time>
      </trkpt>
      <trkpt lat="43.46448" lon="6.85109">
        <ele>68</ele>
        <time>2019-01-12T10:22:17.000Z</time>
      </trkpt>
      <trkpt lat="43.46449" lon="6.85119">
        <ele>68.599998474121</ele>
        <time>2019-01-12T10:22:15.000Z</time>
      </trkpt>
      <trkpt lat="43.4645" lon="6.85125">
        <ele>69.199996948242</ele>
        <time>2019-01-12T10:22:14.000Z</time>
      </trkpt>
      <trkpt lat="43.46449" lon="6.85131">
        <ele>69.400001525879</ele>
        <time>2019-01-12T10:22:13.000Z</time>
      </trkpt>
      <trkpt lat="43.46449" lon="6.85137">
        <ele>69.800003051758</ele>
        <time>2019-01-12T10:22:12.000Z</time>
      </trkpt>
      <trkpt lat="43.46449" lon="6.8515">
        <ele>70.400001525879</ele>
        <time>2019-01-12T10:22:10.000Z</time>
      </trkpt>
      <trkpt lat="43.46449" lon="6.85169">
        <ele>71</ele>
        <time>2019-01-12T10:22:07.000Z</time>
      </trkpt>
      <trkpt lat="43.46448" lon="6.85184">
        <ele>71.199996948242</ele>
        <time>2019-01-12T10:22:05.000Z</time>
      </trkpt>
      <trkpt lat="43.46446" lon="6.85189">
        <ele>71.400001525879</ele>
        <time>2019-01-12T10:22:04.000Z</time>
      </trkpt>
      <trkpt lat="43.46442" lon="6.85193">
        <ele>71.599998474121</ele>
        <time>2019-01-12T10:22:03.000Z</time>
      </trkpt>
      <trkpt lat="43.46435" lon="6.85199">
        <ele>72.400001525879</ele>
        <time>2019-01-12T10:22:01.000Z</time>
      </trkpt>
      <trkpt lat="43.46429" lon="6.85209">
        <ele>72.800003051758</ele>
        <time>2019-01-12T10:21:59.000Z</time>
      </trkpt>
      <trkpt lat="43.46427" lon="6.85214">
        <ele>73.199996948242</ele>
        <time>2019-01-12T10:21:58.000Z</time>
      </trkpt>
      <trkpt lat="43.4642" lon="6.85229">
        <ele>72.800003051758</ele>
        <time>2019-01-12T10:21:55.000Z</time>
      </trkpt>
      <trkpt lat="43.46411" lon="6.8524">
        <ele>73.199996948242</ele>
        <time>2019-01-12T10:21:52.000Z</time>
      </trkpt>
      <trkpt lat="43.4641" lon="6.85247">
        <ele>73</ele>
        <time>2019-01-12T10:21:51.000Z</time>
      </trkpt>
      <trkpt lat="43.46413" lon="6.85252">
        <ele>73.599998474121</ele>
        <time>2019-01-12T10:21:50.000Z</time>
      </trkpt>
      <trkpt lat="43.46417" lon="6.85255">
        <ele>73.800003051758</ele>
        <time>2019-01-12T10:21:49.000Z</time>
      </trkpt>
      <trkpt lat="43.46422" lon="6.85258">
        <ele>74</ele>
        <time>2019-01-12T10:21:48.000Z</time>
      </trkpt>
      <trkpt lat="43.46426" lon="6.85262">
        <ele>74</ele>
        <time>2019-01-12T10:21:47.000Z</time>
      </trkpt>
      <trkpt lat="43.46437" lon="6.85276">
        <ele>74.400001525879</ele>
        <time>2019-01-12T10:21:44.000Z</time>
      </trkpt>
      <trkpt lat="43.46439" lon="6.85288">
        <ele>74.599998474121</ele>
        <time>2019-01-12T10:21:42.000Z</time>
      </trkpt>
      <trkpt lat="43.46438" lon="6.85294">
        <ele>75</ele>
        <time>2019-01-12T10:21:41.000Z</time>
      </trkpt>
      <trkpt lat="43.46434" lon="6.85303">
        <ele>75.599998474121</ele>
        <time>2019-01-12T10:21:39.000Z</time>
      </trkpt>
      <trkpt lat="43.46428" lon="6.85312">
        <ele>76.400001525879</ele>
        <time>2019-01-12T10:21:37.000Z</time>
      </trkpt>
      <trkpt lat="43.46419" lon="6.85317">
        <ele>76.599998474121</ele>
        <time>2019-01-12T10:21:35.000Z</time>
      </trkpt>
      <trkpt lat="43.46405" lon="6.85319">
        <ele>77</ele>
        <time>2019-01-12T10:21:32.000Z</time>
      </trkpt>
      <trkpt lat="43.46389" lon="6.85321">
        <ele>77.599998474121</ele>
        <time>2019-01-12T10:21:28.000Z</time>
      </trkpt>
      <trkpt lat="43.46382" lon="6.85325">
        <ele>77.800003051758</ele>
        <time>2019-01-12T10:21:26.000Z</time>
      </trkpt>
      <trkpt lat="43.46375" lon="6.85328">
        <ele>78</ele>
        <time>2019-01-12T10:21:24.000Z</time>
      </trkpt>
      <trkpt lat="43.46367" lon="6.85341">
        <ele>78.199996948242</ele>
        <time>2019-01-12T10:21:21.000Z</time>
      </trkpt>
      <trkpt lat="43.46369" lon="6.85361">
        <ele>78.800003051758</ele>
        <time>2019-01-12T10:21:18.000Z</time>
      </trkpt>
      <trkpt lat="43.4636" lon="6.85373">
        <ele>79.199996948242</ele>
        <time>2019-01-12T10:21:15.000Z</time>
      </trkpt>
      <trkpt lat="43.46356" lon="6.85373">
        <ele>79.599998474121</ele>
        <time>2019-01-12T10:21:14.000Z</time>
      </trkpt>
      <trkpt lat="43.46351" lon="6.85375">
        <ele>79.800003051758</ele>
        <time>2019-01-12T10:21:13.000Z</time>
      </trkpt>
      <trkpt lat="43.46348" lon="6.85378">
        <ele>80.199996948242</ele>
        <time>2019-01-12T10:21:12.000Z</time>
      </trkpt>
      <trkpt lat="43.46348" lon="6.85384">
        <ele>80.199996948242</ele>
        <time>2019-01-12T10:21:11.000Z</time>
      </trkpt>
      <trkpt lat="43.4635" lon="6.85391">
        <ele>80.400001525879</ele>
        <time>2019-01-12T10:21:10.000Z</time>
      </trkpt>
      <trkpt lat="43.46359" lon="6.85407">
        <ele>81.199996948242</ele>
        <time>2019-01-12T10:21:07.000Z</time>
      </trkpt>
      <trkpt lat="43.46361" lon="6.85414">
        <ele>81.400001525879</ele>
        <time>2019-01-12T10:21:06.000Z</time>
      </trkpt>
      <trkpt lat="43.46358" lon="6.85447">
        <ele>81.400001525879</ele>
        <time>2019-01-12T10:21:01.000Z</time>
      </trkpt>
      <trkpt lat="43.46357" lon="6.8545">
        <ele>81.400001525879</ele>
        <time>2019-01-12T10:21:00.000Z</time>
      </trkpt>
      <trkpt lat="43.46356" lon="6.85456">
        <ele>81.599998474121</ele>
        <time>2019-01-12T10:20:59.000Z</time>
      </trkpt>
      <trkpt lat="43.46353" lon="6.85459">
        <ele>81.400001525879</ele>
        <time>2019-01-12T10:20:58.000Z</time>
      </trkpt>
      <trkpt lat="43.4635" lon="6.85462">
        <ele>81.800003051758</ele>
        <time>2019-01-12T10:20:57.000Z</time>
      </trkpt>
      <trkpt lat="43.46342" lon="6.85479">
        <ele>82.599998474121</ele>
        <time>2019-01-12T10:20:53.000Z</time>
      </trkpt>
      <trkpt lat="43.4634" lon="6.85499">
        <ele>82.599998474121</ele>
        <time>2019-01-12T10:20:49.000Z</time>
      </trkpt>
      <trkpt lat="43.4634" lon="6.85504">
        <ele>82.599998474121</ele>
        <time>2019-01-12T10:20:48.000Z</time>
      </trkpt>
      <trkpt lat="43.46345" lon="6.85515">
        <ele>82.599998474121</ele>
        <time>2019-01-12T10:20:45.000Z</time>
      </trkpt>
      <trkpt lat="43.4635" lon="6.85522">
        <ele>82.400001525879</ele>
        <time>2019-01-12T10:20:39.000Z</time>
      </trkpt>
      <trkpt lat="43.46351" lon="6.85523">
        <ele>82.800003051758</ele>
        <time>2019-01-12T10:20:32.000Z</time>
      </trkpt>
      <trkpt lat="43.46391" lon="6.85487">
        <ele>81.4</ele>
      </trkpt>
      <trkpt lat="43.46415" lon="6.85469">
        <ele>78.8</ele>
      </trkpt>
      <trkpt lat="43.46443" lon="6.85477">
        <ele>78</ele>
      </trkpt>
      <trkpt lat="43.46464" lon="6.85537">
        <ele>83.2</ele>
      </trkpt>
      <trkpt lat="43.46478" lon="6.85596">
        <ele>88.4</ele>
      </trkpt>
      <trkpt lat="43.46508" lon="6.85641">
        <ele>90.4</ele>
      </trkpt>
      <trkpt lat="43.46508" lon="6.85641">
        <ele>90.4</ele>
      </trkpt>
    </trkseg>
  </trk>
</gpx>